[[{"header":{"parameterUnit":"m.s-1","parameterCategory":1,"la1":30.6,"la2":28.766,"lo1":-90.7593,"lo2":-88.6598,"dy":0.0162,"dx":0.0183,"nx":116,"ny":114,"refTime":"2024-06-30T18:00:00:Z","depth":0,"parameterNumber":2,"parameterNumberName":"U-component_of_WINDS"},"data":[0.0,0.0,0.0,0.0,0.0,0.0,0.0,0.0,0.0,0.0,0.0,0.0,0.0,0.0,0.0,0.0,0.0,0.0,0.0,0.0,0.0,0.0,0.0,0.0,0.0,0.0,0.0,0.0,0.0,0.0,0.0,0.0,0.0,0.0,0.0,0.0,0.0,0.0,0.0,0.0,0.0,0.0,0.0,0.0,0.0,0.0,0.0,0.0,0.0,0.0,0.0,0.0,0.0,0.0,0.0,0.0,0.0,0.0,0.0,0.0,0.0,0.0,0.0,0.0,0.0,0.0,0.0,0.0,0.0,0.0,0.0,0.0,0.0,0.0,0.0,0.0,0.0,0.0,0.0,0.0,0.0,0.0,0.0,0.0,0.0,0.0,0.0,0.0,0.0,0.0,0.0,0.0,0.0,0.0,0.0,0.0,0.0,0.0,0.0,0.0,0.0,0.0,0.0,0.0,0.0,0.0,0.0,0.0,0.0,0.0,0.0,0.0,0.0,0.0,0.0,0.0,0.0,0.0,0.0,0.0,0.0,0.0,0.0,0.0,0.0,0.0,0.0,0.0,0.0,0.0,0.0,0.0,0.0,0.0,0.0,0.0,0.0,0.0,0.0,0.0,0.0,0.0,0.0,0.0,0.0,0.0,0.0,0.0,0.0,0.0,0.0,0.0,0.0,0.0,0.0,0.0,0.0,0.0,0.0,0.0,0.0,0.0,0.0,0.0,0.0,0.0,0.0,0.0,0.0,0.0,0.0,0.0,0.0,0.0,0.0,0.0,0.0,0.0,0.0,0.0,0.0,0.0,0.0,0.0,0.0,0.0,0.0,0.0,0.0,0.0,0.0,0.0,0.0,0.0,0.0,0.0,0.0,0.0,0.0,0.0,0.0,0.0,0.0,0.0,0.0,0.0,0.0,0.0,0.0,0.0,0.0,0.0,0.0,0.0,0.0,0.0,0.0,0.0,0.0,0.0,0.0,0.0,0.0,0.0,0.0,0.0,0.0,0.0,0.0,0.0,0.0,0.0,0.0,0.0,0.0,0.0,0.0,0.0,0.0,0.0,0.0,0.0,0.0,0.0,0.0,0.0,0.0,0.0,0.0,0.0,0.0,0.0,0.0,0.0,0.0,0.0,0.0,0.0,0.0,0.0,0.0,0.0,0.0,0.0,0.0,0.0,0.0,0.0,0.0,0.0,0.0,0.0,0.0,0.0,0.0,0.0,0.0,0.0,0.0,0.0,0.0,0.0,0.0,0.0,0.0,0.0,0.0,0.0,0.0,0.0,0.0,0.0,0.0,0.0,0.0,0.0,0.0,0.0,0.0,0.0,0.0,0.0,0.0,0.0,0.0,0.0,0.0,0.0,0.0,0.0,0.0,0.0,0.0,0.0,0.0,0.0,0.0,0.0,0.0,0.0,0.0,0.0,0.0,0.0,0.0,0.0,0.0,0.0,0.0,0.0,0.0,0.0,0.0,0.0,0.0,0.0,0.0,0.0,0.0,0.0,0.0,0.0,0.0,0.0,0.0,0.0,0.0,0.0,0.0,0.0,0.0,0.0,0.0,0.0,0.0,0.0,0.0,0.0,0.0,0.0,0.0,0.0,0.0,0.0,0.0,0.0,0.0,0.0,0.0,0.0,0.0,0.0,0.0,0.0,0.0,0.0,0.0,0.0,0.0,0.0,0.0,0.0,0.0,0.0,0.0,0.0,0.0,0.0,0.0,0.0,0.0,0.0,0.0,0.0,0.0,0.0,0.0,0.0,0.0,0.0,0.0,0.0,0.0,0.0,0.0,0.0,0.0,0.0,0.0,0.0,0.0,0.0,0.0,0.0,0.0,0.0,0.0,0.0,0.0,0.0,0.0,0.0,0.0,0.0,0.0,0.0,0.0,0.0,0.0,0.0,0.0,0.0,0.0,0.0,0.0,0.0,0.0,0.0,0.0,0.0,0.0,0.0,0.0,0.0,0.0,0.0,0.0,0.0,0.0,0.0,0.0,0.0,0.0,0.0,0.0,0.0,0.0,0.0,0.0,0.0,0.0,0.0,0.0,0.0,0.0,0.0,0.0,0.0,0.0,0.0,0.0,0.0,0.0,0.0,0.0,0.0,0.0,0.0,0.0,0.0,0.0,0.0,0.0,0.0,0.0,0.0,0.0,0.0,0.0,0.0,0.0,0.0,0.0,0.0,0.0,0.0,0.0,0.0,0.0,0.0,0.0,0.0,0.0,0.0,0.0,0.0,0.0,0.0,0.0,0.0,0.0,0.0,0.0,0.0,0.0,0.0,0.0,0.0,0.0,0.0,0.0,0.0,0.0,0.0,0.0,0.0,0.0,0.0,0.0,0.0,0.0,0.0,0.0,0.0,0.0,0.0,0.0,0.0,0.0,0.0,0.0,0.0,0.0,0.0,0.0,0.0,0.0,0.0,0.0,0.0,0.0,0.0,0.0,0.0,0.0,0.0,0.0,0.0,0.0,0.0,0.0,0.0,0.0,0.0,0.0,0.0,0.0,0.0,0.0,0.0,0.0,0.0,0.0,0.0,0.0,0.0,0.0,0.0,0.0,0.0,0.0,0.0,0.0,0.0,0.0,0.0,0.0,0.0,0.0,0.0,0.0,0.0,0.0,0.0,0.0,0.0,0.0,0.0,0.0,0.0,0.0,0.0,0.0,0.0,0.0,0.0,0.0,0.0,0.0,0.0,0.0,0.0,0.0,0.0,0.0,0.0,0.0,0.0,0.0,0.0,0.0,0.0,0.0,0.0,0.0,0.0,0.0,0.0,0.0,0.0,0.0,0.0,0.0,0.0,0.0,0.0,0.0,0.0,0.0,0.0,0.0,0.0,0.0,0.0,0.0,0.0,0.0,0.0,0.0,0.0,0.0,0.0,0.0,0.0,0.0,0.0,0.0,0.0,0.0,0.0,0.0,0.0,0.0,0.0,0.0,0.0,0.0,0.0,0.0,0.0,0.0,0.0,0.0,0.0,0.0,0.0,0.0,0.0,0.0,0.0,0.0,0.0,0.0,0.0,0.0,0.0,0.0,0.0,0.0,0.0,0.0,0.0,0.0,0.0,0.0,0.0,0.0,0.0,0.0,0.0,0.0,0.0,0.0,0.0,0.0,0.0,0.0,0.0,0.0,0.0,0.0,0.0,0.0,0.0,0.0,0.0,0.0,0.0,0.0,0.0,0.0,0.0,0.0,0.0,0.0,0.0,0.0,0.0,0.0,0.0,0.0,0.0,0.0,0.0,0.0,0.0,0.0,0.0,0.0,0.0,0.0,0.0,0.0,0.0,0.0,0.0,0.0,0.0,0.0,0.0,0.0,0.0,0.0,0.0,0.0,0.0,0.0,0.0,0.0,0.0,0.0,0.0,0.0,0.0,0.0,0.0,0.0,0.0,0.0,0.0,0.0,0.0,0.0,0.0,0.0,0.0,0.0,0.0,0.0,0.0,0.0,0.0,0.0,0.0,0.0,0.0,0.0,0.0,0.0,0.0,0.0,0.0,0.0,0.0,0.0,0.0,0.0,0.0,0.0,0.0,0.0,0.0,0.0,0.0,0.0,0.0,0.0,0.0,0.0,0.0,0.0,0.0,0.0,0.0,0.0,0.0,0.0,0.0,0.0,0.0,0.0,0.0,0.0,0.0,0.0,0.0,0.0,0.0,0.0,0.0,0.0,0.0,0.0,0.0,0.0,0.0,0.0,0.0,0.0,0.0,0.0,0.0,0.0,0.0,0.0,0.0,0.0,0.0,0.0,0.0,0.0,0.0,0.0,0.0,0.0,0.0,0.0,0.0,0.0,0.0,0.0,0.0,0.0,0.0,0.0,0.0,0.0,0.0,0.0,0.0,0.0,0.0,0.0,0.0,0.0,0.0,0.0,0.0,0.0,0.0,0.0,0.0,0.0,0.0,0.0,0.0,0.0,0.0,0.0,0.0,0.0,0.0,0.0,0.0,0.0,0.0,0.0,0.0,0.0,0.0,0.0,0.0,0.0,0.0,0.0,0.0,0.0,0.0,0.0,0.0,0.0,0.0,0.0,0.0,0.0,0.0,0.0,0.0,0.0,0.0,0.0,0.0,0.0,0.0,0.0,0.0,0.0,0.0,0.0,0.0,0.0,0.0,0.0,0.0,0.0,0.0,0.0,0.0,0.0,0.0,0.0,0.0,0.0,0.0,0.0,0.0,0.0,0.0,0.0,0.0,0.0,0.0,0.0,0.0,0.0,0.0,0.0,0.0,0.0,0.0,0.0,0.0,0.0,0.0,0.0,0.0,0.0,0.0,0.0,0.0,0.0,0.0,0.0,0.0,0.0,0.0,0.0,0.0,0.0,0.0,0.0,0.0,0.0,0.0,0.0,0.0,0.0,0.0,0.0,0.0,0.0,0.0,0.0,0.0,0.0,0.0,0.0,0.0,0.0,0.0,0.0,0.0,0.0,0.0,0.0,0.0,0.0,0.0,0.0,0.0,0.0,0.0,0.0,0.0,0.0,0.0,0.0,0.0,0.0,0.0,0.0,0.0,0.0,0.0,0.0,0.0,0.0,0.0,0.0,0.0,0.0,0.0,0.0,0.0,0.0,0.0,0.0,0.0,0.0,0.0,0.0,0.0,0.0,0.0,0.0,0.0,0.0,0.0,0.0,0.0,0.0,0.0,0.0,0.0,0.0,0.0,0.0,0.0,0.0,0.0,0.0,0.0,0.0,0.0,0.0,0.0,0.0,0.0,0.0,0.0,0.0,0.0,0.0,0.0,0.0,0.0,0.0,0.0,0.0,0.0,0.0,0.0,0.0,0.0,0.0,0.0,0.0,0.0,0.0,0.0,0.0,0.0,0.0,0.0,0.0,0.0,0.0,0.0,0.0,0.0,0.0,0.0,0.0,0.0,0.0,0.0,0.0,0.0,0.0,0.0,0.0,0.0,0.0,0.0,0.0,0.0,0.0,0.0,0.0,0.0,0.0,0.0,0.0,0.0,0.0,0.0,0.0,0.0,0.0,0.0,0.0,0.0,0.0,0.0,0.0,0.0,0.0,0.0,0.0,0.0,0.0,0.0,0.0,0.0,0.0,0.0,0.0,0.0,0.0,0.0,0.0,0.0,0.0,0.0,0.0,0.0,0.0,0.0,0.0,0.0,0.0,0.0,0.0,0.0,0.0,0.0,0.0,0.0,0.0,0.0,0.0,0.0,0.0,0.0,0.0,0.0,0.0,0.0,0.0,0.0,0.0,0.0,0.0,0.0,0.0,0.0,0.0,0.0,0.0,0.0,0.0,0.0,0.0,0.0,0.0,0.0,0.0,0.0,0.0,0.0,0.0,0.0,0.0,0.0,0.0,0.0,0.0,0.0,0.0,0.0,0.0,0.0,0.0,0.0,0.0,0.0,0.0,0.0,0.0,0.0,0.0,0.0,0.0,0.0,0.0,0.0,0.0,0.0,0.0,0.0,0.0,0.0,0.0,0.0,0.0,0.0,0.0,0.0,0.0,0.0,0.0,0.0,0.0,0.0,0.0,0.0,0.0,0.0,0.0,0.0,0.0,0.0,0.0,0.0,0.0,0.0,0.0,0.0,0.0,0.0,0.0,0.0,0.0,0.0,0.0,0.0,0.0,0.0,0.0,0.0,0.0,0.0,0.0,0.0,0.0,0.0,0.0,0.0,0.0,0.0,0.0,0.0,0.0,0.0,0.0,0.0,0.0,0.0,0.0,0.0,0.0,0.0,0.0,0.0,0.0,0.0,0.0,0.0,0.0,0.0,0.0,0.0,0.0,0.0,0.0,0.0,0.0,0.0,0.0,0.0,0.0,0.0,0.0,0.0,0.0,0.0,0.0,0.0,0.0,0.0,0.0,0.0,0.0,0.0,0.0,0.0,0.0,0.0,0.0,0.0,0.0,0.0,0.0,0.0,0.0,0.0,0.0,0.0,0.0,0.0,0.0,0.0,0.0,0.0,0.0,0.0,0.0,0.0,0.0,0.0,0.0,0.0,0.0,0.0,0.0,0.0,0.0,0.0,0.0,0.0,0.0,0.0,0.0,0.0,0.0,0.0,0.0,0.0,0.0,0.0,0.0,0.0,0.0,0.0,0.0,0.0,0.0,0.0,0.0,0.0,-2.1237,-2.0079,0.0,0.0,0.0,0.0,0.0,0.0,0.0,0.0,0.0,0.0,0.0,0.0,0.0,0.0,0.0,0.0,0.0,0.0,0.0,0.0,0.0,0.0,0.0,-0.9791,-0.9811,-0.9757,-0.9834,-0.9872,-0.9793,0.0,0.0,0.0,0.0,0.0,-1.0003,-1.0003,-1.0391,-1.1205,-1.1629,-1.2465,-1.3707,-1.3568,-1.2829,-1.1626,0.0,0.0,0.0,0.0,0.0,0.0,0.0,0.0,0.0,0.0,0.0,0.0,0.0,0.0,0.0,0.0,0.0,0.0,0.0,0.0,0.0,0.0,0.0,0.0,0.0,0.0,0.0,0.0,0.0,0.0,0.0,0.0,0.0,0.0,0.0,0.0,0.0,0.0,0.0,0.0,0.0,0.0,0.0,0.0,0.0,0.0,0.0,0.0,0.0,0.0,0.0,0.0,0.0,0.0,0.0,0.0,0.0,0.0,0.0,0.0,0.0,0.0,0.0,0.0,0.0,0.0,0.0,0.0,0.0,0.0,-2.4816,-2.3453,0.0,0.0,0.0,0.0,0.0,0.0,0.0,0.0,0.0,0.0,0.0,0.0,0.0,0.0,0.0,0.0,0.0,0.0,0.0,0.0,0.0,-0.9897,-0.9928,-1.0039,-1.0159,-1.0239,-1.0373,-1.0355,-1.0135,-1.0185,0.0,0.0,0.0,-1.0006,-1.0014,-1.0168,-1.1002,-1.2528,-1.3125,-1.474,-1.7305,-1.7901,-1.7024,-1.4925,-1.4331,0.0,0.0,0.0,0.0,0.0,0.0,0.0,0.0,0.0,0.0,0.0,0.0,0.0,0.0,0.0,0.0,0.0,0.0,0.0,0.0,0.0,0.0,0.0,0.0,0.0,0.0,0.0,0.0,0.0,0.0,0.0,0.0,0.0,0.0,0.0,0.0,0.0,0.0,0.0,0.0,0.0,0.0,0.0,0.0,0.0,0.0,0.0,0.0,0.0,0.0,0.0,0.0,0.0,0.0,0.0,0.0,0.0,0.0,0.0,0.0,0.0,0.0,0.0,-3.1704,-3.2069,-3.201,-3.201,-3.2125,-3.2169,-2.9282,-2.7915,-2.7581,-2.5543,0.0,0.0,0.0,0.0,0.0,0.0,0.0,0.0,0.0,0.0,0.0,0.0,0.0,0.0,0.0,0.0,0.0,0.0,0.0,-1.013,-1.0765,-1.0896,-1.1238,-1.1993,-1.2131,-1.186,-1.1076,-1.1034,0.0,0.0,-1.0006,-1.0022,-1.0097,-1.0831,-1.1681,-1.2666,-1.5587,-1.832,-2.0838,-2.0871,-2.07,-2.026,-1.7859,-1.6667,-1.638,0.0,0.0,0.0,0.0,0.0,0.0,0.0,0.0,0.0,0.0,0.0,0.0,0.0,0.0,0.0,0.0,0.0,0.0,0.0,0.0,0.0,0.0,0.0,0.0,0.0,0.0,0.0,0.0,0.0,0.0,0.0,0.0,0.0,0.0,0.0,0.0,0.0,0.0,0.0,0.0,0.0,-1.7635,-1.9435,0.0,0.0,0.0,0.0,0.0,0.0,0.0,0.0,0.0,0.0,0.0,0.0,0.0,-3.1051,-3.2613,-3.4373,-3.5524,-3.6043,-3.7131,-3.7484,-3.721,-3.721,-3.7083,-3.6827,-3.6363,0.0,-3.0144,-2.9094,0.0,0.0,0.0,0.0,0.0,0.0,0.0,0.0,0.0,0.0,0.0,0.0,0.0,0.0,0.0,0.0,0.0,0.0,0.0,0.0,0.0,-1.1554,-1.2236,-1.3103,-1.4112,-1.4115,-1.275,-1.2694,-1.2142,-1.0841,-1.0784,-1.0793,-1.0829,-1.2135,-1.3923,-1.6231,-1.9642,-2.1874,-2.297,-2.3386,-2.3583,-2.353,-2.2258,-2.0378,-1.806,-1.6767,0.0,0.0,0.0,0.0,0.0,0.0,0.0,0.0,0.0,0.0,0.0,0.0,0.0,0.0,0.0,0.0,0.0,0.0,0.0,0.0,0.0,0.0,0.0,0.0,0.0,0.0,0.0,0.0,0.0,0.0,0.0,0.0,0.0,0.0,0.0,0.0,0.0,0.0,0.0,-1.7718,-2.0468,-2.1598,-2.2536,-2.2592,0.0,0.0,0.0,0.0,0.0,0.0,0.0,0.0,0.0,-3.2973,-3.4151,-3.5483,-3.7037,-3.7909,-3.8881,-3.9977,-4.0494,-4.0643,-4.0509,-4.0509,-4.0049,-3.9283,-3.9283,-3.7972,-3.5664,-3.2897,-3.0887,-2.9408,0.0,0.0,0.0,0.0,-2.7871,-2.8535,0.0,0.0,0.0,0.0,0.0,0.0,0.0,0.0,0.0,0.0,0.0,0.0,-1.1666,-1.2804,-1.3936,-1.4999,-1.6303,-1.6431,0.0,0.0,-1.3574,-1.2098,-1.1831,-1.1831,-1.2041,-1.4115,-1.6769,-1.9981,-2.274,-2.4206,-2.4413,-2.5019,-2.5308,-2.5303,-2.5206,-2.3386,-2.0332,-1.9231,-1.779,0.0,0.0,0.0,0.0,0.0,0.0,0.0,0.0,0.0,0.0,0.0,0.0,0.0,0.0,0.0,0.0,0.0,0.0,0.0,0.0,0.0,0.0,0.0,0.0,0.0,0.0,0.0,0.0,0.0,0.0,0.0,0.0,0.0,0.0,0.0,0.0,0.0,0.0,-2.0694,-2.3364,-2.4173,-2.569,-2.607,0.0,0.0,0.0,0.0,0.0,0.0,-3.15,-3.3955,-3.6029,-3.7587,-3.8608,-3.9776,-4.1111,-4.1332,-4.2029,-4.3222,-4.3222,-4.3222,-4.3222,-4.3222,-4.2736,-4.1886,-4.1886,-4.1724,-4.1102,-3.6738,-3.4447,-3.3528,-3.1864,-3.1063,-3.0942,-3.1689,-3.2511,-3.3424,0.0,0.0,0.0,0.0,0.0,0.0,0.0,0.0,0.0,0.0,0.0,-1.1685,-1.3375,0.0,-1.6862,-1.8495,-1.8782,-1.8477,0.0,0.0,-1.4728,-1.3802,-1.3041,-1.2986,-1.3764,-1.7045,-2.0012,-2.2605,-2.3605,-2.449,-2.525,-2.5288,-2.5308,-2.5308,-2.5284,-2.5093,-2.4664,-2.297,-2.1271,-1.9513,0.0,0.0,0.0,0.0,0.0,0.0,0.0,0.0,0.0,0.0,0.0,0.0,0.0,0.0,0.0,0.0,0.0,0.0,0.0,0.0,0.0,0.0,0.0,0.0,0.0,0.0,0.0,0.0,0.0,0.0,0.0,0.0,0.0,0.0,0.0,0.0,0.0,0.0,0.0,-2.7645,-2.9171,0.0,0.0,0.0,0.0,-2.9018,-3.1947,-3.4166,-3.4997,-3.7332,-3.9376,-4.0909,-4.2476,-4.3675,-4.4452,-4.5223,-4.5645,-4.5718,-4.5718,-4.5718,-4.5718,-4.5718,-4.57,-4.5627,-4.5627,-4.5608,-4.5242,-4.0491,-3.8097,-3.7327,-3.6486,-3.5716,-3.5178,-3.5914,-3.6183,-3.6291,0.0,0.0,0.0,-0.986,-0.9922,-0.9959,-0.9956,-0.9958,-0.9964,-0.999,-1.1211,-1.2709,0.0,-1.6683,-1.8747,-2.0429,-2.1119,-2.0851,-1.9468,0.0,-1.6733,-1.6411,-1.5606,-1.6309,-1.8794,-2.0554,-2.2412,-2.4404,-2.5274,-2.614,-2.6967,-2.6967,-2.6967,-2.6967,-2.6967,-2.6946,-2.676,-2.4488,-2.2838,-2.1512,-1.8938,-1.665,0.0,0.0,0.0,0.0,0.0,0.0,0.0,0.0,0.0,0.0,0.0,0.0,0.0,0.0,0.0,0.0,0.0,0.0,0.0,0.0,0.0,0.0,0.0,0.0,0.0,0.0,0.0,0.0,0.0,0.0,0.0,0.0,0.0,0.0,0.0,0.0,0.0,-2.9448,-3.1928,0.0,-3.2098,-3.3414,-3.4437,-3.4697,-3.634,-3.8118,-3.997,-4.1408,-4.2894,-4.4426,-4.5038,-4.5448,-4.5657,-4.5952,-4.6357,-4.6873,-4.6873,-4.6837,-4.6801,-4.6801,-4.647,-4.5902,-4.5902,-4.5902,-4.5773,-4.4054,-4.2759,-4.1647,-4.0071,-3.9297,-3.9047,-3.8777,-3.9175,-3.9824,-0.9691,-0.9746,0.0,-0.989,-0.9952,-1.0006,-0.9996,-0.9996,-1.0118,-1.0402,-1.1932,-1.3767,-1.575,-1.8301,-2.0531,-2.2229,-2.265,-2.233,-2.1259,0.0,-1.8236,-1.8242,-1.7953,-1.9255,-2.2381,-2.3242,-2.4504,-2.6174,-2.676,-2.7332,-2.7895,-2.7895,-2.7895,-2.7895,-2.7895,-2.7895,-2.7799,-2.6106,-2.4678,-2.3405,-2.1392,-1.9334,-1.7282,0.0,0.0,0.0,0.0,0.0,0.0,0.0,0.0,0.0,0.0,0.0,0.0,0.0,0.0,0.0,0.0,0.0,0.0,0.0,0.0,0.0,0.0,0.0,0.0,0.0,0.0,0.0,0.0,0.0,0.0,0.0,0.0,0.0,0.0,0.0,-3.1187,-3.2013,-3.4766,-3.6279,-3.5515,-3.6885,-3.8169,-3.9027,-4.0121,-4.1586,-4.3478,-4.4379,-4.5424,-4.6694,-4.6731,-4.6845,-4.6999,-4.6999,-4.7276,-4.7793,-4.7793,-4.7775,-4.7684,-4.7684,-4.7335,-4.6709,-4.6709,-4.6709,-4.6709,-4.6709,-4.6249,-4.5326,-4.3462,-4.2714,-4.2641,-4.2136,-4.243,-4.3032,-0.9695,-0.9752,-0.9832,-0.9889,-0.9951,-0.9998,-0.9996,-0.9996,-1.0302,-1.1195,-1.2776,-1.4839,-1.7465,-2.0004,-2.2229,-2.3949,-2.3294,-2.282,-2.2863,-2.049,-1.9124,-1.9182,-2.0008,-2.1629,-2.4137,-2.5003,-2.6265,-2.7942,-2.795,-2.7953,-2.7992,-2.7992,-2.7992,-2.7992,-2.7992,-2.7992,-2.7992,-2.7992,-2.6986,-2.5341,-2.4335,-2.2494,-2.0099,0.0,0.0,0.0,0.0,0.0,0.0,0.0,0.0,0.0,0.0,0.0,0.0,0.0,0.0,0.0,0.0,0.0,0.0,0.0,0.0,0.0,0.0,0.0,0.0,0.0,0.0,0.0,0.0,0.0,0.0,0.0,0.0,0.0,-2.8332,-3.1793,-3.4643,-3.5535,-3.7764,-3.8915,-3.8154,-3.9565,-4.0899,-4.1683,-4.3206,-4.4451,-4.5324,-4.6104,-4.6888,-4.7619,-4.7637,-4.7955,-4.8605,-4.8605,-4.8605,-4.8605,-4.8605,-4.8569,-4.8513,-4.8513,-4.8438,-4.8306,-4.8306,-4.8306,-4.8306,-4.8306,-4.8306,-4.8141,-4.6562,-4.5938,-4.592,-4.5902,-4.5902,-4.5792,-0.9757,-0.9834,-0.9896,-0.9957,-1.0022,-1.0051,-1.0001,-0.9996,-1.0302,-1.1195,-1.3318,-1.5744,-1.8358,-2.0924,-2.2896,-2.3993,-2.3357,-2.2605,-2.2006,-2.0167,-1.9658,-2.094,-2.2913,-2.4621,-2.5953,-2.6221,-2.7166,-2.8837,-2.8851,-2.9138,-2.9712,-2.9712,-2.9712,-2.9712,-2.9712,-2.9712,-2.9712,-2.9712,-2.9063,-2.7871,-2.5749,-2.4101,-2.2695,0.0,0.0,0.0,0.0,0.0,0.0,0.0,0.0,0.0,0.0,0.0,0.0,0.0,0.0,0.0,0.0,0.0,0.0,0.0,0.0,0.0,0.0,0.0,0.0,0.0,0.0,0.0,0.0,0.0,0.0,0.0,-3.1593,-3.3461,-3.3461,-3.5429,-3.7429,-3.8878,-4.0661,-4.1924,-4.2296,-4.3299,-4.4283,-4.5082,-4.5565,-4.6178,-4.6995,-4.7256,-4.7722,-4.8521,-4.854,-4.8634,-4.882,-4.882,-4.882,-4.882,-4.882,-4.8786,-4.8715,-4.8624,-4.8532,-4.8438,-4.8343,-4.8306,-4.8306,-4.8306,-4.8306,-4.8214,-4.7168,-4.6764,-4.6691,-4.6122,-4.5902,-4.5865,-0.9788,-0.9847,-0.9922,-0.9989,-1.0065,-1.0082,-1.0003,-1.0012,-1.0476,-1.1681,-1.3779,-1.6131,-1.8712,-2.0966,-2.2658,-2.351,-2.3161,-2.2546,-2.17,-2.0727,-2.095,-2.2671,-2.4474,-2.6013,-2.7215,-2.7571,-2.8391,-2.9745,-2.9712,-2.994,-3.0404,-3.0404,-3.0404,-3.0404,-3.0404,-3.0404,-3.0404,-3.0404,-3.0115,-2.9486,-2.764,-2.6364,-2.5386,-2.3652,-2.2354,-2.1315,-2.0123,-1.9335,-1.8796,-1.8359,0.0,0.0,0.0,0.0,0.0,0.0,0.0,0.0,0.0,0.0,0.0,0.0,0.0,0.0,0.0,0.0,0.0,0.0,0.0,0.0,0.0,0.0,0.0,0.0,-3.5002,-3.6996,-3.8372,-3.9064,-3.9937,-4.1237,-4.2853,-4.4023,-4.4506,-4.5305,-4.6141,-4.694,-4.6995,-4.7348,-4.8166,-4.8203,-4.8426,-4.889,-4.8909,-4.8909,-4.8909,-4.8909,-4.8909,-4.8909,-4.8909,-4.8856,-4.8787,-4.8715,-4.8642,-4.8532,-4.8458,-4.8401,-4.8418,-4.8749,-4.8656,-4.8251,0.0,0.0,0.0,0.0,-4.6691,-4.6416,-0.9796,-0.9857,-0.9927,-0.9989,-1.0053,-1.0084,-1.0029,-1.0055,-1.0697,-1.2388,0.0,-1.6022,-1.8588,-2.0315,-2.1664,-2.2535,-2.2709,-2.2495,0.0,-2.194,-2.2691,-2.4273,-2.5163,-2.642,-2.8107,-2.8854,-2.9621,-3.0504,-3.0444,-3.041,-3.0404,-3.0404,-3.0404,-3.0404,-3.05,-3.0558,-3.0558,-3.0558,-3.0558,-3.0462,-2.9602,-2.8761,-2.7846,-2.6146,-2.5499,-2.5181,-2.268,-2.1718,-2.1488,-2.0646,0.0,0.0,0.0,0.0,0.0,0.0,0.0,0.0,0.0,0.0,0.0,0.0,0.0,0.0,0.0,0.0,0.0,0.0,0.0,0.0,0.0,0.0,0.0,0.0,-3.7801,-3.9491,-4.25,-4.2407,-4.2277,-4.3002,-4.4395,-4.5361,-4.5547,-4.6215,-4.6977,-4.7776,-4.785,-4.8147,-4.8872,0.0,0.0,0.0,0.0,-4.8909,-4.8909,-4.8909,-4.8909,-4.8909,-4.8909,-4.8874,-4.8804,-4.8804,-4.8732,-4.8605,-4.8605,-4.855,-4.8568,-4.9268,-4.9118,-4.8434,-4.8343,-4.8306,-4.8306,-4.8306,-4.7846,-4.7241,-0.9847,-0.9884,-0.9938,-1.0065,-1.009,-1.0092,-1.0084,-1.009,-1.0729,-1.2457,-1.3533,-1.5112,-1.7661,-1.8875,-1.9859,-2.0738,-2.1454,-2.207,0.0,0.0,-2.4176,-2.5201,-2.6029,-2.7286,-2.9016,-2.9201,-2.9675,-3.0504,-3.0493,-3.0455,-3.0404,-3.0404,-3.0404,-3.0423,-3.1135,-3.1448,-3.1448,-3.1448,-3.1448,-3.1371,-3.05,0.0,-2.8761,-2.7758,-2.7388,-2.7199,-2.5878,-2.5373,-2.5203,-2.4239,-2.2925,-2.1694,-2.1694,0.0,0.0,0.0,0.0,0.0,0.0,0.0,0.0,0.0,0.0,0.0,0.0,0.0,0.0,0.0,0.0,0.0,0.0,0.0,0.0,-3.8265,-4.0438,-4.2296,-4.3596,-4.4228,-4.4636,-4.4804,-4.5101,-4.5807,-4.7107,-4.7386,-4.7794,-4.8612,-4.8667,-4.8742,-4.889,-4.8909,-4.8909,-4.8909,-4.8909,-4.8909,-4.8909,-4.8909,-4.8909,-4.8909,-4.8909,0.0,-4.8874,-4.8822,-4.8787,-4.8769,-4.8642,-4.855,-4.8513,-4.8678,-4.899,-4.928,-4.8563,-4.8306,-4.8306,-4.8306,-4.8214,-4.8086,-0.9882,-0.9893,-0.9941,-1.0076,-1.0094,-1.0094,-1.0094,-1.0094,-1.0577,-1.1872,-1.3135,-1.4555,-1.6253,-1.7629,-1.8574,-1.9005,-2.0244,0.0,0.0,-2.3712,-2.4579,-2.5418,-2.6663,-2.7742,-2.8574,-2.9443,-3.0075,-3.0458,-3.0442,-3.0439,-3.0404,-3.0404,-3.0635,-3.1077,-3.1506,-3.1929,-3.2295,-3.2295,0.0,0.0,0.0,0.0,-2.966,-2.8819,-2.8492,-2.8385,-2.7484,-2.6826,-2.632,-2.5812,-2.4784,-2.3695,-2.3695,-2.286,-2.1688,0.0,0.0,0.0,0.0,0.0,0.0,0.0,0.0,0.0,0.0,0.0,0.0,0.0,0.0,-3.2295,-3.3949,0.0,-3.8562,-4.0624,-4.2333,-4.3689,-4.4525,-4.5361,-4.5751,-4.5342,-4.6011,-4.6828,-4.7627,-4.8054,-4.8481,-4.8872,-4.8909,-4.8909,-4.8909,-4.8909,-4.8909,-4.8909,-4.8909,-4.8909,-4.8909,-4.8909,-4.8909,-4.8909,-4.8909,-4.8909,-4.8909,-4.8856,-4.8839,-4.8857,-4.8767,-4.8715,-4.8642,-4.855,-4.9173,-5.0105,-4.9279,-4.8948,-4.8893,-4.8471,-4.8306,-4.8306,-0.9882,-0.9893,-0.9941,-1.0076,-1.0094,-1.0094,-1.0094,-1.0094,-1.0404,-1.1293,-1.2577,-1.3747,-1.4615,-1.5972,-1.7011,0.0,0.0,0.0,0.0,-2.3856,-2.4795,-2.5614,-2.7157,-2.8038,-2.8174,-2.9694,-3.0469,-3.0398,-3.0408,-3.041,-3.0404,-3.0404,-3.0865,-3.1718,-3.1852,0.0,0.0,0.0,0.0,0.0,0.0,0.0,-3.0327,-2.9621,-2.9357,-2.9242,-2.8261,-2.7374,-2.6636,-2.6305,-2.5646,-2.4981,-2.4981,-2.4537,-2.3845,-2.3021,-2.2204,0.0,0.0,0.0,0.0,0.0,0.0,0.0,0.0,0.0,-3.0047,-3.1886,-3.393,-3.6017,-3.8024,-3.9305,-4.0698,-4.2705,-4.3856,-4.4729,-4.5435,-4.6234,-4.6494,-4.5844,-4.6903,-4.7757,-4.7924,-4.8519,-4.8909,-4.8909,-4.8909,-4.8909,-4.8909,-4.8909,-4.8909,-4.8909,-4.8909,-4.8909,-4.8909,-4.8909,-4.8909,-4.8909,-4.8909,-4.8909,-4.8909,-4.8909,-4.8909,-4.8909,-4.8891,-4.8839,-4.8751,-4.8735,-4.954,-5.0747,-5.0106,-4.9941,-4.9941,-4.893,-4.8545,-4.8526,-0.9882,-0.9893,-0.9941,-1.0076,-1.0094,-1.0094,-1.0094,-1.0094,-1.0404,-1.1293,-1.156,-1.2005,-1.2873,-1.3147,-1.4175,0.0,0.0,0.0,0.0,-2.4377,-2.5655,-2.6522,-2.7431,-2.83,-2.9125,-3.0032,-3.0469,-3.0398,-3.0392,-3.0394,-3.0404,-3.0404,0.0,0.0,0.0,0.0,0.0,0.0,0.0,0.0,0.0,0.0,-3.0385,-3.0288,-3.025,-3.0058,-2.8467,-2.7827,-2.7509,-2.5946,-2.536,-2.5253,-2.5253,-2.5196,-2.4936,-2.402,0.0,-2.3692,-2.4283,-2.564,-2.7253,-2.8791,-2.9146,-3.0462,0.0,0.0,-3.5343,-3.7671,-3.8971,-3.9802,-4.0081,-4.1943,-4.354,-4.3819,-4.5194,-4.6252,-4.6345,-4.7051,-4.7534,-4.7441,-4.759,-4.798,-4.8704,-4.8853,-4.8909,-4.8909,-4.8909,-4.8909,-4.8909,-4.8909,-4.8909,-4.8909,-4.8909,-4.8909,-4.8909,-4.8909,-4.8909,-4.8909,-4.8909,-4.8909,-4.8909,-4.8909,-4.8909,-4.8909,-4.884,-4.8732,-4.8679,-4.9287,-5.0056,-5.0802,-5.071,-5.1096,-5.1557,-5.0033,-4.9463,-4.9353,-0.9882,-0.9893,-0.9938,-1.0085,-1.0109,-1.0094,-1.0094,-1.0094,-1.0231,-1.0596,-1.1098,-1.1543,-1.1891,-1.2842,-1.3894,-1.4945,-1.8648,-2.1045,-2.1378,-2.3918,-2.5554,-2.5927,-2.72,-2.8082,-2.8482,-2.9778,-3.0442,-3.0402,-3.0402,-3.0396,0.0,0.0,0.0,0.0,0.0,0.0,0.0,0.0,0.0,0.0,0.0,0.0,-3.0346,-2.9833,-2.964,-2.9544,-2.8857,-2.7972,0.0,0.0,-2.5712,-2.5308,-2.5308,-2.5308,-2.5221,-2.4826,-2.5349,0.0,-2.8707,0.0,0.0,0.0,-3.3928,-3.4945,-3.7832,-3.8129,-3.8358,-4.0184,-4.1219,-4.1943,-4.2407,-4.3726,-4.4748,0.0,-4.6122,-4.72,-4.72,-4.7497,-4.7701,-4.7701,-4.7701,-4.8017,-4.8816,-4.8909,-4.8909,-4.8909,-4.8909,-4.8909,-4.8909,-4.8909,-4.8909,-4.8909,-4.8909,-4.8909,-4.8909,-4.8909,-4.8909,-4.8909,-4.8909,-4.8909,-4.8909,-4.8909,-4.8909,-4.8909,-4.8874,-4.8804,-4.8733,-4.8956,-4.949,-5.0202,-5.062,-5.1279,-5.1848,-5.071,-4.9994,-4.9555,-0.9875,-0.9909,-0.9936,-1.0074,-1.0103,-1.0094,-1.0094,-1.0094,-1.0094,-1.0094,-1.0654,-1.1041,-1.1041,-1.2594,-1.3643,-1.3631,-1.7541,-2.0108,-2.028,-2.3284,-2.5155,-2.5398,-2.6771,0.0,-2.7881,-2.9303,-3.0163,-3.0404,0.0,0.0,0.0,0.0,0.0,0.0,0.0,0.0,0.0,0.0,0.0,0.0,0.0,0.0,-2.9967,-2.9338,-2.8819,-2.8415,-2.8415,-2.7621,0.0,0.0,-2.564,-2.5269,-2.5038,-2.5115,-2.5385,-2.5885,-2.7311,-2.9181,-3.1291,0.0,0.0,-3.6315,-3.7677,-3.8784,-3.9817,-4.0306,-4.0878,-4.2212,-4.2824,-4.333,-4.3998,-4.4755,-4.5361,-4.5584,-4.6791,-4.7776,-4.7999,-4.785,-4.7701,-4.7701,-4.7701,-4.7924,-4.8519,-4.8779,-4.8909,-4.8909,-4.8909,-4.8909,-4.8909,-4.8909,-4.8909,-4.8909,-4.9355,-4.9596,-4.9596,-5.0042,-5.0246,-5.0246,-5.0246,-5.0246,-5.0246,-4.98,-4.9336,-4.8909,-4.8909,-4.8856,-4.8787,-4.8697,-4.9086,-4.9803,-5.0591,-5.134,-5.1981,-5.1614,-5.0969,-5.0198,-0.9879,-0.99,-0.9952,-1.0082,-1.0099,-1.0094,-1.0094,-1.0094,-1.0094,-1.0094,-1.0113,-1.0133,-1.0133,-1.1697,-1.2741,-1.2741,-1.6609,-1.9396,-2.0235,-2.2705,-2.4528,-2.536,-2.6198,-2.7035,-2.7888,-2.8714,-2.9544,0.0,0.0,0.0,0.0,0.0,0.0,0.0,0.0,0.0,0.0,0.0,0.0,0.0,0.0,0.0,-2.9146,-2.9107,-2.8082,-2.6678,-2.6678,0.0,0.0,0.0,-2.4678,-2.5154,-2.4375,-2.4678,0.0,-2.7332,-2.9602,0.0,0.0,0.0,-3.6808,-3.7712,-3.9632,-4.1714,-4.3366,-4.3405,-4.3388,-4.448,-4.4323,-4.4042,-4.4346,-4.489,-4.5565,-4.6345,-4.7163,-4.798,-4.876,-4.8184,-4.7701,-4.7701,-4.7701,-4.7701,0.0,-4.8444,-4.8909,-4.8909,-4.8909,-4.8909,-4.8909,-4.8909,-4.8909,-4.8909,-5.0488,-5.1323,-5.1323,-5.2865,-5.3664,-5.3664,-5.3664,-5.3664,-5.3608,-5.2048,-5.0432,-4.8909,-4.8909,-4.8856,-4.8787,-4.8787,-4.9177,-4.9879,-5.0747,-5.1501,-5.2193,-5.2948,-5.2665,-5.1683,-0.981,-0.9866,-0.9938,-1.0029,-1.0067,-1.0103,-1.0103,-1.0109,-1.0094,-1.0094,-1.0053,0.0,0.0,0.0,0.0,0.0,-1.554,-1.7947,-1.9357,-2.1813,-2.3627,-2.4509,-2.5856,-2.6736,-2.7035,-2.7876,-2.8453,0.0,0.0,0.0,0.0,0.0,0.0,0.0,0.0,0.0,0.0,0.0,0.0,0.0,0.0,0.0,-2.8973,-2.7852,-2.6736,-2.5673,0.0,0.0,0.0,0.0,0.0,0.0,-2.4812,0.0,0.0,-2.8712,0.0,0.0,0.0,0.0,-3.9565,-4.1027,-4.2371,-4.3578,-4.4544,-4.4644,-4.4585,-4.4756,-4.4197,-4.3704,-4.3794,-4.4303,-4.4965,-4.5772,-4.6903,-4.798,-4.8797,-4.8203,-4.7701,-4.7701,-4.7701,0.0,0.0,0.0,0.0,-4.8909,-4.8909,-4.8909,-4.8909,-4.941,-4.9968,-5.0543,-5.1621,-5.2457,-5.2995,-5.3534,-5.3813,-5.3813,-5.3813,-5.3813,-5.3775,-5.2698,-5.1899,-5.1286,-5.019,-4.969,-4.9617,-4.9045,-4.8935,-4.9214,-4.9954,-5.0377,-5.0671,-5.1422,-5.1511,-5.1195,-0.979,-0.9847,-0.9929,-0.9982,-1.0068,0.0,0.0,0.0,0.0,0.0,0.0,0.0,0.0,0.0,0.0,0.0,0.0,-1.6718,-1.8414,-2.0369,-2.1967,-2.3124,-2.3928,-2.4774,-2.5697,-2.5952,-2.6529,0.0,0.0,0.0,0.0,0.0,0.0,0.0,0.0,0.0,0.0,0.0,0.0,0.0,0.0,0.0,-2.7621,-2.6544,-2.5423,0.0,0.0,0.0,0.0,0.0,0.0,0.0,0.0,0.0,0.0,0.0,0.0,-3.4892,0.0,-3.9703,-4.1416,-4.3113,-4.4143,-4.4867,-4.5256,-4.5033,-4.4626,-4.4266,-4.335,-4.2533,-4.231,-4.2467,-4.3206,-4.5011,-4.6012,-4.7154,-4.8835,-4.8369,-4.7814,-4.7718,-4.7701,-4.7701,0.0,0.0,0.0,-4.8909,-4.8909,-4.9169,-4.9763,-5.0283,-5.1082,-5.2215,-5.3348,-5.4166,-5.4686,-5.5261,-5.5559,-5.5559,-5.5559,-5.5261,-5.4686,-5.4166,-5.3441,-5.2549,-5.1472,-5.0841,-5.0488,-4.9654,-4.9303,-4.934,-4.975,-4.9899,-4.9954,-5.0728,-5.0964,-5.0885,-0.9787,-0.9844,-0.9926,0.0,0.0,0.0,0.0,0.0,0.0,0.0,0.0,0.0,0.0,0.0,0.0,0.0,0.0,0.0,-1.7519,0.0,0.0,-2.1293,-2.0712,-2.1485,-2.3918,-2.3201,-2.3985,0.0,0.0,0.0,0.0,0.0,0.0,0.0,0.0,0.0,0.0,0.0,0.0,0.0,0.0,0.0,-2.5231,-2.5192,0.0,0.0,0.0,0.0,0.0,0.0,0.0,0.0,0.0,0.0,0.0,0.0,0.0,-3.7358,-3.9047,-4.0761,-4.2468,-4.3987,-4.4998,-4.5594,-4.5537,-4.4652,-4.3694,-4.309,-4.1847,-4.0656,0.0,0.0,-4.056,-4.4045,-4.4597,-4.5716,-4.8915,-4.8652,-4.8056,0.0,0.0,0.0,0.0,0.0,0.0,-4.9039,0.0,-4.9745,-5.1361,-5.1546,-5.2308,-5.3887,-5.5522,-5.6376,-5.6413,-5.7955,-5.8716,-5.8716,-5.8716,-5.7899,-5.6413,-5.6376,-5.5076,-5.2847,-5.2717,-5.2234,-5.1454,-5.0618,-5.0228,-5.019,-5.0135,-5.0045,-5.0028,-5.0806,-5.0951,-5.0794,0.0,0.0,0.0,0.0,0.0,0.0,0.0,0.0,0.0,0.0,0.0,0.0,0.0,0.0,0.0,0.0,0.0,0.0,0.0,0.0,0.0,0.0,0.0,0.0,-2.2158,-2.2586,0.0,0.0,0.0,0.0,0.0,0.0,0.0,0.0,0.0,0.0,0.0,0.0,0.0,0.0,0.0,0.0,-2.4336,0.0,0.0,0.0,0.0,0.0,0.0,0.0,0.0,0.0,0.0,0.0,-3.3827,0.0,0.0,-4.0012,-4.175,-4.3451,-4.4826,-4.5241,-4.5466,-4.5441,-4.4778,-4.3936,-4.2892,-4.1462,-3.9871,-3.8337,-3.6938,0.0,0.0,-4.1647,-4.4201,0.0,-4.8747,-4.8841,0.0,0.0,0.0,-4.9503,-4.9503,-5.0265,0.0,0.0,-5.0766,-5.1212,-5.2234,-5.3441,-5.4574,-5.5633,-5.6655,-5.749,-5.8085,-5.8512,-5.8716,-5.8716,-5.8716,-5.8494,-5.8085,-5.7472,-5.6859,-5.6153,-5.4314,-5.3385,-5.3088,-5.1676,-5.0711,-5.0135,-5.0153,-4.9764,-4.919,-4.9342,-4.9325,-4.9251,0.0,0.0,0.0,0.0,0.0,0.0,0.0,0.0,0.0,0.0,0.0,0.0,0.0,0.0,0.0,0.0,0.0,0.0,0.0,0.0,0.0,0.0,0.0,0.0,0.0,0.0,0.0,0.0,0.0,0.0,0.0,0.0,0.0,0.0,0.0,0.0,0.0,0.0,0.0,0.0,0.0,0.0,0.0,0.0,0.0,0.0,0.0,0.0,0.0,0.0,0.0,-3.1173,-3.2288,-3.4122,-3.6213,-3.7989,0.0,-4.2039,-4.34,-4.4751,-4.575,-4.5709,-4.5376,-4.4746,-4.3498,-4.2277,-4.0719,-3.8245,-3.668,0.0,-3.3577,0.0,0.0,0.0,0.0,0.0,-4.8247,-4.8977,-4.9335,0.0,-4.9837,0.0,-5.0636,-5.1119,-5.1546,0.0,-5.1602,-5.1918,-5.307,-5.4333,-5.5577,-5.6785,-5.7621,-5.8252,-5.8716,-5.8716,-5.8716,-5.8716,-5.8716,-5.8716,-5.8679,-5.8234,-5.7843,-5.7416,-5.6042,-5.502,-5.424,-5.2977,-5.1955,-5.1138,-5.0432,-4.9856,-4.9374,-4.8986,-4.8732,-4.8661,0.0,0.0,0.0,0.0,0.0,0.0,0.0,0.0,0.0,0.0,0.0,0.0,0.0,0.0,0.0,0.0,0.0,0.0,0.0,0.0,0.0,0.0,0.0,0.0,0.0,0.0,0.0,0.0,0.0,0.0,0.0,0.0,0.0,0.0,0.0,0.0,0.0,0.0,0.0,0.0,0.0,0.0,0.0,0.0,0.0,0.0,0.0,0.0,0.0,0.0,-3.1365,-3.2795,-3.5231,-3.7161,-3.8849,-4.067,-4.2235,-4.3554,-4.4433,-4.522,-4.5758,-4.5698,-4.5038,-4.3904,-4.2055,-4.0239,-3.7995,-3.4571,0.0,-3.1872,-3.0192,-3.189,-3.4633,-3.7956,0.0,-4.4719,-4.7676,-4.8956,-4.972,-5.0126,-5.0227,-5.0618,-5.1472,-5.1658,-5.2011,-5.2717,-5.2104,-5.2364,-5.3887,-5.4834,-5.606,-5.7621,-5.8345,-5.8716,-5.8716,-5.8716,-5.8716,-5.8716,-5.8716,-5.8716,-5.8716,-5.8716,-5.8326,-5.7658,-5.7435,-5.6525,-5.5113,-5.4184,-5.333,-5.2438,-5.0878,-5.0209,-5.0005,-4.9206,-4.8785,-4.8642,0.0,0.0,0.0,0.0,0.0,0.0,0.0,0.0,0.0,0.0,-1.0683,0.0,0.0,0.0,0.0,0.0,0.0,0.0,0.0,0.0,0.0,0.0,0.0,0.0,0.0,0.0,0.0,0.0,0.0,0.0,0.0,0.0,0.0,0.0,0.0,0.0,0.0,0.0,0.0,0.0,0.0,0.0,0.0,0.0,0.0,0.0,0.0,0.0,0.0,0.0,-3.3423,-3.6154,-3.8046,-3.9796,-4.1505,-4.3312,-4.4048,-4.4461,-4.5329,-4.5642,-4.5708,-4.569,-4.4994,-4.3698,-4.1266,-3.8873,0.0,0.0,0.0,-2.9261,-2.7563,-3.0818,0.0,-3.6125,0.0,0.0,0.0,0.0,-4.8923,0.0,0.0,0.0,0.0,0.0,0.0,0.0,-5.346,-5.3813,-5.4741,-5.6246,-5.7509,-5.8475,-5.8642,-5.8716,-5.8716,-5.8716,-5.8716,-5.8716,-5.8716,-5.8716,-5.8716,-5.8716,-5.8624,-5.8419,-5.71,0.0,-5.5967,-5.4426,-5.333,-5.2512,-5.1546,-5.0729,-5.0005,-4.9206,-4.8839,-4.8769,0.0,0.0,0.0,0.0,0.0,0.0,0.0,0.0,0.0,0.0,-1.2903,-1.2294,0.0,0.0,0.0,0.0,0.0,0.0,0.0,0.0,0.0,0.0,0.0,0.0,0.0,0.0,0.0,0.0,0.0,0.0,0.0,0.0,0.0,0.0,0.0,0.0,0.0,0.0,0.0,0.0,0.0,0.0,0.0,0.0,0.0,0.0,0.0,0.0,0.0,0.0,-3.2295,-3.5334,-3.8823,-4.0796,-4.2159,-4.3968,-4.4492,-4.47,-4.5571,-4.5788,-4.575,-4.5703,-4.4372,-4.2271,-3.9207,0.0,0.0,0.0,0.0,-2.7409,-2.6154,0.0,0.0,0.0,0.0,0.0,0.0,0.0,0.0,0.0,0.0,0.0,0.0,0.0,0.0,0.0,-5.3813,-5.4166,-5.4964,-5.6599,-5.7881,-5.8679,-5.8716,-5.8716,-5.8716,-5.8716,-5.8716,-5.8716,-5.8716,-5.8716,-5.8716,-5.8716,-5.8475,-5.8029,-5.7268,-5.6432,-5.5559,-5.476,-5.3961,-5.3107,-5.1881,-5.1138,-5.0618,-4.9355,-4.8856,-4.8787,0.0,0.0,0.0,0.0,0.0,0.0,0.0,-1.2224,-1.3058,-1.4799,-1.5196,-1.5047,-1.4368,-1.3474,-1.3107,0.0,0.0,0.0,0.0,0.0,0.0,0.0,0.0,0.0,0.0,0.0,0.0,0.0,0.0,0.0,0.0,0.0,0.0,0.0,0.0,0.0,0.0,0.0,0.0,0.0,0.0,0.0,0.0,0.0,0.0,0.0,0.0,0.0,0.0,0.0,-3.03,-3.2852,-3.7226,-3.9835,-4.162,-4.3428,-4.4203,-4.47,-4.5551,-4.5776,-4.5765,-4.5692,-4.3763,-4.097,-3.7488,-3.4603,0.0,0.0,0.0,-2.6115,-2.5423,0.0,0.0,0.0,0.0,0.0,0.0,0.0,0.0,0.0,0.0,0.0,0.0,0.0,0.0,0.0,-5.4128,-5.4611,-5.5243,-5.6692,-5.7881,-5.8679,-5.8716,-5.8716,-5.8716,-5.8716,-5.8716,-5.8716,-5.8716,-5.8716,-5.8716,-5.8716,-5.8271,-5.749,-5.7323,-5.6395,-5.5001,-5.4816,-5.437,-5.3645,-5.2029,-5.1398,-5.1193,-4.9522,-4.8856,-4.8822,0.0,0.0,0.0,0.0,0.0,0.0,0.0,-1.229,-1.3795,-1.5486,-1.6449,-1.6952,-1.687,-1.5545,-1.4383,0.0,0.0,0.0,0.0,0.0,0.0,0.0,0.0,0.0,0.0,0.0,0.0,0.0,0.0,0.0,0.0,0.0,0.0,0.0,0.0,0.0,0.0,0.0,0.0,0.0,0.0,0.0,0.0,0.0,0.0,0.0,0.0,0.0,0.0,0.0,0.0,-2.9819,-3.1852,-3.5738,-3.9877,-4.1634,0.0,0.0,-4.5484,-4.5715,-4.5692,-4.5629,-4.369,-4.0912,-3.7481,0.0,0.0,0.0,-2.5962,-2.5404,-2.5308,-2.6836,0.0,0.0,0.0,0.0,0.0,0.0,0.0,0.0,0.0,0.0,0.0,0.0,0.0,0.0,-5.5206,-5.6097,-5.619,-5.7026,-5.7881,-5.8679,-5.8716,-5.8716,-5.8716,-5.8716,-5.8716,-5.8716,-5.8716,-5.8716,-5.8716,-5.8716,-5.8271,-5.7472,-5.6729,-5.5874,0.0,-5.4221,-5.3868,-5.3645,-5.2029,-5.1398,-5.1193,-4.9522,-4.8891,-4.8891,0.0,0.0,0.0,0.0,0.0,0.0,0.0,-1.2491,-1.3721,-1.6886,-1.7219,-1.7335,-1.7869,-1.6988,-1.5822,0.0,0.0,0.0,0.0,0.0,0.0,0.0,0.0,0.0,0.0,0.0,0.0,0.0,0.0,0.0,0.0,0.0,0.0,0.0,0.0,0.0,0.0,0.0,0.0,0.0,0.0,0.0,0.0,0.0,0.0,0.0,0.0,0.0,0.0,0.0,0.0,0.0,-2.8409,-3.1064,0.0,0.0,-4.0853,-4.2616,-4.4476,-4.5337,-4.5692,-4.5673,-4.3322,-4.0123,-3.675,0.0,0.0,-2.6519,-2.5538,-2.5308,-2.5308,-2.6288,-2.7849,0.0,-3.184,-3.4664,0.0,0.0,0.0,0.0,0.0,0.0,0.0,0.0,0.0,0.0,-5.5633,-5.6506,-5.7008,-5.7788,-5.8382,-5.8698,-5.8716,-5.8716,-5.8716,-5.8716,-5.8716,-5.8716,-5.8716,-5.8456,-5.7992,-5.7992,-5.7249,-5.5986,-5.567,-5.5057,0.0,-5.3943,-5.3515,-5.2977,-5.1844,-5.1082,-5.0488,-4.9317,-4.8874,-4.8857,0.0,0.0,0.0,0.0,0.0,0.0,-1.2283,-1.2504,-1.3587,-1.6762,-1.6922,-1.7063,-1.7919,-1.7141,-1.6239,-1.5434,0.0,0.0,0.0,0.0,0.0,0.0,0.0,0.0,0.0,0.0,0.0,0.0,0.0,0.0,0.0,0.0,0.0,0.0,0.0,0.0,0.0,0.0,0.0,0.0,0.0,0.0,0.0,0.0,0.0,0.0,0.0,0.0,0.0,0.0,0.0,0.0,0.0,0.0,0.0,0.0,-3.8376,-4.0498,-4.3033,-4.4318,-4.4924,-4.4941,-4.2329,-3.8931,0.0,0.0,-2.9115,-2.5942,-2.5308,-2.5308,-2.5308,-2.5808,-2.6851,0.0,-3.0044,-3.2502,-3.7442,0.0,0.0,0.0,0.0,0.0,0.0,0.0,0.0,-5.5689,-5.632,-5.7008,-5.7806,-5.8401,-5.8716,-5.8716,-5.8716,-5.8716,-5.8716,-5.8716,-5.8716,-5.8716,-5.8475,-5.8048,-5.749,-5.7249,-5.6357,-5.5001,-5.5001,-5.4556,0.0,-5.3813,-5.333,-5.2512,-5.1714,-5.0878,-5.0005,-4.9206,-4.8874,-4.884,0.0,0.0,0.0,0.0,0.0,0.0,0.0,-1.2265,-1.3592,-1.4426,-1.5336,-1.6213,-1.7027,-1.5739,-1.5187,-1.6113,0.0,0.0,0.0,0.0,0.0,0.0,0.0,0.0,0.0,0.0,0.0,0.0,0.0,0.0,0.0,0.0,0.0,0.0,0.0,0.0,0.0,0.0,0.0,0.0,0.0,0.0,0.0,0.0,0.0,0.0,0.0,0.0,0.0,0.0,0.0,0.0,0.0,0.0,0.0,0.0,-3.6138,-3.8676,-4.1231,-4.2514,-4.3123,-4.3132,-4.0566,-3.7353,0.0,-3.157,-2.8396,-2.5827,-2.5308,-2.5308,-2.5308,-2.5308,-2.6135,-2.8684,-3.0564,-3.3651,-3.9279,0.0,0.0,0.0,0.0,0.0,0.0,0.0,0.0,-5.7416,-5.749,0.0,-5.8642,-5.8716,-5.8716,-5.8716,-5.8716,-5.8716,-5.8716,-5.8716,-5.8716,-5.8698,-5.7899,-5.7509,-5.7472,-5.6692,-5.5837,-5.5001,-5.5001,-5.4556,0.0,-5.3813,-5.333,-5.2512,-5.1714,-5.0878,-5.0005,-4.9206,-4.8909,-4.8909,0.0,0.0,0.0,0.0,0.0,0.0,0.0,-1.0865,-1.1517,-1.3422,-1.3464,-1.3821,-1.5182,-1.489,-1.4744,-1.5144,0.0,0.0,0.0,0.0,0.0,0.0,0.0,0.0,0.0,0.0,0.0,0.0,0.0,0.0,0.0,0.0,0.0,0.0,0.0,0.0,0.0,0.0,0.0,0.0,0.0,0.0,0.0,0.0,0.0,0.0,0.0,0.0,0.0,0.0,0.0,0.0,0.0,0.0,0.0,-2.9105,-3.2151,0.0,-3.6318,-3.7724,-3.8654,-3.8053,-3.6642,-3.4737,-3.2179,-3.0294,-2.8376,-2.5827,-2.5308,-2.5308,-2.5308,-2.5308,-2.6519,-3.0275,-3.1187,0.0,0.0,0.0,0.0,0.0,0.0,0.0,0.0,0.0,-5.6636,-5.7453,-5.7509,-5.7621,-5.7881,-5.7881,-5.8141,-5.8679,-5.8178,-5.7881,-5.7881,-5.7342,-5.7063,-5.7063,-5.6803,-5.6376,-5.5782,-5.554,-5.4964,-5.4184,-5.4184,-5.4054,-5.3813,-5.3813,-5.2995,-5.1751,-5.1491,-5.0525,-4.9262,-4.9002,-4.8803,-4.8695,0.0,0.0,0.0,0.0,0.0,0.0,0.0,-1.0278,-1.0686,-1.2191,-1.1966,-1.226,-1.3875,-1.3803,-1.3929,-1.4645,0.0,0.0,0.0,0.0,0.0,0.0,0.0,0.0,0.0,0.0,0.0,0.0,0.0,0.0,0.0,0.0,0.0,0.0,0.0,0.0,0.0,0.0,0.0,0.0,0.0,0.0,-1.9232,0.0,0.0,0.0,0.0,0.0,0.0,0.0,0.0,0.0,0.0,0.0,0.0,0.0,-2.8662,-3.0989,0.0,-3.4295,-3.5194,-3.4648,-3.3641,-3.2256,-3.0352,-2.9006,-2.7601,-2.5692,-2.5308,-2.5308,-2.5308,-2.5308,-2.6385,-2.9737,-3.0657,0.0,0.0,0.0,0.0,0.0,0.0,0.0,0.0,0.0,-5.6506,-5.7008,-5.7045,-5.7045,-5.7045,-5.7045,-5.7286,-5.7788,-5.7323,-5.7045,-5.7045,-5.6543,-5.6302,-5.6302,-5.5967,-5.554,-5.5001,-5.4704,-5.4277,-5.3813,-5.3813,-5.3813,0.0,-5.3813,-5.2847,-5.1398,-5.1398,-5.0376,-4.8909,-4.8874,-4.8786,-4.8697,0.0,0.0,0.0,0.0,0.0,0.0,0.0,0.0,0.0,0.0,-1.082,-1.1375,-1.2876,-1.2521,-1.2821,0.0,0.0,0.0,0.0,0.0,0.0,0.0,0.0,0.0,0.0,0.0,0.0,0.0,-2.0532,-2.1332,-2.2176,0.0,0.0,0.0,0.0,0.0,0.0,0.0,0.0,0.0,0.0,-1.9119,0.0,0.0,0.0,0.0,0.0,0.0,0.0,0.0,0.0,0.0,0.0,0.0,0.0,0.0,0.0,0.0,0.0,-3.1833,-3.2449,-3.2372,-3.1231,-2.9904,-2.903,-2.7659,0.0,-2.5481,-2.5308,-2.5365,-2.5538,-2.5481,-2.6077,-2.8179,-2.9821,0.0,0.0,0.0,0.0,0.0,0.0,0.0,0.0,-5.4928,-5.6302,-5.6302,-5.6302,-5.6265,-5.6209,-5.6209,-5.619,-5.6116,-5.6116,-5.6153,-5.6209,-5.6153,-5.6116,-5.6116,-5.5299,-5.4927,-5.489,-5.4147,-5.3813,0.0,-5.3813,-5.3813,-5.3813,-5.3738,-5.281,-5.1398,-5.1323,-5.032,-4.8891,-4.8822,-4.8787,-4.8769,0.0,0.0,0.0,0.0,0.0,0.0,0.0,0.0,0.0,0.0,-0.9988,-1.0139,-1.0506,-1.148,0.0,0.0,0.0,0.0,0.0,0.0,0.0,0.0,0.0,0.0,0.0,0.0,0.0,-2.0624,-2.141,-2.2492,-2.3822,-2.3239,0.0,0.0,0.0,0.0,0.0,0.0,0.0,0.0,-1.9516,-1.9479,0.0,0.0,0.0,0.0,-2.0419,-2.1119,0.0,0.0,0.0,0.0,0.0,0.0,0.0,0.0,-2.5442,-2.5788,-2.6596,0.0,-2.7928,-2.725,-2.7288,-2.725,0.0,-2.6404,-2.6346,-2.5481,0.0,-2.5904,-2.7852,-2.7159,-2.8115,-3.3718,-3.4783,0.0,0.0,0.0,0.0,0.0,0.0,0.0,0.0,-5.5715,-5.6302,-5.6302,-5.6302,-5.6004,-5.5354,-5.5317,-5.502,-5.4407,-5.4388,-5.4686,-5.5299,-5.4704,-5.4388,-5.4388,-5.4184,-5.4091,-5.4091,-5.3887,-5.3813,-5.3813,-5.3813,-5.3813,-5.3757,-5.3144,-5.2308,-5.1323,-5.0673,-4.98,-4.8891,-4.8822,-4.8732,-4.8642,0.0,0.0,0.0,0.0,0.0,0.0,0.0,0.0,0.0,0.0,0.0,0.0,0.0,0.0,0.0,0.0,0.0,0.0,0.0,0.0,0.0,0.0,0.0,0.0,0.0,0.0,0.0,0.0,0.0,-2.2925,0.0,0.0,0.0,0.0,0.0,0.0,0.0,0.0,0.0,0.0,-1.9441,0.0,0.0,0.0,0.0,0.0,-2.0208,-2.0827,0.0,-2.1966,-2.299,-2.411,0.0,0.0,0.0,0.0,-2.4447,-2.4755,-2.4755,-2.5947,-2.7082,-2.6621,-2.6851,-2.7063,-2.6601,0.0,0.0,0.0,0.0,-2.5846,-2.7621,-2.7832,0.0,-3.418,-3.5825,0.0,0.0,0.0,0.0,0.0,0.0,0.0,0.0,-5.4167,-5.4203,-5.4574,-5.4611,-5.424,-5.3385,-5.3701,-5.3534,-5.2717,-5.307,-5.3645,-5.4444,-5.4017,-5.3813,-5.3813,-5.3813,-5.3813,-5.3813,-5.3813,-5.3813,-5.3813,-5.3813,-5.359,-5.3218,-5.2791,-5.1918,-5.0803,-5.0302,-4.9615,-4.8891,-4.8768,-4.866,-4.8587,0.0,0.0,0.0,0.0,0.0,0.0,0.0,0.0,0.0,0.0,0.0,0.0,0.0,0.0,0.0,0.0,0.0,0.0,0.0,0.0,0.0,0.0,0.0,0.0,0.0,0.0,0.0,0.0,0.0,0.0,0.0,0.0,0.0,0.0,0.0,0.0,0.0,0.0,0.0,0.0,0.0,0.0,0.0,0.0,0.0,0.0,0.0,0.0,0.0,-2.2177,-2.3086,-2.3879,-2.3744,0.0,0.0,0.0,0.0,0.0,-2.4379,-2.6337,-2.8159,-2.7621,-2.7799,-2.803,-2.7761,0.0,0.0,0.0,0.0,0.0,0.0,0.0,0.0,0.0,0.0,0.0,0.0,0.0,0.0,0.0,0.0,0.0,-5.2667,-5.1966,-5.1676,-5.2364,-5.2419,-5.2122,-5.1435,-5.2048,-5.2104,-5.1416,-5.2067,-5.2735,-5.3441,-5.3571,-5.3627,-5.3627,-5.3627,-5.3683,-5.3813,-5.3813,-5.3813,-5.3794,-5.3683,-5.3237,-5.2587,-5.2327,-5.1416,-5.0172,-4.9986,-4.9503,-4.8891,-4.866,-4.8605,-4.8587,0.0,0.0,0.0,0.0,0.0,0.0,0.0,0.0,0.0,0.0,0.0,0.0,0.0,0.0,0.0,0.0,0.0,0.0,0.0,0.0,0.0,0.0,0.0,0.0,0.0,0.0,0.0,0.0,0.0,0.0,-2.3497,-2.4381,-2.3959,0.0,0.0,0.0,0.0,0.0,0.0,0.0,0.0,0.0,0.0,0.0,0.0,0.0,0.0,0.0,0.0,-2.0635,-2.1716,-2.2874,-2.212,0.0,0.0,0.0,0.0,0.0,-2.562,-2.8082,-2.9327,-2.6423,-2.7313,-2.8549,-2.7121,0.0,0.0,0.0,0.0,0.0,0.0,0.0,0.0,0.0,0.0,0.0,0.0,0.0,0.0,0.0,0.0,-5.0644,-5.1865,-5.1631,-5.1454,-5.1565,-5.1584,-5.1528,-5.1416,-5.1528,-5.1528,-5.1398,-5.1528,-5.1639,-5.1769,-5.2438,-5.2791,-5.2791,-5.2791,-5.3144,-5.3813,-5.3813,-5.3813,-5.3775,-5.3088,-5.2717,-5.2494,-5.1082,-5.0339,-5.006,-4.9355,-4.902,-4.8891,-4.866,-4.8605,-4.8569,0.0,0.0,0.0,0.0,0.0,0.0,0.0,0.0,0.0,0.0,0.0,0.0,0.0,0.0,0.0,0.0,0.0,0.0,0.0,0.0,0.0,0.0,0.0,0.0,0.0,0.0,0.0,0.0,0.0,-2.3352,-2.4212,-2.3885,-2.3335,-2.2604,0.0,0.0,0.0,0.0,0.0,-1.9642,0.0,0.0,0.0,0.0,0.0,0.0,0.0,0.0,0.0,0.0,-2.1773,-2.2643,-2.1773,0.0,0.0,0.0,0.0,0.0,-2.4101,-2.6409,-2.8192,-2.7525,-2.9987,-3.2237,-3.0987,0.0,0.0,0.0,0.0,0.0,0.0,0.0,0.0,0.0,0.0,0.0,0.0,0.0,0.0,0.0,0.0,-5.0167,-5.1251,-5.0574,-5.0228,-5.0655,-5.0711,-5.0506,-5.0079,-5.0469,-5.0506,-5.006,-5.0469,-5.0488,-5.006,-5.0859,-5.1491,-5.1955,-5.1955,-5.2159,-5.2512,-5.2512,-5.2512,-5.2475,-5.2104,-5.1676,-5.1193,-5.0432,-4.9837,-4.941,-4.9039,-4.8874,-4.8804,-4.8624,-4.855,-4.8532,0.0,0.0,0.0,0.0,0.0,0.0,0.0,0.0,0.0,0.0,0.0,0.0,0.0,0.0,0.0,0.0,0.0,0.0,0.0,0.0,0.0,0.0,0.0,0.0,0.0,0.0,0.0,-2.3455,-2.3531,-2.4068,-2.5036,-2.3716,-2.2982,0.0,0.0,0.0,0.0,0.0,0.0,-1.9744,0.0,0.0,0.0,0.0,0.0,0.0,0.0,0.0,0.0,0.0,0.0,0.0,0.0,0.0,0.0,-2.1254,-2.1177,-2.1812,-2.3293,-2.5101,-2.7044,-2.8929,-3.1718,-3.4083,-3.443,0.0,0.0,0.0,0.0,0.0,0.0,0.0,0.0,0.0,0.0,0.0,0.0,0.0,-5.0624,-5.2653,-5.1099,-5.0253,-5.122,-5.0204,-4.9745,-5.0358,-5.0395,-5.0135,-4.9522,-5.0079,-5.0116,-4.9503,-5.0079,-5.0116,-4.9485,-4.9893,-5.045,-5.1101,-5.1101,-5.1193,-5.1398,-5.1398,-5.1398,-5.1398,-5.1175,-5.0729,-5.0098,-4.9912,-4.9466,-4.8909,-4.8909,-4.8856,-4.8769,-4.8587,-4.8532,-4.8513,0.0,0.0,0.0,0.0,0.0,0.0,0.0,0.0,0.0,0.0,0.0,0.0,0.0,0.0,0.0,0.0,0.0,0.0,0.0,0.0,0.0,0.0,0.0,0.0,0.0,-2.1005,-2.1573,-2.3314,-2.3632,-2.4296,-2.5249,-2.4404,-2.3506,-2.2569,0.0,0.0,0.0,0.0,0.0,-1.9896,-1.9896,0.0,0.0,0.0,0.0,0.0,0.0,0.0,0.0,0.0,0.0,0.0,0.0,0.0,-2.2778,-2.2663,-2.2081,-2.2216,-2.5447,-2.6467,-2.7198,-2.9692,-2.9929,0.0,-3.45,-3.4122,0.0,-3.6988,0.0,0.0,0.0,0.0,0.0,0.0,0.0,0.0,0.0,0.0,-5.0927,-5.3171,-5.2146,-5.1509,-5.2134,-5.1609,-5.1249,-5.1305,-5.1305,-5.1286,-5.1212,-5.1268,-5.1286,-5.1212,-5.1286,-5.1286,-5.1212,-5.0488,-5.0135,-5.019,-5.019,-5.0618,-5.1398,-5.1398,-5.1398,-5.1361,-5.0543,-5.0172,-5.0042,-4.9299,-4.8946,-4.8909,-4.8909,-4.8856,-4.8787,-4.8642,-4.8587,-4.855,0.0,0.0,0.0,0.0,0.0,0.0,0.0,0.0,0.0,0.0,0.0,0.0,0.0,0.0,0.0,0.0,0.0,0.0,0.0,0.0,0.0,0.0,0.0,-1.9306,-2.1253,-2.2084,-2.3169,-2.4543,-2.467,-2.4922,-2.5264,-2.3837,0.0,0.0,0.0,0.0,0.0,0.0,0.0,0.0,-2.0245,-2.0074,0.0,0.0,0.0,0.0,0.0,0.0,0.0,0.0,-2.1446,-2.2177,-2.1466,-2.2336,-2.3394,-2.2312,-2.1754,-2.2023,-2.4394,-2.5813,-2.7351,-3.0442,-3.1333,0.0,0.0,-3.6969,-3.8296,-4.0681,-4.1162,0.0,0.0,0.0,0.0,0.0,0.0,0.0,0.0,-5.0081,-5.0187,-5.2479,-5.1457,-5.1045,-5.2205,-5.174,-5.1398,-5.1398,-5.1398,-5.1398,-5.1398,-5.1398,-5.1398,-5.1398,-5.1398,-5.1398,-5.1398,-5.1063,-5.0915,-5.0896,-5.0358,-5.0562,-5.1398,-5.1398,-5.1101,-5.058,-5.0246,-4.9819,-4.9336,-4.9039,-4.8909,-4.8891,-4.8839,-4.8822,-4.8769,-4.8587,-4.8532,-4.8513,0.0,0.0,0.0,0.0,0.0,0.0,0.0,0.0,0.0,0.0,0.0,0.0,0.0,0.0,0.0,0.0,0.0,0.0,0.0,0.0,0.0,0.0,0.0,-1.8892,-2.065,-2.2386,-2.3797,-2.4828,-2.5148,-2.5173,-2.4885,0.0,0.0,0.0,0.0,0.0,0.0,0.0,0.0,0.0,-2.0407,-2.0216,0.0,0.0,0.0,0.0,0.0,0.0,0.0,0.0,-2.1273,-2.1908,-2.1273,-2.2297,-2.3451,-2.2254,-2.2293,-2.2966,-2.4139,-2.5524,-2.7351,-3.05,0.0,0.0,-3.6873,-3.8873,-4.092,-4.372,-4.4297,0.0,0.0,0.0,0.0,0.0,0.0,0.0,-5.0298,-4.9789,-5.0019,-5.2058,-5.1232,-5.097,-5.2186,-5.174,-5.1398,-5.1398,-5.1398,-5.1398,-5.1398,-5.1398,-5.1398,-5.1398,-5.1398,-5.1398,-5.1398,-5.1138,-5.1138,-5.1398,-5.0525,-5.0562,-5.1398,-5.1398,-5.0933,-5.0135,-5.0116,-4.9652,-4.8909,-4.8909,-4.8909,-4.8891,-4.8839,-4.884,-4.8822,-4.8642,-4.8569,-4.8532,0.0,0.0,0.0,0.0,0.0,0.0,0.0,0.0,0.0,0.0,0.0,0.0,0.0,0.0,0.0,0.0,0.0,0.0,0.0,0.0,0.0,0.0,0.0,-1.8208,-1.9931,-2.1817,-2.3127,-2.3799,-2.4797,-2.4889,-2.4091,-2.4091,0.0,0.0,0.0,0.0,0.0,0.0,0.0,0.0,-2.0308,-2.0308,-2.0308,0.0,0.0,0.0,0.0,0.0,0.0,0.0,-2.0962,-2.0596,-2.2254,0.0,0.0,-2.2797,-2.3985,-2.5308,-2.5308,-2.5962,-2.7255,0.0,0.0,0.0,-3.8553,-3.9342,-4.0777,-4.5846,0.0,-4.6904,-4.6904,0.0,0.0,-4.7264,-4.7983,-4.8904,-5.0035,-5.0135,-5.0635,-5.2101,-5.1738,-5.1624,-5.2247,-5.174,-5.1398,-5.1398,-5.1398,-5.1398,-5.1398,-5.1398,-5.1398,-5.1398,-5.1398,-5.1398,-5.1398,-5.0543,-5.0562,-5.1398,-5.0525,-5.0562,-5.1398,-5.1398,-5.0952,-5.019,-5.0135,-4.9652,-4.8909,-4.8909,-4.8909,-4.8909,-4.8909,-4.8909,-4.8891,-4.8822,-4.8715,-4.8587,0.0,0.0,0.0,0.0,0.0,0.0,0.0,0.0,0.0,0.0,0.0,0.0,0.0,0.0,0.0,0.0,0.0,0.0,0.0,0.0,0.0,0.0,0.0,0.0,0.0,0.0,-2.2587,-2.4,-2.4303,-2.4028,0.0,0.0,0.0,-2.185,0.0,0.0,0.0,0.0,0.0,0.0,0.0,-2.0308,-2.0308,0.0,0.0,0.0,0.0,0.0,0.0,0.0,0.0,0.0,-2.1062,0.0,-2.4327,-2.3139,-2.3985,-2.5423,-2.6058,-2.7712,0.0,0.0,0.0,0.0,0.0,0.0,0.0,0.0,0.0,0.0,-4.7456,0.0,0.0,-4.8067,-4.8337,-4.8678,-4.9216,-4.928,-4.973,-5.0967,-5.0727,-5.0886,-5.1927,-5.1643,-5.1398,-5.1398,-5.1398,-5.1398,-5.1398,-5.1398,-5.1398,-5.1398,-5.1398,-5.1398,-5.1398,-5.1138,-5.1138,-5.1398,-5.1138,-5.1156,-5.1398,-5.1398,-5.0933,-5.0135,-5.0116,-4.9652,-4.8909,-4.8909,-4.8909,-4.8909,-4.8909,-4.8909,-4.8891,-4.8822,-4.8769,-4.8715,0.0,0.0,0.0,0.0,0.0,0.0,0.0,0.0,0.0,0.0,0.0,-1.0007,0.0,0.0,0.0,0.0,0.0,0.0,0.0,0.0,0.0,0.0,0.0,0.0,0.0,-2.0246,-2.1696,0.0,0.0,0.0,0.0,0.0,0.0,-2.2062,0.0,-2.305,0.0,0.0,0.0,0.0,0.0,-2.0769,-2.0769,0.0,0.0,0.0,0.0,0.0,0.0,0.0,0.0,0.0,-2.0442,0.0,0.0,-2.2985,-2.4235,-2.6154,-2.7692,0.0,0.0,0.0,0.0,0.0,0.0,0.0,0.0,0.0,0.0,0.0,0.0,-4.8294,0.0,-4.8465,-4.8696,-4.8867,-4.8885,-4.8909,-4.9195,-5.0022,-4.982,-4.9958,-5.0826,-5.0603,-5.0413,-5.0413,-5.0413,-5.0413,-5.0413,-5.0413,-5.0413,-5.0413,-5.0413,-5.0413,-5.0413,-5.0413,-5.0413,-5.0413,-5.0413,-5.0413,-5.0432,-5.1101,-5.0915,-5.0079,-4.9763,-4.9355,-4.8909,-4.8909,-4.8909,-4.8909,-4.8909,-4.8909,-4.8891,-4.8839,-4.8786,-4.8715,0.0,0.0,-0.9702,-0.9702,0.0,0.0,0.0,0.0,0.0,0.0,0.0,-0.997,0.0,0.0,0.0,-1.3135,0.0,0.0,0.0,0.0,0.0,0.0,0.0,0.0,0.0,0.0,0.0,0.0,0.0,0.0,0.0,0.0,-2.3567,-2.2874,0.0,-2.4255,0.0,0.0,0.0,0.0,-2.1389,-2.1389,-2.1389,-2.1288,0.0,0.0,0.0,0.0,0.0,0.0,0.0,0.0,-2.0308,-2.0904,-2.1773,-2.2566,-2.4601,-2.7159,-2.9712,0.0,0.0,0.0,0.0,0.0,0.0,0.0,0.0,0.0,0.0,0.0,0.0,-4.9143,-4.8917,-4.8634,-4.9035,-4.9289,-4.896,-4.8909,-4.901,-4.9321,-4.9094,-4.901,-4.9318,-4.9077,-4.8909,-4.8909,-4.8909,-4.8909,-4.8909,-4.8909,-4.8909,-4.8909,-4.8909,-4.8909,-4.8909,-4.8909,-4.8909,-4.8909,-4.8909,-4.8909,-4.8946,-5.0488,-5.0748,-4.9949,-4.9224,-4.8909,-4.8909,-4.8909,-4.8909,-4.8909,-4.8909,-4.8909,-4.8909,-4.8909,-4.8785,-4.8623,0.0,0.0,-0.9702,-0.9702,0.0,0.0,0.0,0.0,-0.9702,-0.9702,-0.9702,-0.9772,-0.9933,-1.1296,0.0,-1.2499,-1.39,0.0,0.0,0.0,0.0,0.0,0.0,0.0,0.0,0.0,0.0,0.0,0.0,0.0,0.0,0.0,0.0,-2.2855,0.0,-2.3394,0.0,0.0,0.0,-2.0558,-2.0558,-2.0558,-2.0481,-1.9804,-1.9846,0.0,0.0,0.0,0.0,0.0,0.0,0.0,-2.0308,-2.1312,-2.2566,-2.274,-2.4601,-2.7159,0.0,-3.2122,0.0,0.0,0.0,0.0,0.0,0.0,0.0,0.0,0.0,0.0,0.0,-4.8848,-4.9047,-4.9181,-4.9314,-4.9289,-4.896,-4.8909,-4.8926,-4.8993,-4.8942,-4.8943,-4.8993,-4.8925,-4.8909,-4.8909,-4.8909,-4.8909,-4.8909,-4.8909,-4.8909,-4.8909,-4.8909,-4.8909,-4.8909,-4.8909,-4.8909,-4.8909,-4.8909,-4.8909,-4.8909,-4.928,-4.9336,-4.915,-4.8983,-4.8909,-4.8909,-4.8909,-4.8909,-4.8909,-4.8909,-4.8909,-4.8909,-4.8909,-4.8855,-4.882,0.0,0.0,0.0,0.0,0.0,0.0,0.0,0.0,-0.9695,-0.9695,-0.9703,-0.9714,-0.9739,-1.0867,0.0,0.0,-1.3557,-1.4517,0.0,0.0,0.0,0.0,0.0,0.0,0.0,0.0,0.0,0.0,0.0,0.0,0.0,0.0,0.0,-2.3432,0.0,-2.3355,0.0,0.0,0.0,-2.0865,-2.0865,-2.0635,-2.025,-1.9808,-1.9385,-1.9042,-1.9011,0.0,0.0,0.0,0.0,0.0,0.0,0.0,-2.1754,-2.2566,-2.4048,-2.6236,0.0,0.0,0.0,0.0,0.0,0.0,0.0,0.0,0.0,0.0,0.0,0.0,0.0,-4.8154,-4.8314,-4.872,-4.8674,-4.8663,-4.887,-4.8909,-4.8909,-4.8909,-4.8909,-4.8909,-4.8909,-4.8909,-4.8909,-4.8909,-4.8909,-4.8909,-4.8909,-4.8909,-4.8909,-4.8909,-4.8909,-4.8909,-4.8909,-4.8909,-4.8909,-4.8909,-4.8909,-4.8909,-4.8909,-4.8909,-4.8909,-4.8909,-4.8909,-4.8909,-4.8909,-4.8909,-4.8909,-4.8909,-4.8909,-4.8909,-4.8909,-4.8909,-4.8874,-4.8857,0.0,0.0,0.0,0.0,0.0,0.0,0.0,0.0,0.0,-0.9891,-0.9932,-0.9957,-1.0001,-1.0769,-1.158,0.0,0.0,0.0,-1.4978,0.0,0.0,0.0,0.0,0.0,0.0,0.0,0.0,0.0,0.0,0.0,0.0,0.0,0.0,-2.4298,0.0,0.0,0.0,0.0,-2.1216,-2.1062,-2.0908,-2.0446,-1.9846,-1.9692,-1.8831,-1.7776,-1.8357,-1.8742,-1.9107,-1.9831,0.0,0.0,0.0,0.0,-2.0596,-2.212,-2.3297,-2.5087,0.0,0.0,0.0,0.0,0.0,0.0,0.0,0.0,0.0,0.0,0.0,0.0,0.0,-4.7224,-4.724,-4.7733,-4.7639,-4.7738,-4.8389,-4.85,-4.85,-4.85,-4.8612,-4.8686,-4.8686,-4.8816,-4.8909,-4.8909,-4.8909,-4.8909,-4.8909,-4.8909,-4.8909,-4.8909,-4.8909,-4.8909,-4.8909,-4.8909,-4.8909,-4.8909,-4.8909,-4.8909,-4.8909,-4.8909,-4.8909,-4.8909,-4.8909,-4.8909,-4.8909,-4.8909,-4.8909,-4.8909,-4.8909,-4.8909,-4.8909,-4.8909,-4.8856,-4.8822,0.0,0.0,0.0,0.0,0.0,0.0,0.0,0.0,0.0,0.0,-1.0845,-1.0892,-1.0845,-1.1714,-1.2367,-1.2566,-1.3381,-1.4257,0.0,0.0,0.0,0.0,0.0,0.0,0.0,0.0,0.0,0.0,0.0,0.0,0.0,0.0,0.0,-2.5115,0.0,0.0,0.0,0.0,0.0,-1.9261,-1.8507,-1.8142,-1.7968,-1.7273,-1.7295,-1.7622,-1.7045,-1.7779,-1.9011,-1.9126,-1.9681,0.0,0.0,0.0,0.0,-2.1408,-2.2836,-2.4567,0.0,0.0,0.0,0.0,0.0,0.0,0.0,0.0,0.0,0.0,0.0,0.0,0.0,-4.6203,-4.6291,-4.6637,-4.6675,-4.6698,-4.681,-4.6828,-4.6828,-4.6828,-4.7441,-4.7868,-4.7868,-4.85,-4.8909,-4.8909,-4.8909,-4.8909,-4.8909,-4.8909,-4.8909,-4.8909,-4.8909,-4.8909,-4.8909,-4.8909,-4.8909,-4.8909,-4.8909,-4.8909,-4.8909,-4.8909,-4.8909,-4.8909,-4.8909,-4.8909,-4.8909,-4.8909,-4.8909,-4.8909,-4.8909,-4.8909,-4.8909,-4.8909,-4.8891,-4.8874,0.0,0.0,0.0,0.0,0.0,0.0,0.0,0.0,0.0,0.0,0.0,-1.1355,-1.1844,-1.2256,-1.2724,-1.3284,-1.3687,0.0,0.0,0.0,0.0,0.0,0.0,0.0,0.0,0.0,0.0,0.0,0.0,0.0,0.0,-2.3875,-2.4913,0.0,0.0,0.0,0.0,0.0,0.0,-1.9642,-1.8776,-1.8988,-1.9581,0.0,-1.76,-1.8927,-1.7138,0.0,-1.8357,-1.8838,-1.9584,-2.0308,-2.0308,0.0,0.0,0.0,0.0,0.0,0.0,0.0,0.0,0.0,0.0,0.0,0.0,0.0,0.0,0.0,0.0,0.0,0.0,0.0,-4.5442,-4.577,-4.5825,-4.5992,-4.6438,-4.6494,-4.6494,-4.6494,-4.681,-4.7033,-4.7033,-4.7348,-4.7553,-4.7553,-4.7553,-4.7553,-4.7553,-4.7553,-4.7553,-4.7553,-4.7553,-4.7553,-4.7553,-4.7553,-4.7776,-4.824,-4.824,-4.8463,-4.8909,-4.8909,-4.8909,-4.8909,-4.8909,-4.8909,-4.8909,-4.8909,-4.8909,-4.8909,-4.8909,-4.8909,-4.8909,-4.8909,-4.8909,-4.8891,0.0,0.0,0.0,0.0,0.0,0.0,0.0,0.0,0.0,0.0,0.0,-1.1897,-1.2803,0.0,0.0,0.0,-1.3898,0.0,0.0,0.0,0.0,0.0,0.0,0.0,0.0,0.0,0.0,0.0,0.0,0.0,-2.4413,-2.4625,-2.6529,0.0,-2.7986,0.0,0.0,0.0,0.0,-2.0558,-1.9892,-2.0373,-2.1293,-1.9446,-1.9923,-2.1231,0.0,0.0,0.0,0.0,0.0,0.0,0.0,0.0,0.0,0.0,0.0,0.0,0.0,0.0,0.0,0.0,0.0,0.0,0.0,0.0,0.0,0.0,0.0,0.0,0.0,0.0,-4.4864,-4.5039,-4.5015,-4.5175,-4.5769,-4.5862,-4.5862,-4.5862,-4.6067,-4.6197,-4.6197,-4.6382,-4.6494,-4.6494,-4.6494,-4.6494,-4.6494,-4.6494,-4.6494,-4.6494,-4.6494,-4.6494,-4.6494,-4.6494,-4.6791,-4.7404,-4.7404,-4.7813,-4.8612,-4.8612,-4.8723,-4.8909,-4.8909,-4.8909,-4.8909,-4.8909,-4.8909,-4.8909,-4.8909,-4.8909,-4.8909,-4.8909,-4.8909,-4.8909,0.0,0.0,0.0,0.0,0.0,0.0,0.0,0.0,0.0,0.0,0.0,-1.2844,-1.365,-1.3782,-1.3857,-1.3898,-1.3898,0.0,0.0,0.0,0.0,0.0,0.0,0.0,0.0,0.0,0.0,0.0,0.0,0.0,-2.5269,-2.6077,-2.8294,-3.1487,-2.9761,-2.7184,-2.411,0.0,0.0,-2.1427,-2.1389,-2.1427,-2.1735,-2.3981,-2.4923,-2.4712,0.0,0.0,0.0,0.0,0.0,0.0,0.0,0.0,0.0,0.0,0.0,0.0,0.0,0.0,0.0,0.0,0.0,0.0,0.0,0.0,0.0,0.0,0.0,0.0,0.0,0.0,0.0,-4.4486,-4.4222,-4.4079,-4.4116,-4.4135,-4.4135,-4.4135,-4.4859,-4.5361,-4.5361,-4.6048,-4.6494,-4.6494,-4.6494,-4.6494,-4.6494,-4.6494,-4.6494,-4.6494,-4.6494,-4.6494,-4.6494,-4.6494,-4.6513,-4.655,-4.655,-4.6977,-4.7757,-4.7757,-4.8184,-4.8909,-4.8909,-4.8909,-4.8909,-4.8909,-4.8909,-4.8909,-4.8909,-4.8909,-4.8909,-4.8909,-4.8909,-4.8909,0.0,0.0,0.0,0.0,0.0,0.0,0.0,0.0,0.0,0.0,0.0,0.0,0.0,-1.4716,-1.4728,-1.4728,-1.4728,0.0,0.0,0.0,0.0,0.0,0.0,0.0,0.0,0.0,0.0,0.0,0.0,-1.8427,-2.2885,-2.3755,-2.5106,-2.6895,-2.8415,-2.8434,-2.7145,-2.4683,0.0,0.0,-2.3163,-2.4452,0.0,-2.5577,-2.7327,-2.964,0.0,0.0,0.0,0.0,0.0,0.0,0.0,-2.0254,-1.9658,-1.8799,0.0,0.0,0.0,0.0,0.0,0.0,0.0,0.0,0.0,0.0,0.0,0.0,0.0,0.0,0.0,0.0,0.0,0.0,-4.4064,-4.4005,-4.4005,-4.4005,-4.4005,-4.4005,-4.4283,-4.4469,-4.4469,-4.4729,-4.4896,-4.4896,-4.4896,-4.4896,-4.4896,-4.4896,-4.4896,-4.4896,-4.4896,-4.4896,-4.4896,-4.4896,-4.5175,-4.5732,-4.5732,-4.6141,-4.6921,-4.6921,-4.7088,-4.7367,-4.7367,-4.7943,-4.8909,-4.8909,-4.8909,-4.8909,-4.8909,-4.8909,-4.8909,-4.8909,-4.8909,-4.8909,0.0,0.0,0.0,-1.2506,0.0,-1.1683,-1.1604,-1.1692,-1.2063,0.0,0.0,0.0,0.0,0.0,-1.5192,-1.5192,0.0,0.0,0.0,0.0,0.0,0.0,0.0,0.0,0.0,0.0,0.0,0.0,0.0,0.0,0.0,-2.1831,-2.299,-2.4187,-2.6125,-2.7299,0.0,0.0,0.0,-2.501,0.0,0.0,-2.9544,0.0,-3.1481,0.0,0.0,0.0,0.0,0.0,0.0,0.0,0.0,-2.0773,-1.9369,-1.9088,0.0,0.0,0.0,0.0,0.0,0.0,0.0,0.0,0.0,0.0,0.0,0.0,0.0,0.0,0.0,0.0,0.0,0.0,0.0,-4.4005,-4.4005,-4.4005,-4.4005,-4.4005,-4.4005,-4.4005,-4.4005,-4.4005,-4.4005,-4.4005,-4.4005,0.0,-4.4005,-4.4005,-4.4005,-4.4005,-4.4005,-4.4005,-4.4005,-4.4005,-4.4283,-4.4859,-4.4859,-4.5305,-4.6104,-4.6104,-4.6234,-4.6494,-4.6494,-4.7256,-4.85,-4.85,-4.8667,-4.8909,-4.8909,-4.8909,-4.8909,-4.8909,-4.8909,-4.8909,-1.2305,-1.2528,-1.2579,-1.2579,-1.2689,-1.2695,-1.2475,-1.2631,-1.3023,-1.3755,0.0,0.0,0.0,0.0,0.0,0.0,0.0,0.0,0.0,0.0,0.0,0.0,0.0,0.0,0.0,0.0,0.0,0.0,0.0,0.0,0.0,0.0,-2.2293,-2.3918,-2.3144,-2.3697,-2.5308,0.0,-2.7313,-2.6928,0.0,-3.0404,-3.1115,0.0,0.0,0.0,-3.5904,-3.4519,0.0,-3.0185,0.0,0.0,0.0,-2.0527,-1.7968,-1.8799,-1.9681,0.0,0.0,0.0,0.0,0.0,0.0,0.0,0.0,0.0,0.0,0.0,0.0,0.0,0.0,0.0,0.0,0.0,0.0,0.0,-4.4005,-4.4005,-4.4005,-4.4005,-4.4005,-4.4005,-4.4005,-4.4005,-4.4005,-4.4005,-4.4005,-4.4005,-4.4005,-4.4005,-4.4005,-4.4005,-4.4005,-4.4005,-4.4005,-4.4005,-4.4005,-4.4005,-4.4005,-4.4432,-4.5249,-4.5249,-4.5677,-4.642,-4.642,-4.6884,-4.7627,-4.7683,-4.8166,-4.8872,-4.889,-4.8909,-4.8909,-4.8909,-4.8909,-4.8909,-1.4058,-1.4292,-1.4379,-1.4379,-1.4459,-1.4277,-1.3582,-1.4074,-1.4571,0.0,0.0,0.0,0.0,0.0,0.0,0.0,0.0,0.0,0.0,0.0,0.0,0.0,0.0,0.0,0.0,0.0,0.0,0.0,0.0,0.0,0.0,0.0,0.0,0.0,-2.2085,-2.2716,-2.2577,-2.3062,0.0,0.0,-2.8115,-3.0596,0.0,0.0,0.0,0.0,0.0,-3.793,-3.7219,0.0,-3.2526,-2.9198,0.0,0.0,0.0,-2.0042,-2.0966,0.0,-2.162,0.0,0.0,0.0,0.0,0.0,0.0,0.0,0.0,0.0,0.0,0.0,0.0,0.0,0.0,0.0,0.0,0.0,-4.4005,-4.4005,-4.4005,-4.4005,-4.4005,-4.4005,-4.4005,-4.4005,-4.4005,0.0,-4.4005,-4.4005,-4.4005,-4.4005,-4.4005,-4.4005,-4.4005,-4.4005,-4.4005,-4.4005,-4.4005,-4.4005,-4.4005,-4.4135,-4.4358,-4.4358,-4.4488,-4.4692,-4.4692,-4.5175,-4.6048,-4.7218,-4.7831,-4.8091,-4.8667,-4.8909,-4.8909,-4.8909,-4.8909,-4.8909,-1.481,-1.5315,-1.5596,-1.5596,-1.6249,-1.6583,-1.6,-1.641,-1.6782,0.0,0.0,0.0,0.0,0.0,0.0,0.0,0.0,0.0,0.0,0.0,0.0,-1.5192,-1.5192,0.0,0.0,0.0,0.0,0.0,0.0,0.0,0.0,0.0,0.0,0.0,-1.9508,-2.0485,-2.0942,0.0,0.0,0.0,-2.8967,0.0,0.0,-3.693,-3.9219,0.0,0.0,0.0,-4.0181,-3.9181,-3.5892,0.0,0.0,-2.474,-2.3322,-2.1736,0.0,0.0,0.0,0.0,0.0,0.0,0.0,0.0,0.0,-2.8903,0.0,0.0,0.0,0.0,0.0,0.0,0.0,0.0,0.0,0.0,0.0,-4.4005,-4.4005,-4.4005,-4.4005,-4.4005,-4.4005,-4.4005,-4.4005,-4.4005,-4.4005,-4.4005,-4.4005,-4.4005,-4.4005,-4.4005,-4.4005,-4.4005,-4.4005,-4.4005,-4.4005,-4.4005,-4.4005,-4.4005,-4.4005,-4.4005,-4.4005,-4.4005,-4.4005,-4.4283,-4.4859,-4.616,-4.6903,-4.7274,-4.8091,-4.8407,-4.8444,-4.8779,-4.8909,-4.8909,0.0,-1.5879,-1.6368,-1.656,-1.8006,-1.9085,-1.8892,-1.9107,-1.9258,0.0,-1.8643,0.0,0.0,0.0,0.0,0.0,0.0,0.0,0.0,0.0,-1.5308,-1.5192,-1.5288,-1.5654,0.0,0.0,0.0,0.0,0.0,0.0,0.0,0.0,0.0,0.0,-1.6468,-1.7811,-1.9923,0.0,0.0,-2.5846,-3.0487,-3.3314,0.0,0.0,-4.175,-4.2277,-4.3778,-4.3393,-4.2181,-4.1904,-3.8161,0.0,0.0,-2.8063,-2.6907,-2.4113,-2.5034,0.0,0.0,0.0,0.0,0.0,0.0,0.0,-2.8472,-2.8619,-2.8668,0.0,0.0,0.0,0.0,0.0,0.0,0.0,0.0,0.0,0.0,0.0,-4.3763,-4.3856,-4.3875,-4.3893,-4.3986,-4.4005,-4.4005,-4.4005,-4.4005,-4.4005,-4.4005,-4.4005,-4.4005,-4.4005,-4.4005,-4.4005,-4.4005,-4.4005,-4.4005,-4.4005,-4.4005,-4.4005,-4.4005,-4.4005,-4.4005,-4.4005,-4.4005,-4.4005,-4.4061,-4.4841,-4.5621,-4.6438,-4.7256,-4.7627,-4.7794,-4.85,-4.8816,-4.8909,-1.6726,-1.6651,-1.6732,-1.8151,-1.9304,-2.0031,-1.9987,-2.0565,-2.1019,-2.0984,0.0,0.0,0.0,0.0,0.0,0.0,0.0,0.0,0.0,0.0,-1.5926,-1.5231,-1.5868,-1.6003,-1.5462,0.0,0.0,0.0,0.0,0.0,0.0,0.0,0.0,0.0,-1.6195,-1.7141,0.0,0.0,0.0,-2.6486,-2.8198,0.0,-3.8419,-3.9411,-4.145,-4.3855,-4.4182,-4.4528,-4.4547,-4.2489,-4.0123,-3.7457,0.0,0.0,0.0,-2.8606,0.0,-3.0006,-2.8077,-2.8067,-2.8199,-2.6594,0.0,0.0,-2.5314,-2.6078,-2.7435,0.0,0.0,0.0,0.0,0.0,0.0,0.0,0.0,0.0,0.0,0.0,0.0,-4.2965,-4.302,-4.328,-4.3949,-4.4005,-4.4005,-4.4005,-4.4005,-4.4005,-4.4005,-4.4005,-4.4005,-4.4005,-4.4005,-4.4005,-4.4005,-4.4005,-4.4005,-4.4005,-4.4005,-4.4005,-4.4005,-4.4005,-4.4005,-4.4005,-4.4005,-4.4005,-4.4005,-4.4191,-4.4766,-4.5602,-4.642,-4.7125,-4.772,-4.7887,-4.8333,-4.8909,-1.6823,-1.7355,-1.8056,-1.9376,-2.0672,-2.1696,-2.2124,-2.2547,-2.2947,0.0,0.0,0.0,0.0,0.0,0.0,0.0,0.0,0.0,0.0,0.0,-1.6715,-1.5888,-1.5849,-1.6042,-1.6445,-1.6445,0.0,0.0,0.0,0.0,0.0,0.0,0.0,0.0,0.0,0.0,0.0,0.0,-2.387,-2.6909,-3.0314,0.0,-3.9477,-4.117,-4.3104,-4.496,-4.496,-4.5229,-4.5133,-4.2162,-4.0585,0.0,0.0,-3.5411,-3.539,0.0,-3.1871,-3.2632,0.0,0.0,-2.9486,-2.8969,0.0,0.0,0.0,-2.5794,-2.614,-2.7345,0.0,0.0,0.0,0.0,0.0,0.0,0.0,0.0,0.0,0.0,0.0,0.0,-4.185,-4.1924,-4.2723,-4.2797,-4.2965,-4.3373,-4.3763,-4.4005,-4.4005,-4.4005,-4.4005,-4.4005,-4.4005,-4.4005,-4.4005,-4.4005,-4.4005,-4.4005,-4.4005,-4.4005,-4.4005,-4.4005,-4.4005,-4.4005,-4.4005,-4.4005,-4.4005,-4.4005,-4.4265,-4.4729,-4.5565,-4.6141,-4.655,-4.694,-4.7608,-4.8296,-1.693,-1.8065,-1.9315,-2.0346,-2.1793,-2.3086,-2.3975,-2.4221,-2.4625,0.0,0.0,0.0,0.0,0.0,0.0,0.0,0.0,0.0,0.0,0.0,0.0,-1.7253,-1.6404,-1.6481,-1.7661,-1.6542,0.0,0.0,0.0,0.0,0.0,0.0,0.0,0.0,0.0,0.0,0.0,0.0,0.0,-2.8275,0.0,-3.6776,-3.8726,-4.2412,-4.4259,-4.494,-4.5421,-4.5594,-4.5133,-4.2035,-4.0973,-4.0399,-3.7224,-3.7213,0.0,0.0,0.0,0.0,0.0,0.0,0.0,0.0,0.0,-2.8356,0.0,0.0,0.0,-2.7334,0.0,0.0,0.0,0.0,0.0,0.0,0.0,0.0,0.0,0.0,0.0,0.0,-3.9881,-4.0062,-4.1033,-4.0977,-4.1349,-4.2482,-4.2872,-4.3262,-4.3745,-4.3912,-4.4005,-4.4005,-4.4005,-4.4005,-4.4005,-4.4005,-4.4005,-4.4005,-4.4005,-4.4005,-4.4005,-4.4005,-4.4005,-4.4005,-4.4005,-4.4005,-4.4005,-4.4005,-4.4005,-4.4079,-4.4766,-4.5138,-4.5379,-4.603,-4.6773,-4.746,-1.8414,-1.8869,-1.95,-2.1096,-2.2158,-2.3086,-2.3975,-2.4716,-2.5462,0.0,0.0,0.0,0.0,0.0,0.0,0.0,0.0,0.0,-2.589,0.0,0.0,-1.9865,-1.9035,-1.8308,-1.7718,-1.828,-1.7564,0.0,0.0,0.0,0.0,0.0,-1.6891,-1.7911,-1.9369,0.0,0.0,0.0,-2.7692,0.0,-3.5385,-3.5853,0.0,-4.0219,-4.2162,-4.2527,-4.4786,-4.5594,-4.5306,0.0,-4.2693,-4.2105,0.0,-3.9246,-3.9304,0.0,0.0,0.0,0.0,0.0,0.0,0.0,-3.2648,0.0,0.0,0.0,-2.831,-2.6377,0.0,0.0,0.0,0.0,0.0,0.0,0.0,0.0,0.0,0.0,0.0,0.0,-3.6259,-3.7708,-3.9231,-3.8729,-3.9268,-4.1553,-4.0438,-4.0624,-4.2816,-4.3615,-4.4005,-4.4005,-4.4005,-4.4005,-4.4005,-4.4005,-4.4005,-4.4005,-4.4005,-4.4005,-4.4005,-4.4005,-4.4005,-4.4005,-4.4005,-4.4005,-4.4005,-4.4005,-4.4005,-4.4005,-4.4116,-4.4618,-4.5305,-4.5398,-4.5955,-4.6643,-1.8203,-1.8654,-1.9535,-2.1212,-2.1793,-2.2509,-2.3898,-2.6467,-2.8038,0.0,0.0,0.0,0.0,0.0,0.0,0.0,0.0,-2.8929,0.0,0.0,0.0,-2.1058,-2.0192,-1.9577,-1.9215,-1.8584,-1.7718,0.0,-1.6042,0.0,0.0,0.0,-1.7715,-1.9985,-2.1739,0.0,-2.7217,0.0,-2.9025,0.0,0.0,0.0,0.0,-4.1316,-4.3989,-4.4143,-4.5229,-4.5594,-4.5267,0.0,-4.2215,0.0,0.0,0.0,0.0,0.0,0.0,0.0,0.0,0.0,0.0,0.0,0.0,0.0,-2.7613,0.0,-2.6656,0.0,0.0,0.0,0.0,0.0,0.0,0.0,0.0,0.0,0.0,0.0,0.0,0.0,0.0,0.0,-3.6055,-3.6408,-3.7331,-3.9287,-3.8804,-3.9491,-4.1962,-4.2872,-4.3522,-4.3986,-4.4005,-4.4005,-4.4005,-4.4005,-4.4005,-4.4005,-4.4005,-4.4005,-4.4005,-4.4005,-4.4005,-4.4005,-4.4005,-4.4005,-4.4005,-4.4005,-4.4005,-4.4005,-4.4005,-4.4228,-4.4544,-4.4544,-4.5082,-4.5788,-1.8449,0.0,0.0,0.0,-2.1543,-2.2601,-2.4817,-2.7736,-2.9525,0.0,0.0,0.0,-3.393,-3.4141,0.0,0.0,-3.4314,-3.2295,0.0,0.0,-2.5385,-2.4,-2.2038,0.0,0.0,-1.9523,0.0,-1.8061,-1.6599,0.0,0.0,0.0,-1.8738,-2.16,0.0,-2.6736,-3.0058,0.0,0.0,-3.2962,-3.4391,-3.5545,-3.6969,-4.247,-4.4998,-4.5594,-4.5594,-4.5594,-4.5248,-4.2931,-4.2023,0.0,-4.1726,0.0,0.0,0.0,0.0,0.0,-3.8138,0.0,0.0,0.0,0.0,0.0,0.0,0.0,0.0,0.0,0.0,0.0,0.0,0.0,0.0,0.0,0.0,0.0,0.0,0.0,0.0,0.0,0.0,0.0,0.0,-3.3373,-3.4339,-3.6389,-3.6147,-3.7262,-4.042,-4.1571,-4.2612,-4.3633,-4.3893,-4.4005,-4.4005,-4.4005,-4.4005,-4.4005,-4.4005,-4.4005,-4.4005,-4.4005,-4.4005,-4.4005,-4.4005,-4.4005,-4.4005,-4.4005,-4.4005,-4.4005,-4.4005,-4.4005,-4.4005,-4.4005,-4.4395,-4.4934,-1.9885,-2.0231,0.0,0.0,0.0,-2.3894,-2.726,-2.7895,-2.8852,0.0,0.0,0.0,0.0,0.0,0.0,0.0,0.0,-3.65,-3.6423,0.0,-2.8506,-3.0058,-2.5351,-2.3485,0.0,0.0,-1.9808,-1.8958,-1.8061,-1.8045,0.0,0.0,0.0,0.0,0.0,-2.7505,-2.9357,-3.2647,-3.5956,-3.9092,-3.9919,-4.2247,-4.496,0.0,-4.3451,-4.5594,-4.5594,0.0,0.0,-4.3624,-4.2925,-4.2594,-4.1686,0.0,0.0,0.0,0.0,0.0,0.0,0.0,0.0,-3.3484,0.0,0.0,0.0,0.0,-2.975,0.0,0.0,0.0,0.0,0.0,0.0,0.0,0.0,0.0,0.0,0.0,0.0,0.0,0.0,0.0,0.0,-2.9266,-2.9675,0.0,-3.1719,-3.2946,-3.7764,-3.9565,-4.12,-4.2797,-4.3596,-4.4005,-4.4005,-4.4005,-4.4005,-4.4005,-4.4005,-4.4005,-4.4005,-4.4005,-4.4005,-4.4005,-4.4005,-4.4005,-4.4005,-4.4005,-4.4005,-4.4005,-4.4005,-4.4005,-4.4005,-4.4005,-4.4023,-4.4042,0.0,0.0,0.0,0.0,0.0,-2.3081,-2.6524,-2.941,0.0,0.0,0.0,0.0,0.0,-4.0681,-4.1316,0.0,0.0,-3.9604,-3.8488,-3.4968,0.0,0.0,0.0,-2.7813,0.0,0.0,-2.2923,-2.1504,-2.0119,-1.9561,0.0,0.0,0.0,0.0,0.0,-2.8467,0.0,0.0,0.0,0.0,0.0,-4.2555,-4.5518,0.0,-4.4863,-4.5594,-4.5594,-4.5594,-4.5518,-4.496,-4.3874,-4.2919,-4.3683,-4.2525,-4.1115,-4.2172,-4.2133,-4.1614,-4.1041,-4.164,-4.12,-3.6272,0.0,0.0,0.0,0.0,0.0,0.0,0.0,0.0,0.0,0.0,0.0,0.0,0.0,0.0,0.0,0.0,0.0,0.0,0.0,0.0,0.0,0.0,0.0,0.0,-3.0902,0.0,-3.6105,-3.8897,-4.0899,-4.1962,-4.3299,-4.4005,-4.4005,-4.4005,-4.4005,-4.4005,-4.4005,-4.4005,-4.4005,-4.4005,-4.4005,-4.4005,-4.4005,-4.4005,-4.4005,-4.4005,-4.4005,-4.4005,-4.4005,-4.4005,-4.4005,-4.4005,-4.4005,-4.4005,-2.2535,0.0,0.0,0.0,0.0,0.0,-2.7486,0.0,0.0,0.0,-3.8334,0.0,-4.2854,0.0,-4.2951,0.0,-4.3489,-4.1854,-3.9861,-3.7911,0.0,-3.5584,-3.3103,0.0,0.0,0.0,-2.6288,-2.4606,-2.2908,-2.1923,0.0,0.0,0.0,0.0,0.0,0.0,-3.2679,0.0,-3.8007,0.0,0.0,-4.3632,0.0,0.0,-4.5594,-4.5594,-4.5594,-4.5594,-4.5586,-4.5495,-4.4653,-4.3797,-4.4654,-4.3665,-4.2354,-4.3015,-4.2908,-4.2472,-4.1861,-4.2255,-4.1887,-3.8079,-3.6296,0.0,-2.9991,0.0,0.0,0.0,0.0,0.0,0.0,0.0,0.0,0.0,0.0,0.0,0.0,0.0,0.0,0.0,0.0,0.0,0.0,0.0,-2.66,-2.9099,-2.9285,0.0,0.0,-3.7461,-3.9728,-4.1126,-4.2723,-4.3708,-4.4005,-4.4005,-4.4005,-4.4005,-4.4005,-4.4005,-4.4005,-4.4005,-4.4005,-4.4005,-4.4005,-4.4005,-4.4005,-4.4005,-4.4005,-4.4005,-4.4005,-4.4005,-4.4005,-4.4005,-4.4005,-4.4005,0.0,0.0,0.0,0.0,-2.5056,0.0,0.0,0.0,-3.6077,0.0,-3.9592,-4.1285,-4.3028,-4.322,-4.3874,-4.546,-4.4836,-4.3335,-4.092,-3.9958,0.0,0.0,-3.5872,-3.5238,-3.6788,0.0,0.0,0.0,-2.6212,-2.4909,0.0,0.0,0.0,0.0,-2.6722,0.0,-3.2025,-3.7046,-4.07,-4.3297,-4.494,-4.5594,-4.5594,-4.5594,-4.5594,-4.5594,-4.5594,-4.5594,-4.5559,-4.5302,-4.5201,-4.5107,-4.4572,-4.4572,-4.4594,-4.3541,-4.3792,-4.4031,-4.2428,-4.2408,-4.2092,-3.8934,-3.8042,-3.6723,0.0,0.0,-3.499,0.0,0.0,0.0,0.0,0.0,0.0,0.0,0.0,0.0,0.0,0.0,0.0,0.0,0.0,0.0,0.0,0.0,-2.4251,-2.6665,-2.6907,0.0,0.0,-3.5287,-3.7777,-4.0267,-4.1943,-4.3188,-4.3986,-4.4005,-4.4005,-4.4005,-4.4005,-4.4005,-4.4005,-4.4005,-4.4005,-4.4005,-4.4005,-4.4005,-4.4005,-4.4005,-4.4005,-4.4005,-4.4005,-4.4005,-4.4005,-4.4005,-4.4005,-4.4005,-2.4258,-2.553,-2.6882,0.0,-2.6549,-2.72,0.0,0.0,0.0,0.0,-4.1354,-4.3085,-4.4767,-4.496,-4.5133,-4.5556,-4.5402,0.0,0.0,0.0,0.0,-4.2662,-4.0246,-3.8803,-3.8642,-3.4449,0.0,-3.0717,0.0,0.0,-2.4962,0.0,0.0,0.0,0.0,0.0,-3.1948,-3.5757,-3.9931,-4.4085,-4.5171,-4.5594,-4.5594,0.0,-4.5594,-4.5594,-4.5594,-4.5594,-4.5559,-4.5302,-4.5201,-4.5107,-4.4572,-4.4438,-4.4401,-4.3938,-4.3942,-4.4016,-4.3588,-4.3565,-4.3355,-4.1906,-4.016,-3.8302,-3.6458,-3.7132,0.0,0.0,0.0,0.0,0.0,0.0,0.0,0.0,0.0,0.0,0.0,0.0,0.0,0.0,0.0,0.0,0.0,-2.3925,-2.4677,-2.5931,-2.7111,0.0,-3.1961,0.0,-3.6922,-3.9361,-4.1627,-4.3188,-4.3986,-4.4005,-4.4005,-4.4005,-4.4005,-4.4005,-4.4005,-4.4005,-4.4005,-4.4005,-4.4005,-4.4005,-4.4005,-4.4005,-4.4005,-4.4005,-4.4005,-4.4005,-4.4005,-4.4005,-4.4005,-4.4005,-2.5882,0.0,0.0,-3.1794,0.0,0.0,-3.3654,-3.5424,0.0,-4.0662,-4.2566,0.0,-4.494,-4.5364,-4.5594,-4.5594,-4.5594,0.0,-4.4547,0.0,0.0,-4.3797,-4.2739,-4.1785,-4.0969,-3.7488,0.0,-3.2218,0.0,0.0,-2.5288,0.0,0.0,0.0,0.0,-2.8852,0.0,-3.6865,-4.1008,-4.4374,-4.5248,-4.5594,0.0,-4.5594,-4.5594,-4.5594,-4.5594,-4.5522,-4.5371,-4.5126,-4.4943,-4.4788,-4.436,-4.4221,-4.421,-4.4048,-4.4005,-4.4005,-4.4005,-4.4005,-4.3893,-4.3448,-4.2277,-4.0847,-3.9342,-3.9342,-3.9268,-3.7926,-3.826,-3.8469,-3.7466,0.0,0.0,0.0,0.0,0.0,0.0,0.0,0.0,0.0,0.0,0.0,-2.3277,-2.3638,-2.4111,-2.4575,-2.6461,0.0,0.0,0.0,-3.629,-3.7986,-4.0791,-4.2649,-4.3466,-4.3819,-4.4005,-4.4005,-4.4005,-4.4005,-4.4005,-4.4005,-4.4005,-4.4005,-4.4005,-4.4005,-4.4005,-4.4005,-4.4005,-4.4005,-4.4005,-4.4005,-4.4005,-4.4005,-4.4005,-4.4005,0.0,0.0,0.0,0.0,0.0,0.0,0.0,-3.8188,0.0,-4.1758,0.0,-4.447,-4.447,-4.5152,-4.5594,-4.5594,0.0,-4.4979,-4.3528,-4.4786,-4.496,-4.3489,-4.4105,-4.4085,-4.3278,-4.0662,0.0,0.0,0.0,0.0,0.0,0.0,0.0,0.0,0.0,0.0,0.0,-3.8834,-4.2566,-4.4374,-4.5248,-4.5594,-4.5594,-4.5594,-4.5594,-4.5605,-4.5568,-4.54,-4.5169,-4.4884,-4.4624,-4.436,-4.4075,-4.4005,-4.4005,-4.4005,-4.4005,-4.4005,-4.4005,-4.4005,-4.4005,-4.4005,-4.4005,-4.3448,-4.1349,-4.0866,-4.0866,-4.0866,-3.9171,-3.8637,-4.1887,0.0,0.0,0.0,0.0,0.0,0.0,0.0,0.0,0.0,0.0,0.0,-2.3471,-2.3462,-2.3481,-2.337,-2.5467,0.0,0.0,0.0,-3.5417,-3.6649,-3.977,-4.1869,-4.2797,-4.3596,-4.4005,-4.4005,-4.4005,-4.4005,-4.4005,-4.4005,-4.4005,-4.4005,-4.4005,-4.4005,-4.4005,-4.4005,-4.4005,-4.4005,-4.4005,-4.4005,-4.4005,-4.4005,-4.4005,-4.4005,0.0,0.0,0.0,0.0,0.0,-3.9403,-4.1455,-4.0943,-4.092,-4.2643,-4.4335,-4.5364,-4.5364,-4.5518,-4.5594,-4.5594,-4.5594,0.0,0.0,0.0,0.0,-4.5171,-4.5306,-4.4979,-4.4105,-4.0931,-3.7892,0.0,-3.1218,-2.7607,-2.4317,0.0,0.0,0.0,0.0,0.0,-3.5058,-3.8334,0.0,-4.4374,-4.5248,-4.5594,-4.5594,-4.5594,-4.5594,-4.5568,-4.5342,-4.5232,-4.5169,-4.4884,-4.4624,-4.436,-4.4075,-4.4005,-4.4005,-4.4005,-4.4005,-4.4005,-4.4005,-4.4005,-4.4005,-4.4005,-4.4005,-4.3893,-4.3466,-4.3373,-4.3373,-4.3373,-4.302,-4.2333,-4.1051,-3.6946,0.0,0.0,0.0,0.0,0.0,0.0,0.0,0.0,0.0,0.0,0.0,-2.4863,-2.4993,-2.4324,0.0,0.0,0.0,0.0,-3.3076,0.0,-3.9231,-4.1311,-4.2797,-4.3596,-4.4005,-4.4005,-4.4005,-4.4005,-4.4005,-4.4005,-4.4005,-4.4005,-4.4005,-4.4005,-4.4005,-4.4005,-4.4005,-4.4005,-4.4005,-4.4005,-4.4005,-4.4005,-4.4005,-4.4005,0.0,0.0,0.0,0.0,0.0,0.0,0.0,-4.4716,-4.4586,-4.5028,-4.5766,-4.6264,-4.6264,-4.6714,-4.6992,-4.6992,-4.657,-4.6292,-4.6318,-4.5871,-4.5622,-4.5648,-4.5622,0.0,-4.4316,-4.2316,-3.9373,-3.55,-3.2526,-2.9121,0.0,-2.5327,0.0,0.0,0.0,-3.1808,0.0,0.0,-4.2027,-4.4374,-4.5248,-4.5594,-4.5586,-4.5457,-4.54,-4.5352,-4.5085,-4.4896,-4.4776,-4.4637,-4.4416,-4.4181,-4.4033,-4.4005,-4.4005,-4.4005,-4.4005,-4.4005,-4.4005,-4.4005,-4.4005,-4.4005,-4.4005,-4.4005,-4.4005,-4.4005,-4.4005,-4.4005,-4.4005,-4.3262,-4.0828,-3.7355,-3.4618,0.0,0.0,0.0,0.0,0.0,0.0,0.0,0.0,0.0,0.0,0.0,0.0,0.0,0.0,0.0,0.0,0.0,-3.2072,0.0,0.0,0.0,-4.2166,-4.3392,-4.4005,-4.4005,-4.4005,-4.4005,-4.4005,-4.4005,-4.4005,-4.4005,-4.4005,-4.4005,-4.4005,-4.4005,-4.4005,-4.4005,-4.4005,-4.4005,-4.4005,-4.4005,-4.4005,-4.4005,0.0,-4.2125,0.0,0.0,-4.5349,-4.6276,-4.7075,-4.788,-4.8094,-4.7277,-4.7178,-4.7185,-4.7202,-4.7863,-4.8293,-4.8293,-4.7623,-4.721,-4.727,-4.6414,-4.5907,-4.5951,-4.5744,-4.5295,-4.4586,-4.3778,-4.1046,0.0,-3.4391,-3.1198,-2.6851,-2.6173,-2.6038,-2.6558,0.0,0.0,0.0,-4.05,-4.2874,-4.4643,-4.5325,-4.5594,-4.5568,-4.5302,-4.5201,-4.5169,-4.4825,-4.4572,-4.4383,-4.4332,-4.4162,-4.4005,-4.4005,-4.4005,-4.4005,-4.4005,-4.4005,-4.4005,-4.4005,-4.4005,-4.4005,-4.4005,-4.4005,-4.4005,-4.4005,-4.4005,-4.4005,-4.4005,-4.4005,-4.3206,-4.0587,-3.8297,-3.6458,0.0,0.0,0.0,0.0,0.0,0.0,0.0,0.0,0.0,0.0,0.0,0.0,0.0,0.0,0.0,-2.5912,0.0,0.0,0.0,-3.7132,-3.9565,-4.1051,-4.302,-4.4005,-4.4005,-4.4005,-4.4005,-4.4005,-4.4005,-4.4005,-4.4005,-4.4005,-4.4005,-4.4005,-4.4005,-4.4005,-4.4005,-4.4005,-4.4005,-4.4005,-4.4005,-4.4005,-4.4005,0.0,0.0,0.0,0.0,0.0,-4.7241,-4.8052,-4.8842,-4.9059,-4.8186,-4.809,-4.8107,-4.8169,-4.8254,-4.8293,-4.8293,-4.8208,-4.8169,-4.8177,-4.7359,-4.6833,-4.678,-4.6078,-4.5618,-4.5479,-4.4624,-4.247,0.0,0.0,-3.2699,-2.778,-2.7678,-2.8467,-3.0038,-3.2756,-3.586,-3.9188,-4.1027,-4.322,-4.5498,-4.5575,-4.5594,-4.5568,-4.5302,-4.5201,-4.5129,-4.4624,-4.4411,-4.4374,-4.4121,-4.4036,-4.4005,-4.4005,-4.4005,-4.4005,-4.4005,-4.4005,-4.4005,-4.4005,-4.4005,-4.4005,-4.4005,-4.4005,-4.4005,-4.4005,-4.4005,-4.4005,-4.4005,-4.4005,-4.302,-3.9807,-4.0197,-3.9547,-3.5052,0.0,0.0,0.0,0.0,0.0,0.0,0.0,0.0,0.0,-2.4055,0.0,0.0,0.0,0.0,-2.6702,-2.7761,-2.9805,-3.302,-3.6296,-3.8432,-3.9324,-4.2445,-4.4005,-4.4005,-4.4005,-4.4005,-4.4005,-4.4005,-4.4005,-4.4005,-4.4005,-4.4005,-4.4005,-4.4005,-4.4005,-4.4005,-4.4005,-4.4005,-4.4005,-4.4005,-4.4005,-4.4005,0.0,0.0,0.0,0.0,0.0,0.0,-4.9644,-5.0094,-5.0165,-4.9864,-4.9826,-4.9834,-4.9851,-4.9856,-4.9853,-4.9853,-4.9385,-4.9095,-4.9138,-4.8279,-4.7764,-4.7747,-4.6937,-4.6452,-4.6374,-4.5582,-4.3715,0.0,0.0,0.0,-3.2218,-3.1694,-3.2427,-3.4269,-3.6334,-3.8584,-4.0912,-4.2585,-4.4182,-4.5594,-4.5594,-4.5504,-4.5332,-4.5063,-4.4861,-4.4676,-4.4289,-4.4166,-4.4151,-4.4051,-4.4005,-4.4005,-4.4005,-4.4005,-4.4005,-4.4005,-4.4005,-4.4005,-4.4005,-4.4005,-4.4005,-4.4005,-4.4005,-4.4005,-4.4005,-4.4005,-4.4005,-4.4005,-4.3615,-4.2872,-4.1553,-4.0253,-3.9045,-3.8079,0.0,0.0,0.0,0.0,0.0,0.0,0.0,0.0,0.0,0.0,0.0,0.0,0.0,-2.3721,-2.5373,-2.713,-2.9155,-3.1496,0.0,-3.8284,-3.9082,-4.2352,-4.4005,-4.4005,-4.4005,-4.4005,-4.4005,-4.4005,-4.4005,-4.4005,-4.4005,-4.4005,-4.4005,-4.4005,-4.4005,-4.4005,-4.4005,-4.4005,-4.4005,-4.4005,-4.4005,-4.4005,-4.874,-4.8295,-4.8333,-4.9803,-4.951,-4.9486,-5.0703,-5.0852,-5.0844,-5.0897,-5.0897,-5.0897,-5.0897,-5.0901,-5.0898,-5.0898,-5.0333,-5.0004,-5.0047,-4.9208,-4.8712,-4.8676,-4.7846,0.0,-4.7304,-4.6474,-4.5029,-4.2948,-4.0797,0.0,-3.6326,-3.5438,-3.6025,-3.7892,-3.9642,-4.12,-4.2624,-4.4066,-4.4982,-4.5485,-4.5485,-4.5322,-4.5052,-4.4788,-4.4559,-4.4355,-4.4109,-4.4005,-4.4005,-4.4005,-4.4005,-4.4005,-4.4005,-4.4005,-4.4005,-4.4005,-4.4005,-4.4005,-4.4005,-4.4005,-4.4005,-4.4005,-4.4005,-4.4005,-4.4005,-4.4005,-4.4005,-4.4005,-4.3355,-4.2723,-4.2482,-4.0364,-3.8767,-3.9245,0.0,0.0,0.0,0.0,0.0,0.0,0.0,-2.7873,-2.7315,0.0,0.0,0.0,0.0,-2.4426,-2.5856,-2.7557,-2.9582,-3.1979,-3.6086,-3.8655,-3.9472,-4.2482,-4.4005,-4.4005,-4.4005,-4.4005,-4.4005,-4.4005,-4.4005,-4.4005,-4.4005,-4.4005,-4.4005,-4.4005,-4.4005,-4.4005,-4.4005,-4.4005,-4.4005,-4.4005,-4.4005,-4.4005,-4.9513,-4.9687,-4.9939,-5.0743,-5.0879,-5.0879,-5.0898,-5.0898,-5.0898,-5.0898,-5.0898,-5.0898,-5.0898,-5.0898,-5.0898,-5.0898,-5.0898,-5.0879,-5.0898,-5.0124,-4.9645,0.0,0.0,-4.8276,-4.8274,-4.7364,-4.6472,-4.5643,0.0,0.0,-3.9219,-3.8354,-3.8854,-4.0535,-4.2277,-4.3508,-4.4335,-4.521,-4.5438,-4.5211,-4.5211,-4.5041,-4.4776,-4.4506,-4.4397,-4.4355,-4.4109,-4.4005,-4.4005,-4.4005,-4.4005,-4.4005,-4.4005,-4.4005,-4.4005,-4.4005,-4.4005,-4.4005,-4.4005,-4.4005,-4.4005,-4.4005,-4.4005,-4.4005,-4.4005,-4.4005,-4.4005,-4.4005,-4.3355,-4.2556,-4.1757,-4.0921,-3.9579,-3.7145,-3.8042,0.0,0.0,0.0,0.0,0.0,-2.9601,-2.8096,-2.8096,0.0,0.0,0.0,0.0,-2.8412,-2.9285,-2.9359,-3.1255,-3.5306,-3.7801,-3.9491,-4.0378,-4.2797,-4.4005,-4.4005,-4.4005,-4.4005,-4.4005,-4.4005,-4.4005,-4.4005,-4.4005,-4.4005,-4.4005,-4.4005,-4.4005,-4.4005,-4.4005,-4.4005,-4.4005,-4.4005,-4.4005,-4.4005,-5.0453,-5.0511,-5.0589,-5.0859,-5.0898,-5.0898,-5.0898,-5.0898,-5.0898,-5.0898,-5.0898,-5.0898,-5.0898,-5.0898,-5.0898,0.0,-5.0898,-5.0898,0.0,-5.0666,-5.0515,-5.0494,-4.9695,-4.9208,-4.9123,-4.829,-4.7417,-4.6529,-4.4956,-4.3617,-4.2507,-4.221,-4.2762,-4.3998,-4.4556,-4.496,-4.5201,-4.5295,-4.5292,-4.5191,-4.5007,-4.4763,-4.4519,-4.4425,-4.4275,-4.4106,-4.4017,-4.4005,-4.4005,-4.4005,-4.4005,-4.4005,-4.4005,-4.4005,-4.4005,-4.4005,-4.4005,-4.4005,-4.4005,-4.4005,-4.4005,-4.4005,-4.4005,-4.4005,-4.4005,-4.4005,-4.4005,-4.4005,-4.3355,-4.2556,-4.1739,-4.094,-3.9937,-3.8562,-3.8302,0.0,-3.6129,0.0,0.0,0.0,-3.144,-3.0623,-3.0623,-2.9657,0.0,0.0,0.0,0.0,-2.8505,-3.1162,-3.302,-3.3782,-3.7819,-4.0118,-4.0416,-4.2797,-4.4005,-4.4005,-4.4005,-4.4005,-4.4005,-4.4005,-4.4005,-4.4005,-4.4005,-4.4005,-4.4005,-4.4005,-4.4005,-4.4005,-4.4005,-4.4005,-4.4005,-4.4005,-4.4005,-4.4079,-5.0898,-5.1149,-5.1389,-5.1389,-5.166,-5.1892,-5.1892,-5.1892,-5.1892,-5.1892,-5.1892,-5.1892,-5.1892,-5.1892,-5.1621,-5.0956,-5.0898,-5.0898,-5.0898,-5.0898,-5.0909,-5.0905,-5.0426,-5.0109,-5.0033,-4.9219,-4.8499,-4.791,-4.6558,-4.5611,-4.5074,-4.4748,-4.4968,-4.5594,-4.5594,-4.5531,-4.5438,-4.5263,-4.5085,-4.4884,-4.4714,-4.4479,-4.425,-4.425,-4.4151,-4.4005,-4.4005,-4.4005,-4.4005,-4.4005,-4.4005,-4.4005,-4.4005,-4.4005,-4.4005,-4.4005,-4.4005,-4.4005,-4.4005,-4.4005,-4.4005,-4.4005,-4.4005,-4.4005,-4.4005,-4.4005,-4.4005,-4.4005,-4.3355,-4.2556,-4.1739,-4.094,-4.0104,-3.9231,-3.8414,-3.7615,-3.6798,0.0,0.0,0.0,0.0,0.0,0.0,-3.1886,-3.1738,0.0,0.0,0.0,0.0,-3.315,-3.4692,-3.5751,-3.9361,-4.1441,-4.1739,-4.3243,-4.4005,-4.4005,-4.4005,-4.4005,-4.4005,-4.4005,-4.4005,-4.4005,-4.4005,-4.4005,-4.4005,-4.4005,-4.4005,-4.4005,-4.4005,-4.4005,-4.4005,-4.4005,-4.4209,-4.4562,-5.1072,-5.1738,-5.2287,-5.2287,-5.2956,-5.3498,-5.3498,-5.3498,-5.3498,-5.3498,-5.3498,-5.3498,-5.3498,-5.3498,-5.284,-5.1227,-5.1033,-5.0956,-5.0898,-5.0898,-5.0898,-5.0898,-5.0898,-5.0898,-5.0898,-5.0112,-4.9663,-4.9586,-4.7844,-4.6985,-4.6962,-4.6135,-4.575,-4.5768,-4.5732,-4.5582,-4.5373,-4.5341,-4.5031,-4.4571,-4.4557,-4.4389,-4.4172,-4.4172,-4.4172,-4.4172,-4.4172,-4.4172,-4.4172,-4.4116,-4.4098,-4.4079,-4.4023,-4.4005,-4.4005,-4.4005,-4.4005,-4.4005,-4.4005,-4.4005,-4.4005,-4.4005,-4.4005,-4.4005,-4.4005,-4.4005,-4.4005,-4.4005,-4.3392,-4.2612,-4.1757,-4.0977,-4.016,-3.9175,-3.8339,-3.7541,-3.6736,-3.5256,0.0,0.0,0.0,-3.2953,-3.2221,-3.3503,-3.4346,0.0,0.0,0.0,-3.6779,-3.5404,-3.6389,-4.0285,-4.1962,-4.3188,-4.3986,-4.4005,-4.4005,-4.4005,-4.4005,-4.4005,-4.4005,-4.4005,-4.4005,-4.4005,-4.4005,-4.4005,-4.4005,-4.4005,-4.4005,-4.4005,-4.4005,-4.4005,-4.4005,-4.4079,-4.4599,-4.5324,-5.2743,-5.3053,-5.3188,-5.3188,-5.3362,-5.3498,-5.3498,-5.3498,-5.3498,-5.3498,-5.3498,-5.3498,-5.3498,-5.3498,-5.3323,-5.2917,-5.2279,-5.1602,-5.0937,-5.0898,-5.0898,-5.0898,-5.0898,-5.0898,-5.0898,-5.0697,-5.024,-4.9517,-4.8424,-4.7871,-4.7808,-4.7403,-4.7317,-4.7491,-4.7075,-4.6984,-4.7078,-4.6663,-4.6412,-4.6288,-4.6085,-4.5962,-4.59,-4.59,-4.59,-4.59,-4.59,-4.59,-4.5807,-4.5194,-4.4989,-4.4878,-4.4209,-4.4005,-4.4005,-4.4005,-4.4005,-4.4005,-4.4005,-4.4005,-4.4005,-4.4005,-4.4005,-4.4005,-4.4005,-4.4005,-4.4005,-4.4005,-4.3856,-4.328,-4.185,-4.1441,-4.0624,-3.8525,-3.7503,-3.6699,-3.59,-3.5454,-3.512,0.0,-3.5454,-3.5751,-3.5566,-3.5869,-3.585,-3.525,0.0,-3.6965,-3.7578,-3.8451,-3.9394,-4.0378,-4.1962,-4.3188,-4.3986,-4.4005,-4.4005,-4.4005,-4.4005,-4.4005,-4.4005,-4.4005,-4.4005,-4.4005,-4.4005,-4.4005,-4.4005,-4.4005,-4.4005,-4.4005,-4.4005,-4.4005,-4.4079,-4.4748,-4.5119,-4.5472,-5.3401,-5.3826,-5.4097,-5.4097,-5.4407,-5.4639,-5.4639,-5.4639,-5.4639,-5.4639,-5.4639,-5.4639,-5.4639,-5.4639,-5.4484,-5.4136,-5.3304,-5.2414,-5.1544,-5.1486,-5.1331,-5.0917,-5.0898,-5.0898,-5.0898,-5.0898,-5.0653,-5.0087,-4.9225,-4.8757,-4.8673,-4.8012,-4.7841,-4.8087,-4.7538,-4.7391,-4.7488,-4.7085,-4.6829,-4.6694,-4.6557,-4.6494,-4.6494,-4.6494,-4.6494,-4.6494,-4.6494,-4.6494,-4.642,-4.5992,-4.5844,-4.5769,-4.5287,-4.4896,-4.4581,-4.4581,-4.4302,-4.4005,-4.4005,-4.4005,-4.4005,-4.4005,-4.4005,-4.4005,-4.4005,-4.4005,-4.4005,-4.4005,-4.4005,-4.3615,-4.237,-4.185,-4.0903,-3.8785,-3.7764,-3.6965,-3.616,-3.6049,-3.6179,-3.6551,-3.7312,-3.7949,-3.8339,-3.8711,-3.8762,-3.8321,-3.8692,-3.9133,-3.9565,-4.0791,-4.1497,-4.1497,-4.2705,-4.3559,-4.4005,-4.4005,-4.4005,-4.4005,-4.4005,-4.4005,-4.4005,-4.4005,-4.4005,-4.4005,-4.4005,-4.4005,-4.4005,-4.4005,-4.4005,-4.4005,-4.4005,-4.4005,-4.4116,-4.4971,-4.5528,-4.603,-5.3846,-5.4465,-5.4987,-5.4987,-5.5548,-5.6012,-5.6012,-5.6012,-5.6012,-5.6012,-5.6012,-5.6012,-5.6012,-5.6012,-5.5722,-5.5045,-5.4291,-5.3459,-5.2461,-5.2268,-5.1873,-5.113,-5.0975,-5.0898,-5.0898,-5.089,-5.085,-5.0784,-4.9998,-4.9586,-4.95,-4.8441,-4.8097,-4.8336,-4.7789,-4.7567,-4.7589,-4.7319,-4.7068,-4.6865,-4.6865,-4.6865,-4.6865,-4.6865,-4.6865,-4.6865,-4.6865,-4.6865,-4.6828,-4.6717,-4.668,-4.6661,-4.6531,-4.603,-4.5472,-4.5472,-4.4859,-4.4172,-4.4042,-4.4005,-4.4005,-4.4005,-4.4005,-4.4005,-4.4005,-4.4005,-4.4005,-4.4005,-4.4005,-4.3745,-4.2946,-4.2129,-4.1014,-3.9212,-3.8339,-3.7578,-3.6662,-3.6829,-3.7318,-3.7986,-3.8915,-3.977,-4.0494,-4.12,-4.1646,-4.1757,-4.1776,-4.1832,-4.1962,-4.2612,-4.2983,-4.2983,-4.3633,-4.4005,-4.4005,-4.4005,-4.4005,-4.4005,-4.4005,-4.4005,-4.4005,-4.4005,-4.4005,-4.4005,-4.4005,-4.4005,-4.4005,-4.4005,-4.4005,-4.4005,-4.4005,-4.4079,-4.4302,-4.5157,-4.5992,-4.6791,-5.549,-5.5722,-5.5818,-5.5818,-5.5915,-5.6012,-5.6012,-5.6012,-5.6012,-5.6012,-5.6012,-5.6012,-5.6012,-5.6012,-5.5954,-5.5818,-5.5702,-5.4948,-5.3401,-5.2616,-5.2152,-5.1989,-5.1293,-5.0898,-5.0898,-5.0905,-5.0846,-5.071,-5.0352,-5.0128,-5.0061,-4.9427,-4.9292,-4.9511,-4.8921,-4.8816,-4.9047,-4.8735,-4.857,-4.8537,-4.8537,-4.8537,-4.8537,-4.8537,-4.8537,-4.8537,-4.8537,-4.8537,-4.8426,-4.7738,-4.7516,-4.7404,-4.6717,-4.6401,-4.6308,-4.6308,-4.5732,-4.4934,-4.4191,-4.4005,-4.4005,-4.4005,-4.4005,-4.4005,-4.4005,-4.4005,-4.4005,-4.4005,-4.4005,-4.3745,-4.2946,-4.2129,-4.0828,-3.8469,-3.7968,-3.7373,-3.59,-3.7429,-3.8767,-3.8897,-4.0271,-4.1256,-4.1386,-4.1534,-4.1869,-4.2556,-4.2612,-4.2909,-4.3596,-4.3745,-4.3819,-4.3819,-4.3931,-4.4005,-4.4005,-4.4005,-4.4005,-4.4005,-4.4005,-4.4005,-4.4005,-4.4005,-4.4005,-4.4005,-4.4005,-4.4005,-4.4005,-4.4005,-4.4005,-4.4005,-4.4005,-4.4451,-4.5194,-4.6011,-4.6828,-4.7627,-5.5935,-5.6012,-5.6012,-5.6012,-5.6012,-5.6012,-5.6012,-5.6012,-5.6012,-5.6012,-5.6012,-5.6012,-5.6012,-5.6012,-5.6012,-5.6012,-5.6012,-5.5664,-5.4909,-5.4058,-5.3382,-5.2917,-5.2511,-5.2086,-5.1602,-5.1137,-5.0846,-5.0747,-5.0446,-5.0275,-5.0195,-4.9655,-4.9544,-4.9757,-4.9171,-4.9094,-4.9384,-4.9044,-4.8909,-4.8909,-4.8909,-4.8909,-4.8909,-4.8909,-4.8909,-4.8909,-4.8909,-4.8909,-4.8834,-4.8481,-4.8351,-4.8277,-4.7906,-4.7497,-4.7144,-4.7144,-4.6271,-4.5101,-4.4246,-4.4005,-4.4005,-4.4005,-4.4005,-4.4005,-4.4005,-4.4005,-4.4005,-4.4005,-4.4005,-4.3893,-4.3503,-4.2797,-4.172,-4.0141,-3.9528,-3.9003,-3.8241,-3.9115,-4.0123,-4.0996,-4.1776,-4.2407,-4.2853,-4.289,-4.3039,-4.3429,-4.3448,-4.3615,-4.3986,-4.4005,-4.4005,-4.4005,-4.4005,-4.4005,-4.4005,-4.4005,-4.4005,-4.4005,-4.4005,-4.4005,-4.4005,-4.4005,-4.4005,-4.4005,-4.4005,-4.4005,-4.4005,-4.4005,-4.4005,-4.4005,-4.4005,-4.4525,-4.5398,-4.6197,-4.7014,-4.7813,-5.6012,-5.6012,-5.6012,-5.6012,-5.6012,-5.6012,-5.6012,-5.6012,-5.6012,-5.6012,-5.6012,-5.6012,-5.6012,-5.6012,-5.6012,-5.6012,-5.6012,-5.6012,-5.6012,-5.5412,-5.4697,-5.3846,-5.3614,-5.3188,-5.2503,-5.1612,-5.1127,-5.099,-5.0459,-5.0128,-5.0012,-4.951,-4.9393,-4.9579,-4.9125,-4.9044,-4.9273,-4.901,-4.8909,-4.8909,-4.8909,-4.8909,-4.8909,-4.8909,-4.8909,-4.8909,-4.8909,-4.8909,-4.8909,-4.8909,-4.8909,-4.8909,-4.8909,-4.8481,-4.798,-4.798,-4.6977,-4.5621,-4.4581,-4.4302,-4.4246,-4.4061,-4.4005,-4.4005,-4.4005,-4.4005,-4.4005,-4.4005,-4.4005,-4.4005,-4.4005,-4.3336,-4.2537,-4.172,-4.107,-4.062,-4.0434,-4.0717,-4.1423,-4.2649,-4.2965,-4.3318,-4.3949,-4.4005,-4.4005,-4.4005,-4.4005,-4.4005,-4.4005,-4.4005,-4.4005,-4.4005,-4.4005,-4.4005,-4.4005,-4.4005,-4.4005,-4.4005,-4.4005,-4.4005,-4.4005,-4.4005,-4.4005,-4.4005,-4.4005,-4.4005,-4.4005,-4.4005,-4.4005,-4.4005,-4.4005,-4.4655,-4.5639,-4.6271,-4.7125,-4.8073,-5.6012,-5.6012,-5.6012,-5.6012,-5.6012,-5.6012,-5.6012,-5.6012,-5.6012,-5.6012,-5.6012,-5.6012,-5.6012,-5.6012,-5.6012,-5.6012,-5.6012,-5.6012,-5.6012,-5.5935,-5.5548,-5.4735,-5.3923,-5.3442,-5.3314,-5.2464,-5.1856,-5.1541,-5.0468,-4.9762,-4.9457,-4.911,-4.8942,-4.8959,-4.8907,-4.8907,-4.8943,-4.8926,-4.8909,-4.8909,-4.8909,-4.8909,-4.8909,-4.8909,-4.8909,-4.8909,-4.8909,-4.8909,-4.8909,-4.8909,-4.8909,-4.8909,-4.8909,-4.8872,-4.8816,-4.8816,-4.8203,-4.7181,-4.5621,-4.5194,-4.5008,-4.4191,-4.4005,-4.4005,-4.4005,-4.4005,-4.4005,-4.4005,-4.4005,-4.4005,-4.4005,-4.3336,-4.2537,-4.172,-4.1553,-4.1237,-4.0508,-4.1683,-4.2667,-4.2797,-4.3466,-4.3931,-4.3986,-4.4005,-4.4005,-4.4005,-4.4005,-4.4005,-4.4005,-4.4005,-4.4005,-4.4005,-4.4005,-4.4005,-4.4005,-4.4005,-4.4005,-4.4005,-4.4005,-4.4005,-4.4005,-4.4005,-4.4005,-4.4005,-4.4005,-4.4005,-4.4005,-4.4005,-4.4005,-4.4005,-4.4005,-4.4989,-4.642,-4.6475,-4.7478,-4.8816,-5.6012,-5.6012,-5.6012,-5.6012,-5.6012,-5.6012,-5.6012,-5.6012,-5.6012,-5.6012,-5.6012,-5.6012,-5.6012,-5.6012,-5.6012,-5.6012,-5.6012,-5.6012,-5.6012,-5.6012,-5.5857,-5.5567,-5.4755,-5.4282,-5.4265,-5.3415,-5.2771,-5.2411,-5.1255,-5.0515,-5.0115,-4.9303,-4.8909,-4.8909,-4.8909,-4.8909,-4.8909,-4.8909,-4.8909,-4.8909,-4.8909,-4.8909,-4.8909,-4.8909,-4.8909,-4.8909,-4.8909,-4.8909,-4.8909,-4.8909,-4.8909,-4.8909,-4.8909,-4.8909,-4.8909,-4.8909,-4.8686,-4.8203,-4.7088,-4.642,-4.5844,-4.5008,-4.4804,-4.4655,-4.4116,-4.4005,-4.4005,-4.4005,-4.4005,-4.4005,-4.4005,-4.3745,-4.3448,-4.3132,-4.2667,-4.2407,-4.2612,-4.2723,-4.2983,-4.3485,-4.3819,-4.4005,-4.4005,-4.4005,-4.4005,-4.4005,-4.4005,-4.4005,-4.4005,-4.4005,-4.4005,-4.4005,-4.4005,-4.4005,-4.4005,-4.4005,-4.4005,-4.4005,-4.4005,-4.4005,-4.4005,-4.4005,-4.4005,-4.4005,-4.4005,-4.4005,-4.4005,-4.4005,-4.4005,-4.4061,-4.4599,-4.5491,-4.655,-4.7051,-4.7943,-4.8909,-5.6012,-5.6012,-5.6012,-5.6012,-5.6012,-5.6012,-5.6012,-5.6012,-5.6012,-5.6012,-5.6012,-5.6012,-5.6012,-5.6012,-5.6012,-5.6012,-5.6012,-5.6012,-5.6012,-5.6012,-5.6012,-5.6012,-5.547,-5.518,-5.518,-5.4349,-5.3658,-5.3152,-5.2094,-5.1334,-5.0815,-5.0053,-4.954,-4.928,-4.928,-4.915,-4.8909,-4.8909,-4.8909,-4.8909,-4.8909,-4.8909,-4.8909,-4.8909,-4.8909,-4.8909,-4.8909,-4.8909,-4.8909,-4.8909,-4.8909,-4.8909,-4.8909,-4.8909,-4.8909,-4.8909,-4.8909,-4.8779,-4.824,-4.7664,-4.6995,-4.5937,-4.5491,-4.5138,-4.4544,-4.4191,-4.4005,-4.4005,-4.4005,-4.4005,-4.4005,-4.4005,-4.4005,-4.4005,-4.354,-4.3373,-4.3912,-4.3522,-4.3373,-4.3931,-4.4005,-4.4005,-4.4005,-4.4005,-4.4005,-4.4005,-4.4005,-4.4005,-4.4005,-4.4005,-4.4005,-4.4005,-4.4005,-4.4005,-4.4005,-4.4005,-4.4005,-4.4005,-4.4005,-4.4005,-4.4005,-4.4005,-4.4005,-4.4005,-4.4005,-4.4005,-4.4005,-4.4005,-4.4005,-4.4098,-4.4952,-4.5788,-4.6605,-4.7404,-4.8203,-4.8909,-5.6012,-5.6012,-5.6012,-5.6012,-5.6012,-5.6012,-5.6012,-5.6012,-5.6012,-5.6012,-5.6012,-5.6012,-5.6012,-5.6012,-5.6012,-5.6012,-5.6012,-5.6012,-5.6012,-5.6012,-5.6012,-5.6012,-5.6012,-5.6012,-5.6012,-5.5219,-5.4437,-5.3712,-5.2842,-5.2069,-5.1398,-5.1398,-5.0933,-5.0116,-5.0116,-4.967,-4.8927,-4.8927,-4.8927,-4.8927,-4.8927,-4.8927,-4.8927,-4.8927,-4.8927,-4.8927,-4.8927,-4.8927,-4.8927,-4.8909,-4.8909,-4.8909,-4.8909,-4.8909,-4.8909,-4.8909,-4.8909,-4.8909,-4.8909,-4.8909,-4.8519,-4.6903,-4.59,-4.5324,-4.5305,-4.4636,-4.4005,-4.4005,-4.4005,-4.4005,-4.4005,-4.4005,-4.4005,-4.4005,-4.4005,-4.4005,-4.4005,-4.4005,-4.4005,-4.4005,-4.4005,-4.4005,-4.4005,-4.4005,-4.4005,-4.4005,-4.4005,-4.4005,-4.4005,-4.4005,-4.4005,-4.4005,-4.4005,-4.4005,-4.4005,-4.4005,-4.4005,-4.4005,-4.4005,-4.4005,-4.4005,-4.4005,-4.4005,-4.4005,-4.4005,-4.4005,-4.4005,-4.4005,-4.4005,-4.4098,-4.4971,-4.5788,-4.6605,-4.7404,-4.8203,-4.8909,-5.6012,-5.6012,-5.6012,-5.6012,-5.6012,-5.6012,-5.6012,-5.6012,-5.6012,-5.6012,-5.6012,-5.6012,-5.6012,-5.6012,-5.6012,-5.6012,-5.6012,-5.6012,-5.6012,-5.6012,-5.6012,-5.6012,-5.6012,-5.6012,-5.6012,-5.576,-5.5413,-5.497,-5.3856,-5.3086,-5.2634,-5.1802,-5.1268,-5.1008,-5.1008,-5.0878,-5.0655,-5.0655,-5.0655,-5.0655,-5.0655,-5.0655,-5.0655,-5.0655,-5.0655,-5.0655,-5.0655,-5.0655,-5.0562,-5.0005,-4.9782,-4.9652,-4.9076,-4.8909,-4.8909,-4.8909,-4.8909,-4.8909,-4.8909,-4.8909,-4.8649,-4.7608,-4.7163,-4.6828,-4.6271,-4.5491,-4.4915,-4.4915,-4.4432,-4.4005,-4.4005,-4.4005,-4.4005,-4.4005,-4.4005,-4.4005,-4.4005,-4.4005,-4.4005,-4.4005,-4.4005,-4.4005,-4.4005,-4.4005,-4.4005,-4.4005,-4.4005,-4.4005,-4.4005,-4.4005,-4.4005,-4.4005,-4.4005,-4.4005,-4.4005,-4.4005,-4.4005,-4.4005,-4.4005,-4.4005,-4.4005,-4.4005,-4.4005,-4.4005,-4.4005,-4.4005,-4.4005,-4.4005,-4.4358,-4.4989,-4.5825,-4.6624,-4.7441,-4.8259,-4.8686,-4.8909,-5.6012,-5.6012,-5.6012,-5.6012,-5.6012,-5.6012,-5.6012,-5.6012,-5.6012,-5.6012,-5.6012,-5.6012,-5.6012,-5.6012,-5.6012,-5.6012,-5.6012,-5.6012,-5.6012,-5.6012,-5.6012,-5.6012,-5.5959,-5.595,-5.6003,-5.6012,-5.5798,-5.5377,-5.4574,-5.3973,-5.3547,-5.2733,-5.2178,-5.1881,-5.1881,-5.1695,-5.1398,-5.1398,-5.1398,-5.1398,-5.1398,-5.1398,-5.1398,-5.1398,-5.1398,-5.1398,-5.1398,-5.1398,-5.1323,-5.0841,-5.0413,-5.0023,-4.954,-4.9169,-4.8909,-4.8909,-4.8909,-4.8909,-4.8909,-4.8909,-4.8779,-4.8296,-4.7943,-4.7571,-4.7088,-4.6345,-4.5769,-4.5769,-4.5101,-4.4506,-4.4506,-4.4228,-4.4005,-4.4005,-4.4005,-4.4005,-4.4005,-4.4005,-4.4005,-4.4005,-4.4005,-4.4005,-4.4005,-4.4005,-4.4005,-4.4005,-4.4005,-4.4005,-4.4005,-4.4005,-4.4005,-4.4005,-4.4005,-4.4005,-4.4005,-4.4005,-4.4005,-4.4005,-4.4005,-4.4005,-4.4005,-4.4005,-4.4005,-4.4005,-4.4005,-4.4005,-4.4005,-4.4005,-4.4302,-4.4896,-4.6048,-4.6791,-4.7367,-4.85,-4.8909,-4.8909,-5.6012,-5.6012,-5.6012,-5.6012,-5.6012,-5.6012,-5.6012,-5.6012,-5.6012,-5.6012,-5.6012,-5.6012,-5.6012,-5.6012,-5.6012,-5.6012,-5.6012,-5.6012,-5.6012,-5.6012,-5.6012,-5.6012,-5.5876,-5.5866,-5.6003,-5.5995,-5.573,-5.5237,-5.5023,-5.4636,-5.4144,-5.3907,-5.3423,-5.2717,-5.2717,-5.2308,-5.1602,-5.1602,-5.1602,-5.1602,-5.1602,-5.1602,-5.1602,-5.1602,-5.1602,-5.1602,-5.1602,-5.1602,-5.1602,-5.1528,-5.0933,-5.0228,-5.0228,-4.9707,-4.9113,-4.9039,-4.902,-4.9002,-4.8927,-4.8909,-4.8909,-4.8909,-4.8351,-4.7813,-4.7813,-4.7181,-4.6605,-4.6605,-4.5974,-4.5398,-4.5398,-4.4766,-4.4191,-4.4135,-4.4116,-4.4098,-4.4005,-4.4005,-4.4005,-4.4005,-4.4005,-4.4005,-4.4005,-4.4005,-4.4005,-4.4005,-4.4005,-4.4005,-4.4005,-4.4005,-4.4005,-4.4005,-4.4005,-4.4005,-4.4005,-4.4005,-4.4005,-4.4005,-4.4005,-4.4005,-4.4005,-4.4005,-4.4005,-4.4005,-4.4005,-4.4005,-4.4005,-4.4005,-4.4098,-4.4376,-4.5825,-4.6513,-4.6884,-4.8277,-4.8834,-4.8909,-5.6012,-5.6012,-5.6012,-5.6012,-5.6012,-5.6012,-5.6012,-5.6012,-5.6012,-5.6012,-5.6012,-5.6012,-5.6012,-5.6012,-5.6012,-5.6012,-5.6012,-5.6012,-5.6012,-5.6012,-5.6012,-5.6012,-5.5876,-5.5866,-5.6003,-5.5904,-5.5716,-5.5418,-5.5082,-5.4766,-5.4487,-5.4017,-5.372,-5.3553,-5.3553,-5.3441,-5.3292,-5.3292,-5.3292,-5.3292,-5.3292,-5.3292,-5.3292,-5.3292,-5.3292,-5.3292,-5.3292,-5.3292,-5.3181,-5.2549,-5.1806,-5.1119,-5.1119,-5.1008,-5.0729,-5.0042,-4.9837,-4.9707,-4.9076,-4.8909,-4.8909,-4.8909,-4.8779,-4.8649,-4.8649,-4.8017,-4.7441,-4.7441,-4.6791,-4.6234,-4.6234,-4.6085,-4.5751,-4.5119,-4.5008,-4.4785,-4.4098,-4.4005,-4.4005,-4.4005,-4.4005,-4.4005,-4.4005,-4.4005,-4.4005,-4.4005,-4.4005,-4.4005,-4.4005,-4.4005,-4.4005,-4.4005,-4.4005,-4.4005,-4.4005,-4.4005,-4.4005,-4.4005,-4.4005,-4.4005,-4.4005,-4.4005,-4.4005,-4.4005,-4.4005,-4.4005,-4.4005,-4.4005,-4.4766,-4.5937,-4.5658,-4.6717,-4.8351,-4.8054,-4.837,-4.8909,-5.6012,-5.6012,-5.6012,-5.6012,-5.6012,-5.6012,-5.6012,-5.6012,-5.6012,-5.6012,-5.6012,-5.6012,-5.6012,-5.6012,-5.6012,-5.6012,-5.6012,-5.6012,-5.6012,-5.6012,-5.6012,-5.6012,-5.5778,-5.5726,-5.5904,-5.5662,-5.5516,-5.5504,-5.5002,-5.4671,-5.4495,-5.4017,-5.3813,-5.3813,-5.3813,-5.3813,-5.3813,-5.3813,-5.3813,-5.3813,-5.3813,-5.3813,-5.3813,-5.3813,-5.3813,-5.3813,-5.3813,-5.3813,-5.3738,-5.3311,-5.2642,-5.1974,-5.1974,-5.1714,-5.1305,-5.0859,-5.0432,-5.0023,-4.9633,-4.9224,-4.8909,-4.8909,-4.8909,-4.8909,-4.8909,-4.8574,-4.8277,-4.8277,-4.7627,-4.707,-4.707,-4.6754,-4.6364,-4.5937,-4.5862,-4.5714,-4.5249,-4.5194,-4.5045,-4.4674,-4.4618,-4.4451,-4.4042,-4.4005,-4.4005,-4.4005,-4.4005,-4.4005,-4.4005,-4.4005,-4.4005,-4.4005,-4.4005,-4.4005,-4.4005,-4.4005,-4.4005,-4.4005,-4.4005,-4.4005,-4.4005,-4.4005,-4.4005,-4.4005,-4.4005,-4.4005,-4.4005,-4.4005,-4.4525,-4.5305,-4.5287,-4.6067,-4.7218,-4.7571,-4.8203,-4.8909,-5.6012,-5.6012,-5.6012,-5.6012,-5.6012,-5.6012,-5.6012,-5.6012,-5.6012,-5.6012,-5.6012,-5.6012,-5.6012,-5.6012,-5.6012,-5.6012,-5.6012,-5.6012,-5.6012,-5.6012,-5.5995,-5.5977,-5.5673,-5.5573,-5.5745,-5.5351,-5.5255,-5.5456,-5.4909,-5.4572,-5.4373,-5.4018,-5.3832,-5.3813,-5.3813,-5.3813,-5.3813,-5.3813,-5.3813,-5.3813,-5.3813,-5.3813,-5.3813,-5.3813,-5.3813,-5.3813,-5.3813,-5.3813,-5.3813,-5.3813,-5.3367,-5.281,-5.281,-5.2345,-5.1788,-5.1658,-5.1101,-5.0506,-5.0432,-4.9782,-4.9132,-4.9113,-4.9002,-4.8909,-4.8909,-4.8909,-4.8909,-4.8909,-4.837,-4.7906,-4.7906,-4.7367,-4.6865,-4.6735,-4.6717,-4.6661,-4.6513,-4.6494,-4.6252,-4.5565,-4.5509,-4.5212,-4.4506,-4.4432,-4.4432,-4.4432,-4.4302,-4.4283,-4.4413,-4.4302,-4.4228,-4.4228,-4.4228,-4.4153,-4.4005,-4.4005,-4.4005,-4.4005,-4.4005,-4.4005,-4.4005,-4.4005,-4.4005,-4.4005,-4.4005,-4.4005,-4.4005,-4.4005,-4.4098,-4.4283,-4.4841,-4.5249,-4.5677,-4.7163,-4.8203,-4.8909,-5.6012,-5.6012,-5.6012,-5.6012,-5.6012,-5.6012,-5.6012,-5.6012,-5.6012,-5.6012,-5.6012,-5.6012,-5.6012,-5.6012,-5.6012,-5.6012,-5.6012,-5.6012,-5.6012,-5.6012,-5.5959,-5.5827,-5.5618,-5.5516,-5.5539,-5.5149,-5.5042,-5.5236,-5.4976,-5.47,-5.4409,-5.4163,-5.3963,-5.3813,-5.3813,-5.3813,-5.3813,-5.3813,-5.3813,-5.3813,-5.3813,-5.3813,-5.3813,-5.3813,-5.3813,-5.3813,-5.3813,-5.3813,-5.3813,-5.3813,-5.3738,-5.3645,-5.3645,-5.3571,-5.3348,-5.2642,-5.2345,-5.2104,-5.1416,-5.0636,-5.0005,-4.9949,-4.941,-4.8909,-4.8909,-4.8909,-4.8909,-4.8909,-4.8816,-4.8742,-4.8742,-4.8649,-4.8351,-4.7646,-4.7534,-4.7293,-4.6605,-4.6494,-4.6457,-4.6345,-4.6345,-4.629,-4.6178,-4.616,-4.616,-4.616,-4.5509,-4.5435,-4.6122,-4.5491,-4.5119,-4.5119,-4.5119,-4.4748,-4.4005,-4.4005,-4.4005,-4.4005,-4.4005,-4.4005,-4.4005,-4.4005,-4.4005,-4.4005,-4.4005,-4.4005,-4.4005,-4.4005,-4.4432,-4.5064,-4.4413,-4.5064,-4.6438,-4.7367,-4.8203,-4.8909,-5.6012,-5.6012,-5.6012,-5.6012,-5.6012,-5.6012,-5.6012,-5.6012,-5.6012,-5.6012,-5.6012,-5.6012,-5.6012,-5.6012,-5.6012,-5.6012,-5.6012,-5.6012,-5.6012,-5.5932,-5.5866,-5.5797,-5.5504,-5.5395,-5.5504,-5.5113,-5.5,-5.5197,-5.4884,-5.4613,-5.4409,-5.418,-5.4,-5.3813,-5.3813,-5.3813,-5.3813,-5.3813,-5.3813,-5.3813,-5.3813,-5.3813,-5.3813,-5.3813,-5.3813,-5.3813,-5.3813,-5.3813,-5.3813,-5.3813,-5.3813,-5.3813,-5.3813,-5.3813,-5.3738,-5.3367,-5.2958,-5.2512,-5.2178,-5.1138,-5.0135,-5.0116,-4.9837,-4.9447,-4.9002,-4.9262,-4.9447,-4.9002,-4.8909,-4.8909,-4.8909,-4.8909,-4.8779,-4.8426,-4.837,-4.8259,-4.7887,-4.785,-4.7664,-4.7218,-4.6773,-4.6494,-4.6494,-4.6494,-4.6494,-4.6494,-4.616,-4.6122,-4.6475,-4.616,-4.5974,-4.5974,-4.5974,-4.5788,-4.5398,-4.5398,-4.5398,-4.5398,-4.5398,-4.4915,-4.4005,-4.4005,-4.4005,-4.4005,-4.4005,-4.4005,-4.4005,-4.4005,-4.4228,-4.4544,-4.4153,-4.4748,-4.5862,-4.6234,-4.7144,-4.824]},{"header":{"parameterUnit":"m.s-1","parameterCategory":1,"la1":30.6,"la2":28.766,"lo1":-90.7593,"lo2":-88.6598,"dy":0.0162,"dx":0.0183,"nx":116,"ny":114,"refTime":"2024-06-30T18:00:00:Z","depth":0,"parameterNumber":3,"parameterNumberName":"V-component_of_WINDS"},"data":[0.0,0.0,0.0,0.0,0.0,0.0,0.0,0.0,0.0,0.0,0.0,0.0,0.0,0.0,0.0,0.0,0.0,0.0,0.0,0.0,0.0,0.0,0.0,0.0,0.0,0.0,0.0,0.0,0.0,0.0,0.0,0.0,0.0,0.0,0.0,0.0,0.0,0.0,0.0,0.0,0.0,0.0,0.0,0.0,0.0,0.0,0.0,0.0,0.0,0.0,0.0,0.0,0.0,0.0,0.0,0.0,0.0,0.0,0.0,0.0,0.0,0.0,0.0,0.0,0.0,0.0,0.0,0.0,0.0,0.0,0.0,0.0,0.0,0.0,0.0,0.0,0.0,0.0,0.0,0.0,0.0,0.0,0.0,0.0,0.0,0.0,0.0,0.0,0.0,0.0,0.0,0.0,0.0,0.0,0.0,0.0,0.0,0.0,0.0,0.0,0.0,0.0,0.0,0.0,0.0,0.0,0.0,0.0,0.0,0.0,0.0,0.0,0.0,0.0,0.0,0.0,0.0,0.0,0.0,0.0,0.0,0.0,0.0,0.0,0.0,0.0,0.0,0.0,0.0,0.0,0.0,0.0,0.0,0.0,0.0,0.0,0.0,0.0,0.0,0.0,0.0,0.0,0.0,0.0,0.0,0.0,0.0,0.0,0.0,0.0,0.0,0.0,0.0,0.0,0.0,0.0,0.0,0.0,0.0,0.0,0.0,0.0,0.0,0.0,0.0,0.0,0.0,0.0,0.0,0.0,0.0,0.0,0.0,0.0,0.0,0.0,0.0,0.0,0.0,0.0,0.0,0.0,0.0,0.0,0.0,0.0,0.0,0.0,0.0,0.0,0.0,0.0,0.0,0.0,0.0,0.0,0.0,0.0,0.0,0.0,0.0,0.0,0.0,0.0,0.0,0.0,0.0,0.0,0.0,0.0,0.0,0.0,0.0,0.0,0.0,0.0,0.0,0.0,0.0,0.0,0.0,0.0,0.0,0.0,0.0,0.0,0.0,0.0,0.0,0.0,0.0,0.0,0.0,0.0,0.0,0.0,0.0,0.0,0.0,0.0,0.0,0.0,0.0,0.0,0.0,0.0,0.0,0.0,0.0,0.0,0.0,0.0,0.0,0.0,0.0,0.0,0.0,0.0,0.0,0.0,0.0,0.0,0.0,0.0,0.0,0.0,0.0,0.0,0.0,0.0,0.0,0.0,0.0,0.0,0.0,0.0,0.0,0.0,0.0,0.0,0.0,0.0,0.0,0.0,0.0,0.0,0.0,0.0,0.0,0.0,0.0,0.0,0.0,0.0,0.0,0.0,0.0,0.0,0.0,0.0,0.0,0.0,0.0,0.0,0.0,0.0,0.0,0.0,0.0,0.0,0.0,0.0,0.0,0.0,0.0,0.0,0.0,0.0,0.0,0.0,0.0,0.0,0.0,0.0,0.0,0.0,0.0,0.0,0.0,0.0,0.0,0.0,0.0,0.0,0.0,0.0,0.0,0.0,0.0,0.0,0.0,0.0,0.0,0.0,0.0,0.0,0.0,0.0,0.0,0.0,0.0,0.0,0.0,0.0,0.0,0.0,0.0,0.0,0.0,0.0,0.0,0.0,0.0,0.0,0.0,0.0,0.0,0.0,0.0,0.0,0.0,0.0,0.0,0.0,0.0,0.0,0.0,0.0,0.0,0.0,0.0,0.0,0.0,0.0,0.0,0.0,0.0,0.0,0.0,0.0,0.0,0.0,0.0,0.0,0.0,0.0,0.0,0.0,0.0,0.0,0.0,0.0,0.0,0.0,0.0,0.0,0.0,0.0,0.0,0.0,0.0,0.0,0.0,0.0,0.0,0.0,0.0,0.0,0.0,0.0,0.0,0.0,0.0,0.0,0.0,0.0,0.0,0.0,0.0,0.0,0.0,0.0,0.0,0.0,0.0,0.0,0.0,0.0,0.0,0.0,0.0,0.0,0.0,0.0,0.0,0.0,0.0,0.0,0.0,0.0,0.0,0.0,0.0,0.0,0.0,0.0,0.0,0.0,0.0,0.0,0.0,0.0,0.0,0.0,0.0,0.0,0.0,0.0,0.0,0.0,0.0,0.0,0.0,0.0,0.0,0.0,0.0,0.0,0.0,0.0,0.0,0.0,0.0,0.0,0.0,0.0,0.0,0.0,0.0,0.0,0.0,0.0,0.0,0.0,0.0,0.0,0.0,0.0,0.0,0.0,0.0,0.0,0.0,0.0,0.0,0.0,0.0,0.0,0.0,0.0,0.0,0.0,0.0,0.0,0.0,0.0,0.0,0.0,0.0,0.0,0.0,0.0,0.0,0.0,0.0,0.0,0.0,0.0,0.0,0.0,0.0,0.0,0.0,0.0,0.0,0.0,0.0,0.0,0.0,0.0,0.0,0.0,0.0,0.0,0.0,0.0,0.0,0.0,0.0,0.0,0.0,0.0,0.0,0.0,0.0,0.0,0.0,0.0,0.0,0.0,0.0,0.0,0.0,0.0,0.0,0.0,0.0,0.0,0.0,0.0,0.0,0.0,0.0,0.0,0.0,0.0,0.0,0.0,0.0,0.0,0.0,0.0,0.0,0.0,0.0,0.0,0.0,0.0,0.0,0.0,0.0,0.0,0.0,0.0,0.0,0.0,0.0,0.0,0.0,0.0,0.0,0.0,0.0,0.0,0.0,0.0,0.0,0.0,0.0,0.0,0.0,0.0,0.0,0.0,0.0,0.0,0.0,0.0,0.0,0.0,0.0,0.0,0.0,0.0,0.0,0.0,0.0,0.0,0.0,0.0,0.0,0.0,0.0,0.0,0.0,0.0,0.0,0.0,0.0,0.0,0.0,0.0,0.0,0.0,0.0,0.0,0.0,0.0,0.0,0.0,0.0,0.0,0.0,0.0,0.0,0.0,0.0,0.0,0.0,0.0,0.0,0.0,0.0,0.0,0.0,0.0,0.0,0.0,0.0,0.0,0.0,0.0,0.0,0.0,0.0,0.0,0.0,0.0,0.0,0.0,0.0,0.0,0.0,0.0,0.0,0.0,0.0,0.0,0.0,0.0,0.0,0.0,0.0,0.0,0.0,0.0,0.0,0.0,0.0,0.0,0.0,0.0,0.0,0.0,0.0,0.0,0.0,0.0,0.0,0.0,0.0,0.0,0.0,0.0,0.0,0.0,0.0,0.0,0.0,0.0,0.0,0.0,0.0,0.0,0.0,0.0,0.0,0.0,0.0,0.0,0.0,0.0,0.0,0.0,0.0,0.0,0.0,0.0,0.0,0.0,0.0,0.0,0.0,0.0,0.0,0.0,0.0,0.0,0.0,0.0,0.0,0.0,0.0,0.0,0.0,0.0,0.0,0.0,0.0,0.0,0.0,0.0,0.0,0.0,0.0,0.0,0.0,0.0,0.0,0.0,0.0,0.0,0.0,0.0,0.0,0.0,0.0,0.0,0.0,0.0,0.0,0.0,0.0,0.0,0.0,0.0,0.0,0.0,0.0,0.0,0.0,0.0,0.0,0.0,0.0,0.0,0.0,0.0,0.0,0.0,0.0,0.0,0.0,0.0,0.0,0.0,0.0,0.0,0.0,0.0,0.0,0.0,0.0,0.0,0.0,0.0,0.0,0.0,0.0,0.0,0.0,0.0,0.0,0.0,0.0,0.0,0.0,0.0,0.0,0.0,0.0,0.0,0.0,0.0,0.0,0.0,0.0,0.0,0.0,0.0,0.0,0.0,0.0,0.0,0.0,0.0,0.0,0.0,0.0,0.0,0.0,0.0,0.0,0.0,0.0,0.0,0.0,0.0,0.0,0.0,0.0,0.0,0.0,0.0,0.0,0.0,0.0,0.0,0.0,0.0,0.0,0.0,0.0,0.0,0.0,0.0,0.0,0.0,0.0,0.0,0.0,0.0,0.0,0.0,0.0,0.0,0.0,0.0,0.0,0.0,0.0,0.0,0.0,0.0,0.0,0.0,0.0,0.0,0.0,0.0,0.0,0.0,0.0,0.0,0.0,0.0,0.0,0.0,0.0,0.0,0.0,0.0,0.0,0.0,0.0,0.0,0.0,0.0,0.0,0.0,0.0,0.0,0.0,0.0,0.0,0.0,0.0,0.0,0.0,0.0,0.0,0.0,0.0,0.0,0.0,0.0,0.0,0.0,0.0,0.0,0.0,0.0,0.0,0.0,0.0,0.0,0.0,0.0,0.0,0.0,0.0,0.0,0.0,0.0,0.0,0.0,0.0,0.0,0.0,0.0,0.0,0.0,0.0,0.0,0.0,0.0,0.0,0.0,0.0,0.0,0.0,0.0,0.0,0.0,0.0,0.0,0.0,0.0,0.0,0.0,0.0,0.0,0.0,0.0,0.0,0.0,0.0,0.0,0.0,0.0,0.0,0.0,0.0,0.0,0.0,0.0,0.0,0.0,0.0,0.0,0.0,0.0,0.0,0.0,0.0,0.0,0.0,0.0,0.0,0.0,0.0,0.0,0.0,0.0,0.0,0.0,0.0,0.0,0.0,0.0,0.0,0.0,0.0,0.0,0.0,0.0,0.0,0.0,0.0,0.0,0.0,0.0,0.0,0.0,0.0,0.0,0.0,0.0,0.0,0.0,0.0,0.0,0.0,0.0,0.0,0.0,0.0,0.0,0.0,0.0,0.0,0.0,0.0,0.0,0.0,0.0,0.0,0.0,0.0,0.0,0.0,0.0,0.0,0.0,0.0,0.0,0.0,0.0,0.0,0.0,0.0,0.0,0.0,0.0,0.0,0.0,0.0,0.0,0.0,0.0,0.0,0.0,0.0,0.0,0.0,0.0,0.0,0.0,0.0,0.0,0.0,0.0,0.0,0.0,0.0,0.0,0.0,0.0,0.0,0.0,0.0,0.0,0.0,0.0,0.0,0.0,0.0,0.0,0.0,0.0,0.0,0.0,0.0,0.0,0.0,0.0,0.0,0.0,0.0,0.0,0.0,0.0,0.0,0.0,0.0,0.0,0.0,0.0,0.0,0.0,0.0,0.0,0.0,0.0,0.0,0.0,0.0,0.0,0.0,0.0,0.0,0.0,0.0,0.0,0.0,0.0,0.0,0.0,0.0,0.0,0.0,0.0,0.0,0.0,0.0,0.0,0.0,0.0,0.0,0.0,0.0,0.0,0.0,0.0,0.0,0.0,0.0,0.0,0.0,0.0,0.0,0.0,0.0,0.0,0.0,0.0,0.0,0.0,0.0,0.0,0.0,0.0,0.0,0.0,0.0,0.0,0.0,0.0,0.0,0.0,0.0,0.0,0.0,0.0,0.0,0.0,0.0,0.0,0.0,0.0,0.0,0.0,0.0,0.0,0.0,0.0,0.0,0.0,0.0,0.0,0.0,0.0,0.0,0.0,0.0,0.0,0.0,0.0,0.0,0.0,0.0,0.0,0.0,0.0,0.0,0.0,0.0,0.0,0.0,0.0,0.0,0.0,0.0,0.0,0.0,0.0,0.0,0.0,0.0,0.0,0.0,0.0,0.0,0.0,0.0,0.0,0.0,0.0,0.0,0.0,0.0,0.0,0.0,0.0,0.0,0.0,0.0,0.0,0.0,0.0,0.0,0.0,0.0,0.0,0.0,0.0,0.0,0.0,0.0,0.0,0.0,0.0,0.0,0.0,0.0,0.0,0.0,0.0,0.0,0.0,0.0,0.0,0.0,0.0,0.0,0.0,0.0,0.0,0.0,0.0,0.0,0.0,0.0,0.0,0.0,0.0,0.0,0.0,0.0,0.0,0.0,0.0,0.0,0.0,0.0,0.0,0.0,0.0,0.0,0.0,0.0,0.0,0.0,0.0,0.0,0.0,0.0,0.0,0.0,0.0,0.0,0.0,0.0,0.0,0.0,0.0,0.0,0.0,0.0,0.0,0.0,0.0,0.0,0.0,0.0,0.0,0.0,0.0,0.0,0.0,0.0,0.0,0.0,0.0,0.0,0.0,0.0,0.0,0.0,0.0,0.0,0.0,0.0,0.0,0.0,0.0,0.0,0.0,0.0,0.0,0.0,0.0,0.0,0.0,0.0,0.0,0.0,0.0,0.0,0.0,0.0,0.0,0.0,0.0,0.0,0.0,0.0,0.0,0.0,0.0,1.1561,1.1073,0.0,0.0,0.0,0.0,0.0,0.0,0.0,0.0,0.0,0.0,0.0,0.0,0.0,0.0,0.0,0.0,0.0,0.0,0.0,0.0,0.0,0.0,0.0,0.3111,0.3046,0.3277,0.2971,0.2843,0.3041,0.0,0.0,0.0,0.0,0.0,0.2506,0.2506,0.2567,0.269,0.2765,0.2878,0.3054,0.3304,0.3437,0.3457,0.0,0.0,0.0,0.0,0.0,0.0,0.0,0.0,0.0,0.0,0.0,0.0,0.0,0.0,0.0,0.0,0.0,0.0,0.0,0.0,0.0,0.0,0.0,0.0,0.0,0.0,0.0,0.0,0.0,0.0,0.0,0.0,0.0,0.0,0.0,0.0,0.0,0.0,0.0,0.0,0.0,0.0,0.0,0.0,0.0,0.0,0.0,0.0,0.0,0.0,0.0,0.0,0.0,0.0,0.0,0.0,0.0,0.0,0.0,0.0,0.0,0.0,0.0,0.0,0.0,0.0,0.0,0.0,0.0,0.0,1.3195,1.28,0.0,0.0,0.0,0.0,0.0,0.0,0.0,0.0,0.0,0.0,0.0,0.0,0.0,0.0,0.0,0.0,0.0,0.0,0.0,0.0,0.0,0.2897,0.3322,0.3105,0.3045,0.3314,0.2865,0.263,0.2775,0.2422,0.0,0.0,0.0,0.2414,0.2381,0.2406,0.2527,0.2777,0.288,0.3083,0.3403,0.3805,0.3969,0.3912,0.4364,0.0,0.0,0.0,0.0,0.0,0.0,0.0,0.0,0.0,0.0,0.0,0.0,0.0,0.0,0.0,0.0,0.0,0.0,0.0,0.0,0.0,0.0,0.0,0.0,0.0,0.0,0.0,0.0,0.0,0.0,0.0,0.0,0.0,0.0,0.0,0.0,0.0,0.0,0.0,0.0,0.0,0.0,0.0,0.0,0.0,0.0,0.0,0.0,0.0,0.0,0.0,0.0,0.0,0.0,0.0,0.0,0.0,0.0,0.0,0.0,0.0,0.0,0.0,1.3132,1.3324,1.3464,1.3464,1.4135,1.5215,1.4719,1.4687,1.4898,1.3905,0.0,0.0,0.0,0.0,0.0,0.0,0.0,0.0,0.0,0.0,0.0,0.0,0.0,0.0,0.0,0.0,0.0,0.0,0.0,0.3073,0.3589,0.3305,0.3183,0.3453,0.3095,0.2806,0.2723,0.2649,0.0,0.0,0.215,0.2073,0.1894,0.2007,0.2139,0.229,0.2819,0.3292,0.3745,0.4199,0.4353,0.426,0.466,0.4799,0.4736,0.0,0.0,0.0,0.0,0.0,0.0,0.0,0.0,0.0,0.0,0.0,0.0,0.0,0.0,0.0,0.0,0.0,0.0,0.0,0.0,0.0,0.0,0.0,0.0,0.0,0.0,0.0,0.0,0.0,0.0,0.0,0.0,0.0,0.0,0.0,0.0,0.0,0.0,0.0,0.0,0.0,0.744,0.82,0.0,0.0,0.0,0.0,0.0,0.0,0.0,0.0,0.0,0.0,0.0,0.0,0.0,1.2192,1.297,1.3023,1.3459,1.4334,1.4068,1.4295,1.494,1.494,1.5408,1.6204,1.6142,0.0,1.607,1.5673,0.0,0.0,0.0,0.0,0.0,0.0,0.0,0.0,0.0,0.0,0.0,0.0,0.0,0.0,0.0,0.0,0.0,0.0,0.0,0.0,0.0,0.3137,0.3079,0.3313,0.3209,0.3016,0.2768,0.2655,0.2429,0.2058,0.2047,0.2,0.1909,0.2153,0.2471,0.288,0.3441,0.3832,0.4024,0.4361,0.4477,0.4441,0.4909,0.4892,0.4503,0.4434,0.0,0.0,0.0,0.0,0.0,0.0,0.0,0.0,0.0,0.0,0.0,0.0,0.0,0.0,0.0,0.0,0.0,0.0,0.0,0.0,0.0,0.0,0.0,0.0,0.0,0.0,0.0,0.0,0.0,0.0,0.0,0.0,0.0,0.0,0.0,0.0,0.0,0.0,0.0,0.6979,0.7883,0.8372,0.8707,0.8672,0.0,0.0,0.0,0.0,0.0,0.0,0.0,0.0,0.0,1.2083,1.2557,1.3178,1.3986,1.3939,1.4296,1.5046,1.4889,1.4994,1.5297,1.5297,1.5675,1.6322,1.6322,1.6609,1.6963,1.6268,1.5526,1.4903,0.0,0.0,0.0,0.0,1.4936,1.4934,0.0,0.0,0.0,0.0,0.0,0.0,0.0,0.0,0.0,0.0,0.0,0.0,0.3099,0.3059,0.3105,0.336,0.3335,0.3194,0.0,0.0,0.2424,0.2133,0.2073,0.2073,0.2123,0.2505,0.2976,0.3546,0.3984,0.4214,0.4277,0.444,0.4491,0.4519,0.4928,0.4864,0.4484,0.4396,0.4292,0.0,0.0,0.0,0.0,0.0,0.0,0.0,0.0,0.0,0.0,0.0,0.0,0.0,0.0,0.0,0.0,0.0,0.0,0.0,0.0,0.0,0.0,0.0,0.0,0.0,0.0,0.0,0.0,0.0,0.0,0.0,0.0,0.0,0.0,0.0,0.0,0.0,0.0,0.7558,0.8388,0.8679,0.9192,0.9232,0.0,0.0,0.0,0.0,0.0,0.0,1.0923,1.165,1.2406,1.3218,1.3672,1.4232,1.4963,1.5044,1.5297,1.5732,1.5732,1.5732,1.5732,1.5732,1.5978,1.6394,1.6394,1.6752,1.7288,1.6549,1.6063,1.5813,1.5844,1.587,1.5936,1.6321,1.6254,1.6122,0.0,0.0,0.0,0.0,0.0,0.0,0.0,0.0,0.0,0.0,0.0,0.3104,0.3273,0.0,0.3431,0.3826,0.3587,0.33,0.0,0.0,0.263,0.248,0.2299,0.2275,0.2473,0.2986,0.3484,0.396,0.4136,0.4291,0.4481,0.4487,0.4491,0.4491,0.4515,0.4792,0.5242,0.5303,0.5107,0.473,0.0,0.0,0.0,0.0,0.0,0.0,0.0,0.0,0.0,0.0,0.0,0.0,0.0,0.0,0.0,0.0,0.0,0.0,0.0,0.0,0.0,0.0,0.0,0.0,0.0,0.0,0.0,0.0,0.0,0.0,0.0,0.0,0.0,0.0,0.0,0.0,0.0,0.0,0.0,0.9519,1.0009,0.0,0.0,0.0,0.0,0.985,1.0883,1.1639,1.1923,1.2763,1.3606,1.4487,1.5094,1.5627,1.6179,1.646,1.6613,1.664,1.664,1.664,1.664,1.664,1.6633,1.6663,1.6663,1.6713,1.6747,1.6876,1.6713,1.6327,1.5959,1.5576,1.5296,1.5709,1.5921,1.6063,0.0,0.0,0.0,0.2886,0.2589,0.2357,0.2287,0.2276,0.2335,0.2479,0.2666,0.2861,0.0,0.3224,0.3453,0.3809,0.3724,0.3559,0.3302,0.0,0.2725,0.2636,0.2472,0.2656,0.3187,0.3555,0.3927,0.4331,0.4457,0.4609,0.4755,0.4755,0.4755,0.4755,0.4755,0.4873,0.502,0.4732,0.4621,0.4572,0.409,0.394,0.0,0.0,0.0,0.0,0.0,0.0,0.0,0.0,0.0,0.0,0.0,0.0,0.0,0.0,0.0,0.0,0.0,0.0,0.0,0.0,0.0,0.0,0.0,0.0,0.0,0.0,0.0,0.0,0.0,0.0,0.0,0.0,0.0,0.0,0.0,0.0,0.0,1.0104,1.0877,0.0,1.074,1.1302,1.169,1.1652,1.2159,1.2754,1.3374,1.3755,1.43,1.5135,1.5398,1.5649,1.6056,1.616,1.6245,1.6426,1.6426,1.6528,1.6688,1.6688,1.6685,1.6707,1.6707,1.6707,1.6717,1.68,1.6951,1.7198,1.7216,1.7138,1.6978,1.6961,1.673,1.6547,0.3468,0.3249,0.0,0.2708,0.2389,0.215,0.2102,0.2102,0.2185,0.2437,0.2577,0.277,0.3008,0.3289,0.3574,0.3845,0.3816,0.3712,0.3486,0.0,0.2848,0.2808,0.2763,0.3028,0.3645,0.3942,0.4211,0.4527,0.4688,0.4819,0.4887,0.4887,0.4887,0.4887,0.4887,0.4887,0.487,0.4574,0.4462,0.447,0.4182,0.4109,0.4149,0.0,0.0,0.0,0.0,0.0,0.0,0.0,0.0,0.0,0.0,0.0,0.0,0.0,0.0,0.0,0.0,0.0,0.0,0.0,0.0,0.0,0.0,0.0,0.0,0.0,0.0,0.0,0.0,0.0,0.0,0.0,0.0,0.0,0.0,0.0,1.0511,1.075,1.1632,1.2095,1.1668,1.2252,1.2725,1.2869,1.323,1.3713,1.4337,1.4473,1.4924,1.5623,1.5636,1.5788,1.6183,1.6183,1.6278,1.6456,1.6456,1.6567,1.6886,1.6886,1.6937,1.7001,1.7001,1.7001,1.7001,1.7001,1.7234,1.7626,1.756,1.7584,1.7554,1.7346,1.7035,1.6788,0.3398,0.3169,0.2912,0.2638,0.2309,0.2091,0.2102,0.2102,0.2166,0.238,0.2643,0.2884,0.308,0.3527,0.3845,0.3981,0.3872,0.3742,0.3596,0.3222,0.2986,0.2995,0.3147,0.3401,0.3796,0.4072,0.4336,0.4613,0.4803,0.4897,0.4904,0.4904,0.4904,0.4904,0.4904,0.4904,0.4904,0.4904,0.4758,0.4525,0.4703,0.4449,0.3975,0.0,0.0,0.0,0.0,0.0,0.0,0.0,0.0,0.0,0.0,0.0,0.0,0.0,0.0,0.0,0.0,0.0,0.0,0.0,0.0,0.0,0.0,0.0,0.0,0.0,0.0,0.0,0.0,0.0,0.0,0.0,0.0,0.0,0.9377,1.0484,1.1382,1.1546,1.227,1.2644,1.2397,1.2856,1.3239,1.3544,1.4039,1.4443,1.4727,1.498,1.5348,1.5875,1.5881,1.6162,1.6677,1.6677,1.6677,1.6677,1.6677,1.6842,1.7179,1.7179,1.7331,1.7582,1.7582,1.7582,1.7582,1.7582,1.7582,1.7522,1.6947,1.672,1.6714,1.6707,1.6707,1.6667,0.3217,0.2971,0.2686,0.2367,0.2073,0.1931,0.208,0.2102,0.2166,0.238,0.2725,0.3042,0.3299,0.3595,0.3883,0.4069,0.3726,0.3479,0.3387,0.3014,0.285,0.299,0.3399,0.3735,0.3937,0.4124,0.4394,0.4826,0.486,0.5039,0.5272,0.5272,0.5272,0.5272,0.5272,0.5272,0.5272,0.5272,0.5125,0.4914,0.4685,0.4576,0.454,0.0,0.0,0.0,0.0,0.0,0.0,0.0,0.0,0.0,0.0,0.0,0.0,0.0,0.0,0.0,0.0,0.0,0.0,0.0,0.0,0.0,0.0,0.0,0.0,0.0,0.0,0.0,0.0,0.0,0.0,0.0,1.0341,1.0912,1.0912,1.1554,1.2161,1.2632,1.3212,1.3622,1.3743,1.4069,1.4389,1.4648,1.4805,1.5004,1.527,1.5354,1.5563,1.5883,1.5889,1.5978,1.6099,1.6099,1.6099,1.6099,1.6099,1.6264,1.6537,1.6743,1.7008,1.7331,1.7536,1.7582,1.7582,1.7582,1.7582,1.7549,1.7226,1.7079,1.7052,1.6787,1.6707,1.6693,0.3121,0.2859,0.2589,0.2226,0.1957,0.1869,0.2069,0.2026,0.2096,0.2443,0.271,0.299,0.332,0.3579,0.3766,0.3881,0.3591,0.3344,0.3195,0.2959,0.2921,0.3161,0.3521,0.3801,0.3946,0.4213,0.4528,0.4844,0.5039,0.5212,0.5395,0.5395,0.5395,0.5395,0.5395,0.5395,0.5395,0.5395,0.5344,0.5199,0.4874,0.4797,0.482,0.4732,0.465,0.4652,0.4947,0.5113,0.5235,0.5482,0.0,0.0,0.0,0.0,0.0,0.0,0.0,0.0,0.0,0.0,0.0,0.0,0.0,0.0,0.0,0.0,0.0,0.0,0.0,0.0,0.0,0.0,0.0,0.0,1.1415,1.1976,1.2421,1.2693,1.2976,1.3399,1.3924,1.4304,1.4461,1.4721,1.4992,1.5252,1.527,1.5384,1.565,1.5662,1.5734,1.5885,1.5891,1.5891,1.5891,1.5891,1.5891,1.5891,1.5891,1.6051,1.6324,1.6477,1.669,1.7008,1.716,1.7318,1.7444,1.7563,1.7589,1.7562,0.0,0.0,0.0,0.0,1.6994,1.6894,0.303,0.2826,0.2567,0.2135,0.192,0.1858,0.204,0.1909,0.1983,0.2492,0.0,0.2825,0.3236,0.3445,0.3552,0.3544,0.3445,0.3287,0.0,0.3035,0.3164,0.3411,0.3536,0.3713,0.3919,0.4345,0.4625,0.4797,0.5163,0.5362,0.5395,0.5395,0.5395,0.5395,0.5412,0.5423,0.5423,0.5423,0.5423,0.5405,0.522,0.5039,0.4941,0.5112,0.5159,0.5152,0.508,0.5415,0.5833,0.5653,0.0,0.0,0.0,0.0,0.0,0.0,0.0,0.0,0.0,0.0,0.0,0.0,0.0,0.0,0.0,0.0,0.0,0.0,0.0,0.0,0.0,0.0,0.0,0.0,1.2282,1.2831,1.3809,1.3779,1.3737,1.3972,1.4425,1.4739,1.4799,1.5016,1.5264,1.5523,1.5547,1.5644,1.5879,0.0,0.0,0.0,0.0,1.5891,1.5891,1.5891,1.5891,1.5891,1.5891,1.5998,1.6271,1.6271,1.6424,1.6677,1.6677,1.6895,1.7199,1.7447,1.7575,1.7629,1.7595,1.7582,1.7582,1.7582,1.7474,1.7253,0.2859,0.2729,0.2524,0.1957,0.1825,0.1814,0.1858,0.1825,0.1916,0.2239,0.2432,0.2699,0.3094,0.318,0.3212,0.3285,0.3254,0.3225,0.0,0.0,0.3398,0.3542,0.3687,0.3865,0.4046,0.4136,0.4402,0.4797,0.4864,0.5096,0.5395,0.5395,0.5395,0.5399,0.5525,0.5545,0.5545,0.5545,0.5545,0.5532,0.5412,0.0,0.5039,0.4988,0.4953,0.501,0.5353,0.5567,0.5703,0.5959,0.5822,0.551,0.551,0.0,0.0,0.0,0.0,0.0,0.0,0.0,0.0,0.0,0.0,0.0,0.0,0.0,0.0,0.0,0.0,0.0,0.0,0.0,0.0,1.2433,1.3139,1.3743,1.4165,1.437,1.4503,1.4558,1.4654,1.4883,1.5306,1.5396,1.5529,1.5795,1.5813,1.5837,1.5885,1.5891,1.5891,1.5891,1.5891,1.5891,1.5891,1.5891,1.5891,1.5891,1.5891,0.0,1.5998,1.6217,1.6324,1.6377,1.663,1.6895,1.7179,1.7238,1.7529,1.7876,1.7675,1.7582,1.7582,1.7582,1.7549,1.7502,0.281,0.2697,0.2513,0.1902,0.1803,0.1803,0.1803,0.1803,0.1877,0.2067,0.2331,0.2599,0.2866,0.293,0.2963,0.2989,0.3025,0.0,0.0,0.3333,0.3482,0.3685,0.3807,0.3991,0.4239,0.4368,0.4629,0.496,0.506,0.5196,0.5395,0.5395,0.5436,0.5515,0.5555,0.563,0.5694,0.5694,0.0,0.0,0.0,0.0,0.523,0.5049,0.4992,0.5037,0.5187,0.5397,0.5624,0.5841,0.5864,0.5798,0.5798,0.5515,0.5207,0.0,0.0,0.0,0.0,0.0,0.0,0.0,0.0,0.0,0.0,0.0,0.0,0.0,0.0,1.0454,1.099,0.0,1.253,1.32,1.3755,1.4195,1.4467,1.4739,1.4865,1.4733,1.495,1.5215,1.5475,1.5614,1.5753,1.5879,1.5891,1.5891,1.5891,1.5891,1.5891,1.5891,1.5891,1.5891,1.5891,1.5891,1.5891,1.5891,1.5891,1.5891,1.5891,1.6051,1.6105,1.6111,1.6258,1.6477,1.6749,1.7073,1.7595,1.8237,1.7936,1.7816,1.7796,1.7642,1.7582,1.7582,0.281,0.2697,0.2513,0.1902,0.1803,0.1803,0.1803,0.1803,0.1846,0.1979,0.2232,0.2455,0.2594,0.2655,0.2713,0.0,0.0,0.0,0.0,0.3432,0.3623,0.3828,0.3938,0.4128,0.4399,0.467,0.4894,0.5087,0.5259,0.5362,0.5395,0.5395,0.5477,0.5593,0.5616,0.0,0.0,0.0,0.0,0.0,0.0,0.0,0.5382,0.5223,0.5143,0.5123,0.4951,0.5135,0.5449,0.5412,0.5598,0.5882,0.5882,0.5721,0.5505,0.5341,0.5485,0.0,0.0,0.0,0.0,0.0,0.0,0.0,0.0,0.0,0.9727,1.0322,1.0984,1.1703,1.2355,1.2771,1.3224,1.3876,1.425,1.4533,1.4763,1.5022,1.5107,1.4896,1.524,1.5517,1.5572,1.5765,1.5891,1.5891,1.5891,1.5891,1.5891,1.5891,1.5891,1.5891,1.5891,1.5891,1.5891,1.5891,1.5891,1.5891,1.5891,1.5891,1.5891,1.5891,1.5891,1.5891,1.5945,1.6105,1.643,1.7019,1.7787,1.847,1.8175,1.8115,1.8115,1.7809,1.7669,1.7662,0.281,0.2697,0.2513,0.1902,0.1803,0.1803,0.1803,0.1803,0.1846,0.1979,0.2038,0.2103,0.2241,0.2259,0.2388,0.0,0.0,0.0,0.0,0.3779,0.3949,0.3964,0.4222,0.4356,0.4385,0.4656,0.4894,0.5087,0.512,0.5223,0.5395,0.5395,0.0,0.0,0.0,0.0,0.0,0.0,0.0,0.0,0.0,0.0,0.5392,0.5375,0.5368,0.5334,0.502,0.4938,0.4943,0.4692,0.4643,0.468,0.468,0.467,0.4678,0.4887,0.0,0.5117,0.5606,0.6067,0.6543,0.7078,0.7741,0.8627,0.0,0.0,1.1441,1.224,1.2662,1.2885,1.2975,1.3628,1.4147,1.4238,1.4684,1.5028,1.5059,1.5288,1.5445,1.5415,1.5463,1.559,1.5825,1.5873,1.5891,1.5891,1.5891,1.5891,1.5891,1.5891,1.5891,1.5891,1.5891,1.5891,1.5891,1.5891,1.5891,1.5891,1.5891,1.5891,1.5891,1.5891,1.5891,1.5891,1.6164,1.6424,1.6702,1.7333,1.791,1.849,1.8457,1.8597,1.8701,1.8149,1.7942,1.7902,0.281,0.2697,0.2524,0.196,0.1828,0.1803,0.1803,0.1803,0.1815,0.188,0.1957,0.2022,0.207,0.2192,0.2294,0.2401,0.287,0.3216,0.3362,0.3681,0.3962,0.4106,0.4308,0.4479,0.4702,0.4883,0.506,0.5292,0.5292,0.5326,0.0,0.0,0.0,0.0,0.0,0.0,0.0,0.0,0.0,0.0,0.0,0.0,0.5385,0.526,0.5226,0.5209,0.5056,0.4901,0.0,0.0,0.4563,0.4491,0.4491,0.4491,0.4532,0.4629,0.5013,0.0,0.676,0.0,0.0,0.0,0.8106,0.8956,0.996,1.0798,1.1682,1.2911,1.3393,1.3628,1.3779,1.4208,1.4539,0.0,1.4986,1.5336,1.5336,1.5433,1.5499,1.5499,1.5499,1.5602,1.5861,1.5891,1.5891,1.5891,1.5891,1.5891,1.5891,1.5891,1.5891,1.5891,1.5891,1.5891,1.5891,1.5891,1.5891,1.5891,1.5891,1.5891,1.5891,1.5891,1.5891,1.5891,1.5998,1.6211,1.6483,1.6917,1.7404,1.8024,1.8362,1.8664,1.8871,1.8457,1.8196,1.7975,0.2832,0.2713,0.2535,0.2015,0.1861,0.1803,0.1803,0.1803,0.1803,0.1803,0.1891,0.1947,0.1947,0.2136,0.2253,0.2205,0.2739,0.314,0.3303,0.3688,0.3984,0.4193,0.439,0.0,0.4854,0.5002,0.5183,0.5395,0.0,0.0,0.0,0.0,0.0,0.0,0.0,0.0,0.0,0.0,0.0,0.0,0.0,0.0,0.5284,0.514,0.5049,0.4978,0.4978,0.487,0.0,0.0,0.4521,0.4484,0.4443,0.4457,0.4505,0.4593,0.5154,0.597,0.6937,0.0,0.0,0.7347,0.818,0.9043,0.9513,1.0612,1.177,1.2704,1.3502,1.3974,1.3872,1.4326,1.4739,1.4811,1.5203,1.5523,1.5596,1.5547,1.5499,1.5499,1.5499,1.5572,1.5765,1.5849,1.5891,1.5891,1.5891,1.5891,1.5891,1.5891,1.5891,1.5891,1.6036,1.6115,1.6115,1.626,1.6326,1.6326,1.6326,1.6326,1.6326,1.6181,1.603,1.5891,1.5891,1.6051,1.6324,1.653,1.6961,1.7514,1.8039,1.8496,1.8791,1.8658,1.8488,1.8209,0.2891,0.2745,0.2551,0.2074,0.1883,0.1803,0.1803,0.1803,0.1803,0.1803,0.1806,0.1809,0.1809,0.2049,0.2204,0.2204,0.2873,0.3376,0.3568,0.3953,0.4187,0.4187,0.4502,0.4706,0.4698,0.4966,0.5209,0.0,0.0,0.0,0.0,0.0,0.0,0.0,0.0,0.0,0.0,0.0,0.0,0.0,0.0,0.0,0.5106,0.51,0.4952,0.4704,0.4704,0.0,0.0,0.0,0.4351,0.4464,0.4271,0.4351,0.0,0.4819,0.522,0.0,0.0,0.0,0.6532,0.6692,0.7793,0.8914,0.9317,1.0872,1.2083,1.14,1.2866,1.3992,1.2926,1.3831,1.4805,1.5059,1.5324,1.559,1.5843,1.5656,1.5499,1.5499,1.5499,1.5499,0.0,1.5741,1.5891,1.5891,1.5891,1.5891,1.5891,1.5891,1.5891,1.5891,1.6404,1.6676,1.6676,1.7177,1.7436,1.7436,1.7436,1.7436,1.7418,1.6911,1.6386,1.5891,1.5891,1.6051,1.6324,1.6324,1.6693,1.7236,1.7536,1.7985,1.8547,1.8815,1.8909,1.8811,0.3117,0.2864,0.2605,0.2315,0.2048,0.1861,0.1861,0.1828,0.1803,0.1803,0.192,0.0,0.0,0.0,0.0,0.0,0.2635,0.3044,0.337,0.3724,0.4007,0.4184,0.453,0.4714,0.4706,0.4884,0.4985,0.0,0.0,0.0,0.0,0.0,0.0,0.0,0.0,0.0,0.0,0.0,0.0,0.0,0.0,0.0,0.5076,0.4911,0.4714,0.4556,0.0,0.0,0.0,0.0,0.0,0.0,0.4375,0.0,0.0,0.5095,0.0,0.0,0.0,0.0,0.6976,0.7234,0.771,0.8372,0.9316,1.0051,1.0652,1.1107,1.1636,1.1966,1.1632,1.2651,1.3586,1.3885,1.4789,1.559,1.5855,1.5662,1.5499,1.5499,1.5499,0.0,0.0,0.0,0.0,1.5891,1.5891,1.5891,1.5891,1.6054,1.6235,1.6423,1.6773,1.7044,1.7219,1.7394,1.7485,1.7485,1.7485,1.7485,1.7473,1.7123,1.6863,1.6664,1.6308,1.6205,1.6301,1.6291,1.6433,1.6646,1.714,1.7469,1.7695,1.8209,1.8367,1.8381,0.324,0.2929,0.2637,0.2431,0.214,0.0,0.0,0.0,0.0,0.0,0.0,0.0,0.0,0.0,0.0,0.0,0.0,0.2929,0.3206,0.3477,0.375,0.4051,0.4219,0.4368,0.4531,0.4547,0.4648,0.0,0.0,0.0,0.0,0.0,0.0,0.0,0.0,0.0,0.0,0.0,0.0,0.0,0.0,0.0,0.487,0.468,0.4511,0.0,0.0,0.0,0.0,0.0,0.0,0.0,0.0,0.0,0.0,0.0,0.0,0.6035,0.0,0.6867,0.7163,0.7553,0.7784,0.8063,0.8848,0.9265,0.9587,0.9864,1.0357,1.0654,1.0255,1.1379,1.244,1.2588,1.3629,1.4642,1.5222,1.5077,1.5018,1.5447,1.5499,1.5499,0.0,0.0,0.0,1.5891,1.5891,1.5976,1.6169,1.6338,1.6598,1.6966,1.7334,1.7599,1.7768,1.7956,1.8052,1.8052,1.8052,1.7956,1.7768,1.7599,1.7364,1.7074,1.6724,1.6519,1.6466,1.6314,1.6317,1.633,1.6707,1.6938,1.714,1.7591,1.7922,1.8144,0.3251,0.2939,0.2648,0.0,0.0,0.0,0.0,0.0,0.0,0.0,0.0,0.0,0.0,0.0,0.0,0.0,0.0,0.0,0.3109,0.0,0.0,0.3754,0.3675,0.3788,0.4164,0.4065,0.4229,0.0,0.0,0.0,0.0,0.0,0.0,0.0,0.0,0.0,0.0,0.0,0.0,0.0,0.0,0.0,0.4477,0.447,0.0,0.0,0.0,0.0,0.0,0.0,0.0,0.0,0.0,0.0,0.0,0.0,0.0,0.621,0.6534,0.6821,0.7154,0.7657,0.7884,0.7988,0.7978,0.868,0.8989,0.7792,0.9038,0.9948,0.0,0.0,1.1391,1.1288,1.2106,1.3109,1.4142,1.4066,1.4292,0.0,0.0,0.0,0.0,0.0,0.0,1.5934,0.0,1.6163,1.6688,1.6748,1.6996,1.7509,1.804,1.8318,1.833,1.8831,1.9078,1.9078,1.9078,1.8813,1.833,1.8318,1.7895,1.7171,1.7129,1.6972,1.6718,1.6447,1.632,1.6308,1.629,1.6502,1.68,1.7061,1.7544,1.805,0.0,0.0,0.0,0.0,0.0,0.0,0.0,0.0,0.0,0.0,0.0,0.0,0.0,0.0,0.0,0.0,0.0,0.0,0.0,0.0,0.0,0.0,0.0,0.0,0.3907,0.3957,0.0,0.0,0.0,0.0,0.0,0.0,0.0,0.0,0.0,0.0,0.0,0.0,0.0,0.0,0.0,0.0,0.4264,0.0,0.0,0.0,0.0,0.0,0.0,0.0,0.0,0.0,0.0,0.0,0.5889,0.0,0.0,0.6561,0.6706,0.7076,0.7501,0.7622,0.7813,0.7961,0.7896,0.7945,0.7901,0.7357,0.748,0.7495,0.7013,0.0,0.0,1.0965,1.2936,0.0,1.537,1.5399,0.0,0.0,0.0,1.6085,1.6085,1.6332,0.0,0.0,1.6495,1.664,1.6972,1.7364,1.7732,1.8076,1.8408,1.868,1.8873,1.9012,1.9078,1.9078,1.9078,1.9006,1.8873,1.8674,1.8475,1.8245,1.7648,1.7346,1.7249,1.6791,1.6477,1.629,1.6296,1.6229,1.6161,1.645,1.6744,1.7139,0.0,0.0,0.0,0.0,0.0,0.0,0.0,0.0,0.0,0.0,0.0,0.0,0.0,0.0,0.0,0.0,0.0,0.0,0.0,0.0,0.0,0.0,0.0,0.0,0.0,0.0,0.0,0.0,0.0,0.0,0.0,0.0,0.0,0.0,0.0,0.0,0.0,0.0,0.0,0.0,0.0,0.0,0.0,0.0,0.0,0.0,0.0,0.0,0.0,0.0,0.0,0.5532,0.573,0.6017,0.6304,0.6229,0.0,0.6752,0.6777,0.6988,0.7297,0.7547,0.7644,0.7739,0.7621,0.7455,0.718,0.6701,0.6468,0.0,0.5958,0.0,0.0,0.0,0.0,0.0,1.4808,1.4624,1.4789,0.0,1.6193,0.0,1.6453,1.661,1.6748,0.0,1.6767,1.6869,1.7243,1.7654,1.8058,1.845,1.8722,1.8927,1.9078,1.9078,1.9078,1.9078,1.9078,1.9078,1.9066,1.8921,1.8794,1.8656,1.8209,1.7877,1.7624,1.7213,1.6881,1.6616,1.6386,1.6199,1.6102,1.6094,1.6365,1.6755,0.0,0.0,0.0,0.0,0.0,0.0,0.0,0.0,0.0,0.0,0.0,0.0,0.0,0.0,0.0,0.0,0.0,0.0,0.0,0.0,0.0,0.0,0.0,0.0,0.0,0.0,0.0,0.0,0.0,0.0,0.0,0.0,0.0,0.0,0.0,0.0,0.0,0.0,0.0,0.0,0.0,0.0,0.0,0.0,0.0,0.0,0.0,0.0,0.0,0.0,0.5566,0.5783,0.6252,0.6552,0.6763,0.6532,0.6642,0.6801,0.674,0.6758,0.6992,0.7494,0.7537,0.7446,0.7368,0.7095,0.6657,0.6057,0.0,0.562,0.5358,0.7033,0.8515,0.8632,0.0,1.1253,1.3502,1.3118,1.3439,1.5805,1.6259,1.6447,1.6724,1.6785,1.6899,1.7129,1.693,1.7014,1.7509,1.7817,1.8215,1.8722,1.8957,1.9078,1.9078,1.9078,1.9078,1.9078,1.9078,1.9078,1.9078,1.9078,1.8951,1.8734,1.8662,1.8366,1.7907,1.7605,1.7328,1.7038,1.6531,1.6314,1.6247,1.5988,1.6205,1.663,0.0,0.0,0.0,0.0,0.0,0.0,0.0,0.0,0.0,0.0,0.3202,0.0,0.0,0.0,0.0,0.0,0.0,0.0,0.0,0.0,0.0,0.0,0.0,0.0,0.0,0.0,0.0,0.0,0.0,0.0,0.0,0.0,0.0,0.0,0.0,0.0,0.0,0.0,0.0,0.0,0.0,0.0,0.0,0.0,0.0,0.0,0.0,0.0,0.0,0.0,0.5931,0.6416,0.6709,0.7017,0.7225,0.6957,0.6927,0.6943,0.6825,0.6974,0.7188,0.7543,0.7681,0.7607,0.723,0.6854,0.0,0.0,0.0,0.5127,0.486,0.6445,0.0,0.9385,0.0,0.0,0.0,0.0,1.3971,0.0,0.0,0.0,0.0,0.0,0.0,0.0,1.737,1.7485,1.7787,1.8275,1.8686,1.9,1.9054,1.9078,1.9078,1.9078,1.9078,1.9078,1.9078,1.9078,1.9078,1.9078,1.9048,1.8982,1.8553,0.0,1.8185,1.7684,1.7328,1.7062,1.6748,1.6483,1.6247,1.5988,1.6105,1.6377,0.0,0.0,0.0,0.0,0.0,0.0,0.0,0.0,0.0,0.0,0.3822,0.354,0.0,0.0,0.0,0.0,0.0,0.0,0.0,0.0,0.0,0.0,0.0,0.0,0.0,0.0,0.0,0.0,0.0,0.0,0.0,0.0,0.0,0.0,0.0,0.0,0.0,0.0,0.0,0.0,0.0,0.0,0.0,0.0,0.0,0.0,0.0,0.0,0.0,0.0,0.5694,0.623,0.6802,0.7193,0.7339,0.7062,0.6997,0.693,0.6658,0.6792,0.7042,0.7341,0.7376,0.7263,0.6869,0.0,0.0,0.0,0.0,0.4833,0.4641,0.0,0.0,0.0,0.0,0.0,0.0,0.0,0.0,0.0,0.0,0.0,0.0,0.0,0.0,0.0,1.7485,1.7599,1.7859,1.839,1.8807,1.9066,1.9078,1.9078,1.9078,1.9078,1.9078,1.9078,1.9078,1.9078,1.9078,1.9078,1.9,1.8855,1.8607,1.8336,1.8052,1.7793,1.7533,1.7255,1.6857,1.6616,1.6447,1.6036,1.6051,1.6324,0.0,0.0,0.0,0.0,0.0,0.0,0.0,0.409,0.4243,0.4436,0.4537,0.4493,0.4239,0.3816,0.3604,0.0,0.0,0.0,0.0,0.0,0.0,0.0,0.0,0.0,0.0,0.0,0.0,0.0,0.0,0.0,0.0,0.0,0.0,0.0,0.0,0.0,0.0,0.0,0.0,0.0,0.0,0.0,0.0,0.0,0.0,0.0,0.0,0.0,0.0,0.0,0.5309,0.5793,0.6522,0.7024,0.7245,0.6975,0.6952,0.693,0.6655,0.6739,0.6942,0.7288,0.7225,0.6994,0.661,0.6101,0.0,0.0,0.0,0.4634,0.4511,0.0,0.0,0.0,0.0,0.0,0.0,0.0,0.0,0.0,0.0,0.0,0.0,0.0,0.0,0.0,1.7587,1.7744,1.795,1.842,1.8807,1.9066,1.9078,1.9078,1.9078,1.9078,1.9078,1.9078,1.9078,1.9078,1.9078,1.9078,1.8933,1.868,1.8625,1.8324,1.7871,1.7811,1.7666,1.743,1.6905,1.67,1.6634,1.6091,1.6051,1.6217,0.0,0.0,0.0,0.0,0.0,0.0,0.0,0.4262,0.4868,0.5238,0.5246,0.5142,0.4937,0.4165,0.367,0.0,0.0,0.0,0.0,0.0,0.0,0.0,0.0,0.0,0.0,0.0,0.0,0.0,0.0,0.0,0.0,0.0,0.0,0.0,0.0,0.0,0.0,0.0,0.0,0.0,0.0,0.0,0.0,0.0,0.0,0.0,0.0,0.0,0.0,0.0,0.0,0.5224,0.5616,0.6302,0.6897,0.6687,0.0,0.0,0.7102,0.7138,0.7288,0.7789,0.7655,0.7214,0.6651,0.0,0.0,0.0,0.4607,0.4508,0.4491,0.4822,0.0,0.0,0.0,0.0,0.0,0.0,0.0,0.0,0.0,0.0,0.0,0.0,0.0,0.0,1.7937,1.8227,1.8257,1.8529,1.8807,1.9066,1.9078,1.9078,1.9078,1.9078,1.9078,1.9078,1.9078,1.9078,1.9078,1.9078,1.8933,1.8674,1.8432,1.8155,0.0,1.7618,1.7503,1.743,1.6905,1.67,1.6634,1.6091,1.5945,1.5945,0.0,0.0,0.0,0.0,0.0,0.0,0.0,0.4454,0.4842,0.5609,0.5533,0.5424,0.5484,0.4811,0.411,0.0,0.0,0.0,0.0,0.0,0.0,0.0,0.0,0.0,0.0,0.0,0.0,0.0,0.0,0.0,0.0,0.0,0.0,0.0,0.0,0.0,0.0,0.0,0.0,0.0,0.0,0.0,0.0,0.0,0.0,0.0,0.0,0.0,0.0,0.0,0.0,0.0,0.5009,0.5477,0.0,0.0,0.6379,0.6607,0.6846,0.7029,0.7288,0.7643,0.7493,0.7075,0.6521,0.0,0.0,0.4706,0.4532,0.4491,0.4491,0.4665,0.5036,0.0,0.5901,0.6738,0.0,0.0,0.0,0.0,0.0,0.0,0.0,0.0,0.0,0.0,1.8076,1.836,1.8523,1.8776,1.8969,1.9072,1.9078,1.9078,1.9078,1.9078,1.9078,1.9078,1.9078,1.8994,1.8843,1.8843,1.8601,1.8191,1.8088,1.7889,0.0,1.7527,1.7388,1.7213,1.6845,1.6598,1.6404,1.6024,1.5998,1.6111,0.0,0.0,0.0,0.0,0.0,0.0,0.4456,0.4535,0.4812,0.5609,0.5498,0.5442,0.5715,0.5057,0.4294,0.3563,0.0,0.0,0.0,0.0,0.0,0.0,0.0,0.0,0.0,0.0,0.0,0.0,0.0,0.0,0.0,0.0,0.0,0.0,0.0,0.0,0.0,0.0,0.0,0.0,0.0,0.0,0.0,0.0,0.0,0.0,0.0,0.0,0.0,0.0,0.0,0.0,0.0,0.0,0.0,0.0,0.6035,0.6369,0.672,0.697,0.7266,0.7521,0.7273,0.6865,0.0,0.0,0.5167,0.4604,0.4491,0.4491,0.4491,0.458,0.4735,0.0,0.5298,0.6391,0.9032,0.0,0.0,0.0,0.0,0.0,0.0,0.0,0.0,1.8094,1.83,1.8523,1.8782,1.8976,1.9078,1.9078,1.9078,1.9078,1.9078,1.9078,1.9078,1.9078,1.9,1.8861,1.868,1.8601,1.8312,1.7871,1.7871,1.7726,0.0,1.7485,1.7328,1.7062,1.6803,1.6531,1.6247,1.5988,1.5998,1.6164,0.0,0.0,0.0,0.0,0.0,0.0,0.0,0.4449,0.4914,0.5251,0.5131,0.5151,0.5553,0.47,0.4069,0.3999,0.0,0.0,0.0,0.0,0.0,0.0,0.0,0.0,0.0,0.0,0.0,0.0,0.0,0.0,0.0,0.0,0.0,0.0,0.0,0.0,0.0,0.0,0.0,0.0,0.0,0.0,0.0,0.0,0.0,0.0,0.0,0.0,0.0,0.0,0.0,0.0,0.0,0.0,0.0,0.0,0.5926,0.6385,0.6853,0.7114,0.7265,0.7557,0.7153,0.6586,0.0,0.5531,0.4975,0.4583,0.4491,0.4491,0.4491,0.4491,0.4638,0.5026,0.5389,0.6313,0.8439,0.0,0.0,0.0,0.0,0.0,0.0,0.0,0.0,1.8656,1.868,0.0,1.9054,1.9078,1.9078,1.9078,1.9078,1.9078,1.9078,1.9078,1.9078,1.9072,1.8813,1.8686,1.8674,1.842,1.8143,1.7871,1.7871,1.7726,0.0,1.7485,1.7328,1.7062,1.6803,1.6531,1.6247,1.5988,1.5891,1.5891,0.0,0.0,0.0,0.0,0.0,0.0,0.0,0.3955,0.4163,0.4868,0.4751,0.4793,0.5339,0.5109,0.4808,0.4576,0.0,0.0,0.0,0.0,0.0,0.0,0.0,0.0,0.0,0.0,0.0,0.0,0.0,0.0,0.0,0.0,0.0,0.0,0.0,0.0,0.0,0.0,0.0,0.0,0.0,0.0,0.0,0.0,0.0,0.0,0.0,0.0,0.0,0.0,0.0,0.0,0.0,0.0,0.0,0.5001,0.538,0.0,0.6037,0.6271,0.6512,0.6667,0.6461,0.6125,0.5674,0.5342,0.4972,0.4583,0.4491,0.4491,0.4491,0.4491,0.4706,0.5338,0.6097,0.0,0.0,0.0,0.0,0.0,0.0,0.0,0.0,0.0,1.8402,1.8668,1.8686,1.8722,1.8807,1.8807,1.8891,1.9066,1.8903,1.8807,1.8807,1.8632,1.8541,1.8541,1.8456,1.8318,1.8125,1.8046,1.7859,1.7605,1.7605,1.7563,1.7485,1.7485,1.7219,1.6815,1.673,1.6416,1.6006,1.5922,1.6152,1.6411,0.0,0.0,0.0,0.0,0.0,0.0,0.0,0.3741,0.3876,0.4422,0.4355,0.4462,0.505,0.4905,0.4779,0.4794,0.0,0.0,0.0,0.0,0.0,0.0,0.0,0.0,0.0,0.0,0.0,0.0,0.0,0.0,0.0,0.0,0.0,0.0,0.0,0.0,0.0,0.0,0.0,0.0,0.0,0.0,0.5765,0.0,0.0,0.0,0.0,0.0,0.0,0.0,0.0,0.0,0.0,0.0,0.0,0.0,0.4925,0.5221,0.0,0.5816,0.6008,0.607,0.5932,0.5688,0.5352,0.5114,0.4867,0.4559,0.4491,0.4491,0.4491,0.4491,0.4682,0.5243,0.5959,0.0,0.0,0.0,0.0,0.0,0.0,0.0,0.0,0.0,1.836,1.8523,1.8535,1.8535,1.8535,1.8535,1.8613,1.8776,1.8625,1.8535,1.8535,1.8372,1.8294,1.8294,1.8185,1.8046,1.7871,1.7774,1.7636,1.7485,1.7485,1.7485,0.0,1.7485,1.7171,1.67,1.67,1.6368,1.5891,1.5998,1.6264,1.653,0.0,0.0,0.0,0.0,0.0,0.0,0.0,0.0,0.0,0.0,0.3965,0.4154,0.4655,0.425,0.415,0.0,0.0,0.0,0.0,0.0,0.0,0.0,0.0,0.0,0.0,0.0,0.0,0.0,0.6326,0.6777,0.7152,0.0,0.0,0.0,0.0,0.0,0.0,0.0,0.0,0.0,0.0,0.6258,0.0,0.0,0.0,0.0,0.0,0.0,0.0,0.0,0.0,0.0,0.0,0.0,0.0,0.0,0.0,0.0,0.0,0.5613,0.5722,0.5708,0.5542,0.5306,0.5086,0.4877,0.0,0.4522,0.4491,0.4501,0.4532,0.4522,0.4627,0.4969,0.5325,0.0,0.0,0.0,0.0,0.0,0.0,0.0,0.0,1.7781,1.8294,1.8294,1.8294,1.8281,1.8263,1.8263,1.8257,1.8233,1.8233,1.8245,1.8263,1.8245,1.8233,1.8233,1.7968,1.7847,1.7835,1.7593,1.7485,0.0,1.7485,1.7485,1.7485,1.7461,1.7159,1.67,1.6676,1.635,1.5945,1.6217,1.6324,1.6377,0.0,0.0,0.0,0.0,0.0,0.0,0.0,0.0,0.0,0.0,0.3623,0.3665,0.3798,0.4093,0.0,0.0,0.0,0.0,0.0,0.0,0.0,0.0,0.0,0.0,0.0,0.0,0.0,0.6158,0.6393,0.693,0.7711,0.7355,0.0,0.0,0.0,0.0,0.0,0.0,0.0,0.0,0.6365,0.6352,0.0,0.0,0.0,0.0,0.3969,0.3724,0.0,0.0,0.0,0.0,0.0,0.0,0.0,0.0,0.4515,0.4576,0.472,0.0,0.4925,0.4836,0.4842,0.4836,0.0,0.4685,0.4675,0.4522,0.0,0.4597,0.4911,0.4789,0.4989,0.5945,0.684,0.0,0.0,0.0,0.0,0.0,0.0,0.0,0.0,1.75,1.8294,1.8294,1.8294,1.8197,1.7986,1.7974,1.7877,1.7678,1.7672,1.7768,1.7968,1.7774,1.7672,1.7672,1.7605,1.7575,1.7575,1.7509,1.7485,1.7485,1.7485,1.7485,1.7467,1.7267,1.6996,1.6676,1.6465,1.6181,1.5945,1.6217,1.6424,1.663,0.0,0.0,0.0,0.0,0.0,0.0,0.0,0.0,0.0,0.0,0.0,0.0,0.0,0.0,0.0,0.0,0.0,0.0,0.0,0.0,0.0,0.0,0.0,0.0,0.0,0.0,0.0,0.0,0.0,0.6982,0.0,0.0,0.0,0.0,0.0,0.0,0.0,0.0,0.0,0.0,0.634,0.0,0.0,0.0,0.0,0.0,0.3928,0.3696,0.0,0.3873,0.4028,0.4197,0.0,0.0,0.0,0.0,0.4311,0.4365,0.4365,0.4575,0.4775,0.4694,0.4735,0.4772,0.4691,0.0,0.0,0.0,0.0,0.4586,0.487,0.4908,0.0,0.6027,0.6802,0.0,0.0,0.0,0.0,0.0,0.0,0.0,0.0,1.6819,1.7612,1.7732,1.7744,1.7624,1.7346,1.7449,1.7394,1.7129,1.7243,1.743,1.769,1.7551,1.7485,1.7485,1.7485,1.7485,1.7485,1.7485,1.7485,1.7485,1.7485,1.7412,1.7292,1.7153,1.6869,1.6507,1.6344,1.6121,1.5945,1.6318,1.6577,1.673,0.0,0.0,0.0,0.0,0.0,0.0,0.0,0.0,0.0,0.0,0.0,0.0,0.0,0.0,0.0,0.0,0.0,0.0,0.0,0.0,0.0,0.0,0.0,0.0,0.0,0.0,0.0,0.0,0.0,0.0,0.0,0.0,0.0,0.0,0.0,0.0,0.0,0.0,0.0,0.0,0.0,0.0,0.0,0.0,0.0,0.0,0.0,0.0,0.0,0.391,0.4045,0.4157,0.4133,0.0,0.0,0.0,0.0,0.0,0.4244,0.4614,0.4965,0.487,0.487,0.4911,0.4864,0.0,0.0,0.0,0.0,0.0,0.0,0.0,0.0,0.0,0.0,0.0,0.0,0.0,0.0,0.0,0.0,0.0,1.5227,1.6136,1.6791,1.7014,1.7032,1.6936,1.6712,1.6911,1.693,1.6706,1.6917,1.7135,1.7364,1.7406,1.7424,1.7424,1.7424,1.7443,1.7485,1.7485,1.7485,1.7479,1.7443,1.7298,1.7086,1.7002,1.6706,1.6302,1.6241,1.6085,1.5945,1.6518,1.6677,1.673,0.0,0.0,0.0,0.0,0.0,0.0,0.0,0.0,0.0,0.0,0.0,0.0,0.0,0.0,0.0,0.0,0.0,0.0,0.0,0.0,0.0,0.0,0.0,0.0,0.0,0.0,0.0,0.0,0.0,0.0,0.738,0.6876,0.6113,0.0,0.0,0.0,0.0,0.0,0.0,0.0,0.0,0.0,0.0,0.0,0.0,0.0,0.0,0.0,0.0,0.3662,0.3829,0.4008,0.39,0.0,0.0,0.0,0.0,0.0,0.4518,0.4952,0.5204,0.4689,0.4816,0.5002,0.4782,0.0,0.0,0.0,0.0,0.0,0.0,0.0,0.0,0.0,0.0,0.0,0.0,0.0,0.0,0.0,0.0,1.5786,1.5117,1.6032,1.6718,1.6754,1.6761,1.6742,1.6706,1.6742,1.6742,1.67,1.6742,1.6779,1.6821,1.7038,1.7153,1.7153,1.7153,1.7267,1.7485,1.7485,1.7485,1.7473,1.7249,1.7129,1.7056,1.6598,1.6356,1.6266,1.6036,1.5928,1.5945,1.6518,1.6677,1.6783,0.0,0.0,0.0,0.0,0.0,0.0,0.0,0.0,0.0,0.0,0.0,0.0,0.0,0.0,0.0,0.0,0.0,0.0,0.0,0.0,0.0,0.0,0.0,0.0,0.0,0.0,0.0,0.0,0.0,0.6421,0.6459,0.5679,0.5013,0.4496,0.0,0.0,0.0,0.0,0.0,0.6029,0.0,0.0,0.0,0.0,0.0,0.0,0.0,0.0,0.0,0.0,0.3839,0.3967,0.3839,0.0,0.0,0.0,0.0,0.0,0.425,0.4657,0.5003,0.4853,0.5287,0.5684,0.5464,0.0,0.0,0.0,0.0,0.0,0.0,0.0,0.0,0.0,0.0,0.0,0.0,0.0,0.0,0.0,0.0,1.4801,1.3912,1.5281,1.632,1.6459,1.6477,1.641,1.6272,1.6398,1.641,1.6266,1.6398,1.6404,1.6266,1.6525,1.673,1.6881,1.6881,1.6948,1.7062,1.7062,1.7062,1.705,1.693,1.6791,1.6634,1.6386,1.6193,1.6054,1.5934,1.5998,1.6211,1.6743,1.6955,1.7008,0.0,0.0,0.0,0.0,0.0,0.0,0.0,0.0,0.0,0.0,0.0,0.0,0.0,0.0,0.0,0.0,0.0,0.0,0.0,0.0,0.0,0.0,0.0,0.0,0.0,0.0,0.0,0.656,0.636,0.6001,0.5464,0.461,0.4182,0.0,0.0,0.0,0.0,0.0,0.0,0.5545,0.0,0.0,0.0,0.0,0.0,0.0,0.0,0.0,0.0,0.0,0.0,0.0,0.0,0.0,0.0,0.3748,0.3734,0.3846,0.4107,0.4426,0.4769,0.5101,0.5593,0.601,0.6071,0.0,0.0,0.0,0.0,0.0,0.0,0.0,0.0,0.0,0.0,0.0,0.0,0.0,1.2916,1.1914,1.3573,1.4291,1.2949,1.4812,1.6163,1.6362,1.6374,1.629,1.6091,1.6272,1.6284,1.6085,1.6272,1.6284,1.6079,1.6211,1.6392,1.6604,1.6604,1.6634,1.67,1.67,1.67,1.67,1.6628,1.6483,1.6278,1.6217,1.6072,1.5891,1.5891,1.6051,1.6377,1.6908,1.7067,1.712,0.0,0.0,0.0,0.0,0.0,0.0,0.0,0.0,0.0,0.0,0.0,0.0,0.0,0.0,0.0,0.0,0.0,0.0,0.0,0.0,0.0,0.0,0.0,0.0,0.0,0.6774,0.6595,0.7045,0.581,0.4998,0.4594,0.4331,0.4357,0.4669,0.0,0.0,0.0,0.0,0.0,0.5053,0.5053,0.0,0.0,0.0,0.0,0.0,0.0,0.0,0.0,0.0,0.0,0.0,0.0,0.0,0.3991,0.3971,0.3894,0.3917,0.4487,0.4667,0.4796,0.5269,0.5277,0.0,0.6122,0.6017,0.0,0.6522,0.0,0.0,0.0,0.0,0.0,0.0,0.0,0.0,0.0,0.0,1.5327,1.3442,1.5199,1.5564,1.324,1.5226,1.6652,1.667,1.667,1.6664,1.664,1.6658,1.6664,1.664,1.6664,1.6664,1.664,1.6404,1.629,1.6308,1.6308,1.6447,1.67,1.67,1.67,1.6688,1.6423,1.6302,1.626,1.6018,1.5903,1.5891,1.5891,1.6051,1.6324,1.663,1.673,1.6836,0.0,0.0,0.0,0.0,0.0,0.0,0.0,0.0,0.0,0.0,0.0,0.0,0.0,0.0,0.0,0.0,0.0,0.0,0.0,0.0,0.0,0.0,0.0,0.5926,0.6574,0.6385,0.6046,0.561,0.5019,0.4647,0.4512,0.4499,0.0,0.0,0.0,0.0,0.0,0.0,0.0,0.0,0.4604,0.4381,0.0,0.0,0.0,0.0,0.0,0.0,0.0,0.0,0.3782,0.391,0.3785,0.3913,0.4099,0.3934,0.3836,0.3883,0.4274,0.4551,0.4823,0.5402,0.5525,0.0,0.0,0.6519,0.6753,0.7173,0.7258,0.0,0.0,0.0,0.0,0.0,0.0,0.0,0.0,1.5491,1.5344,1.3389,1.512,1.5545,1.3198,1.5265,1.67,1.67,1.67,1.67,1.67,1.67,1.67,1.67,1.67,1.67,1.67,1.6592,1.6543,1.6537,1.6362,1.6429,1.67,1.67,1.6604,1.6435,1.6326,1.6187,1.603,1.5934,1.5891,1.5945,1.6105,1.6217,1.6377,1.6849,1.7008,1.706,0.0,0.0,0.0,0.0,0.0,0.0,0.0,0.0,0.0,0.0,0.0,0.0,0.0,0.0,0.0,0.0,0.0,0.0,0.0,0.0,0.0,0.0,0.0,0.5328,0.5413,0.5478,0.5276,0.4826,0.4604,0.4467,0.4416,0.0,0.0,0.0,0.0,0.0,0.0,0.0,0.0,0.0,0.4129,0.3884,0.0,0.0,0.0,0.0,0.0,0.0,0.0,0.0,0.3751,0.3863,0.3751,0.3906,0.4109,0.3924,0.3931,0.405,0.4256,0.4501,0.4823,0.5412,0.0,0.0,0.6502,0.6854,0.7169,0.7709,0.7811,0.0,0.0,0.0,0.0,0.0,0.0,0.0,1.4839,1.5639,1.5292,1.3221,1.5054,1.5522,1.3193,1.5265,1.67,1.67,1.67,1.67,1.67,1.67,1.67,1.67,1.67,1.67,1.67,1.6616,1.6616,1.67,1.6416,1.6429,1.67,1.67,1.6549,1.629,1.6284,1.6133,1.5891,1.5891,1.5891,1.5945,1.6105,1.6164,1.6217,1.6749,1.6961,1.7067,0.0,0.0,0.0,0.0,0.0,0.0,0.0,0.0,0.0,0.0,0.0,0.0,0.0,0.0,0.0,0.0,0.0,0.0,0.0,0.0,0.0,0.0,0.0,0.4392,0.4396,0.4142,0.4365,0.5086,0.468,0.4389,0.4194,0.4194,0.0,0.0,0.0,0.0,0.0,0.0,0.0,0.0,0.3604,0.3604,0.3604,0.0,0.0,0.0,0.0,0.0,0.0,0.0,0.372,0.3655,0.3924,0.0,0.0,0.3994,0.4229,0.4491,0.4491,0.4607,0.4806,0.0,0.0,0.0,0.6755,0.6893,0.719,0.8135,0.0,0.8323,0.8323,0.0,0.0,1.162,1.213,1.3161,1.5896,1.629,1.5481,1.3292,1.5203,1.5721,1.3269,1.5265,1.67,1.67,1.67,1.67,1.67,1.67,1.67,1.67,1.67,1.67,1.67,1.6423,1.6429,1.67,1.6416,1.6429,1.67,1.67,1.6555,1.6308,1.629,1.6133,1.5891,1.5891,1.5891,1.5891,1.5891,1.5891,1.5945,1.6217,1.6477,1.673,0.0,0.0,0.0,0.0,0.0,0.0,0.0,0.0,0.0,0.0,0.0,0.0,0.0,0.0,0.0,0.0,0.0,0.0,0.0,0.0,0.0,0.0,0.0,0.0,0.0,0.0,0.4059,0.4475,0.434,0.421,0.0,0.0,0.0,0.4074,0.0,0.0,0.0,0.0,0.0,0.0,0.0,0.3604,0.3604,0.0,0.0,0.0,0.0,0.0,0.0,0.0,0.0,0.0,0.3714,0.0,0.4317,0.408,0.4229,0.4511,0.4624,0.4917,0.0,0.0,0.0,0.0,0.0,0.0,0.0,0.0,0.0,0.0,0.9601,0.0,0.0,1.1873,1.2164,1.31,1.5636,1.6012,1.5501,1.4134,1.5448,1.5861,1.4401,1.5727,1.67,1.67,1.67,1.67,1.67,1.67,1.67,1.67,1.67,1.67,1.67,1.6616,1.6616,1.67,1.6616,1.6622,1.67,1.67,1.6549,1.629,1.6284,1.6133,1.5891,1.5891,1.5891,1.5891,1.5891,1.5891,1.5945,1.6217,1.6377,1.6477,0.0,0.0,0.0,0.0,0.0,0.0,0.0,0.0,0.0,0.0,0.0,0.363,0.0,0.0,0.0,0.0,0.0,0.0,0.0,0.0,0.0,0.0,0.0,0.0,0.0,0.3615,0.3826,0.0,0.0,0.0,0.0,0.0,0.0,0.389,0.0,0.435,0.0,0.0,0.0,0.0,0.0,0.3686,0.3686,0.0,0.0,0.0,0.0,0.0,0.0,0.0,0.0,0.0,0.3628,0.0,0.0,0.4053,0.4273,0.4641,0.4914,0.0,0.0,0.0,0.0,0.0,0.0,0.0,0.0,0.0,0.0,0.0,0.0,0.999,0.0,1.1971,1.265,1.3667,1.5648,1.5891,1.5511,1.4462,1.541,1.5752,1.4634,1.5652,1.638,1.638,1.638,1.638,1.638,1.638,1.638,1.638,1.638,1.638,1.638,1.638,1.638,1.638,1.638,1.638,1.6386,1.6604,1.6543,1.6272,1.6169,1.6036,1.5891,1.5891,1.5891,1.5891,1.5891,1.5891,1.5945,1.6105,1.6264,1.6477,0.0,0.0,0.3495,0.3495,0.0,0.0,0.0,0.0,0.0,0.0,0.0,0.3616,0.0,0.0,0.0,0.4684,0.0,0.0,0.0,0.0,0.0,0.0,0.0,0.0,0.0,0.0,0.0,0.0,0.0,0.0,0.0,0.0,0.4129,0.4008,0.0,0.4277,0.0,0.0,0.0,0.0,0.3771,0.3771,0.3771,0.3778,0.0,0.0,0.0,0.0,0.0,0.0,0.0,0.0,0.3604,0.3709,0.3839,0.3954,0.4338,0.4789,0.5272,0.0,0.0,0.0,0.0,0.0,0.0,0.0,0.0,0.0,0.0,0.0,0.0,0.9831,1.0901,1.2182,1.3426,1.46,1.5731,1.5891,1.5512,1.4493,1.5244,1.5512,1.4433,1.5298,1.5891,1.5891,1.5891,1.5891,1.5891,1.5891,1.5891,1.5891,1.5891,1.5891,1.5891,1.5891,1.5891,1.5891,1.5891,1.5891,1.5903,1.6404,1.6489,1.6229,1.5994,1.5891,1.5891,1.5891,1.5891,1.5891,1.5891,1.5891,1.5891,1.5891,1.6205,1.6624,0.0,0.0,0.3495,0.3495,0.0,0.0,0.0,0.0,0.3495,0.3495,0.3495,0.3532,0.3603,0.3848,0.0,0.3941,0.4101,0.0,0.0,0.0,0.0,0.0,0.0,0.0,0.0,0.0,0.0,0.0,0.0,0.0,0.0,0.0,0.0,0.4004,0.0,0.4099,0.0,0.0,0.0,0.3648,0.3648,0.3648,0.3634,0.3537,0.3522,0.0,0.0,0.0,0.0,0.0,0.0,0.0,0.3604,0.3758,0.3954,0.3984,0.4338,0.4789,0.0,0.5664,0.0,0.0,0.0,0.0,0.0,0.0,0.0,0.0,0.0,0.0,0.0,1.0941,1.1211,1.3408,1.4024,1.46,1.5731,1.5891,1.5838,1.5565,1.5725,1.5785,1.5565,1.5779,1.5891,1.5891,1.5891,1.5891,1.5891,1.5891,1.5891,1.5891,1.5891,1.5891,1.5891,1.5891,1.5891,1.5891,1.5891,1.5891,1.5891,1.6012,1.603,1.597,1.5916,1.5891,1.5891,1.5891,1.5891,1.5891,1.5891,1.5891,1.5891,1.5891,1.5992,1.6099,0.0,0.0,0.0,0.0,0.0,0.0,0.0,0.0,0.3398,0.3398,0.3436,0.3404,0.327,0.3531,0.0,0.0,0.3585,0.3536,0.0,0.0,0.0,0.0,0.0,0.0,0.0,0.0,0.0,0.0,0.0,0.0,0.0,0.0,0.0,0.4105,0.0,0.4092,0.0,0.0,0.0,0.3703,0.3703,0.3662,0.3593,0.3515,0.344,0.3358,0.3309,0.0,0.0,0.0,0.0,0.0,0.0,0.0,0.3836,0.3954,0.4213,0.4626,0.0,0.0,0.0,0.0,0.0,0.0,0.0,0.0,0.0,0.0,0.0,0.0,0.0,1.1173,1.1767,1.3683,1.4476,1.5052,1.582,1.5891,1.5891,1.5891,1.5891,1.5891,1.5891,1.5891,1.5891,1.5891,1.5891,1.5891,1.5891,1.5891,1.5891,1.5891,1.5891,1.5891,1.5891,1.5891,1.5891,1.5891,1.5891,1.5891,1.5891,1.5891,1.5891,1.5891,1.5891,1.5891,1.5891,1.5891,1.5891,1.5891,1.5891,1.5891,1.5891,1.5891,1.5998,1.6111,0.0,0.0,0.0,0.0,0.0,0.0,0.0,0.0,0.0,0.337,0.3371,0.3295,0.3094,0.3254,0.3334,0.0,0.0,0.0,0.3184,0.0,0.0,0.0,0.0,0.0,0.0,0.0,0.0,0.0,0.0,0.0,0.0,0.0,0.0,0.4257,0.0,0.0,0.0,0.0,0.3741,0.3714,0.3687,0.3605,0.3522,0.3494,0.332,0.3114,0.3196,0.3262,0.3326,0.3497,0.0,0.0,0.0,0.0,0.3655,0.39,0.4082,0.4395,0.0,0.0,0.0,0.0,0.0,0.0,0.0,0.0,0.0,0.0,0.0,0.0,0.0,1.112,1.2272,1.38,1.4792,1.5511,1.5722,1.5759,1.5759,1.5759,1.5795,1.5819,1.5819,1.5861,1.5891,1.5891,1.5891,1.5891,1.5891,1.5891,1.5891,1.5891,1.5891,1.5891,1.5891,1.5891,1.5891,1.5891,1.5891,1.5891,1.5891,1.5891,1.5891,1.5891,1.5891,1.5891,1.5891,1.5891,1.5891,1.5891,1.5891,1.5891,1.5891,1.5891,1.6051,1.6217,0.0,0.0,0.0,0.0,0.0,0.0,0.0,0.0,0.0,0.0,0.3406,0.3252,0.3341,0.307,0.2869,0.2786,0.2707,0.2707,0.0,0.0,0.0,0.0,0.0,0.0,0.0,0.0,0.0,0.0,0.0,0.0,0.0,0.0,0.0,0.4457,0.0,0.0,0.0,0.0,0.0,0.3353,0.3242,0.3178,0.3148,0.3046,0.303,0.3087,0.2986,0.3095,0.3309,0.3329,0.3448,0.0,0.0,0.0,0.0,0.3775,0.4001,0.4304,0.0,0.0,0.0,0.0,0.0,0.0,0.0,0.0,0.0,0.0,0.0,0.0,0.0,1.152,1.235,1.4593,1.5053,1.5173,1.5209,1.5215,1.5215,1.5215,1.5415,1.5553,1.5553,1.5759,1.5891,1.5891,1.5891,1.5891,1.5891,1.5891,1.5891,1.5891,1.5891,1.5891,1.5891,1.5891,1.5891,1.5891,1.5891,1.5891,1.5891,1.5891,1.5891,1.5891,1.5891,1.5891,1.5891,1.5891,1.5891,1.5891,1.5891,1.5891,1.5891,1.5891,1.5945,1.5998,0.0,0.0,0.0,0.0,0.0,0.0,0.0,0.0,0.0,0.0,0.0,0.2976,0.2953,0.2829,0.2704,0.2597,0.2568,0.0,0.0,0.0,0.0,0.0,0.0,0.0,0.0,0.0,0.0,0.0,0.0,0.0,0.0,0.4183,0.4365,0.0,0.0,0.0,0.0,0.0,0.0,0.3441,0.329,0.3327,0.3453,0.0,0.3103,0.3337,0.3022,0.0,0.3196,0.3279,0.3431,0.3604,0.3604,0.0,0.0,0.0,0.0,0.0,0.0,0.0,0.0,0.0,0.0,0.0,0.0,0.0,0.0,0.0,0.0,0.0,0.0,0.0,1.2123,1.4486,1.489,1.4944,1.5089,1.5107,1.5107,1.5107,1.5209,1.5282,1.5282,1.5384,1.5451,1.5451,1.5451,1.5451,1.5451,1.5451,1.5451,1.5451,1.5451,1.5451,1.5451,1.5451,1.5523,1.5674,1.5674,1.5747,1.5891,1.5891,1.5891,1.5891,1.5891,1.5891,1.5891,1.5891,1.5891,1.5891,1.5891,1.5891,1.5891,1.5891,1.5891,1.5945,0.0,0.0,0.0,0.0,0.0,0.0,0.0,0.0,0.0,0.0,0.0,0.2733,0.2707,0.0,0.0,0.0,0.2498,0.0,0.0,0.0,0.0,0.0,0.0,0.0,0.0,0.0,0.0,0.0,0.0,0.0,0.4277,0.4314,0.4648,0.0,0.4935,0.0,0.0,0.0,0.0,0.3648,0.3485,0.3569,0.3754,0.3429,0.3535,0.3767,0.0,0.0,0.0,0.0,0.0,0.0,0.0,0.0,0.0,0.0,0.0,0.0,0.0,0.0,0.0,0.0,0.0,0.0,0.0,0.0,0.0,0.0,0.0,0.0,0.0,0.0,1.1864,1.3877,1.441,1.4678,1.4871,1.4902,1.4902,1.4902,1.4968,1.501,1.501,1.5071,1.5107,1.5107,1.5107,1.5107,1.5107,1.5107,1.5107,1.5107,1.5107,1.5107,1.5107,1.5107,1.5203,1.5403,1.5403,1.5535,1.5795,1.5795,1.5831,1.5891,1.5891,1.5891,1.5891,1.5891,1.5891,1.5891,1.5891,1.5891,1.5891,1.5891,1.5891,1.5891,0.0,0.0,0.0,0.0,0.0,0.0,0.0,0.0,0.0,0.0,0.0,0.2701,0.2948,0.2695,0.2506,0.2498,0.2498,0.0,0.0,0.0,0.0,0.0,0.0,0.0,0.0,0.0,0.0,0.0,0.0,0.0,0.4484,0.4627,0.4989,0.5552,0.5214,0.4763,0.4197,0.0,0.0,0.3778,0.3771,0.3778,0.3832,0.4255,0.4423,0.4385,0.0,0.0,0.0,0.0,0.0,0.0,0.0,0.0,0.0,0.0,0.0,0.0,0.0,0.0,0.0,0.0,0.0,0.0,0.0,0.0,0.0,0.0,0.0,0.0,0.0,0.0,0.0,1.2651,1.3678,1.4322,1.4334,1.434,1.434,1.434,1.4576,1.4739,1.4739,1.4962,1.5107,1.5107,1.5107,1.5107,1.5107,1.5107,1.5107,1.5107,1.5107,1.5107,1.5107,1.5107,1.5113,1.5125,1.5125,1.5264,1.5517,1.5517,1.5656,1.5891,1.5891,1.5891,1.5891,1.5891,1.5891,1.5891,1.5891,1.5891,1.5891,1.5891,1.5891,1.5891,0.0,0.0,0.0,0.0,0.0,0.0,0.0,0.0,0.0,0.0,0.0,0.0,0.0,0.2694,0.263,0.263,0.263,0.0,0.0,0.0,0.0,0.0,0.0,0.0,0.0,0.0,0.0,0.0,0.0,0.3249,0.4061,0.4189,0.4399,0.4712,0.4978,0.4982,0.4756,0.4324,0.0,0.0,0.4058,0.4284,0.0,0.4539,0.4849,0.5226,0.0,0.0,0.0,0.0,0.0,0.0,0.0,0.3571,0.3466,0.3273,0.0,0.0,0.0,0.0,0.0,0.0,0.0,0.0,0.0,0.0,0.0,0.0,0.0,0.0,0.0,0.0,0.0,0.0,1.4052,1.4298,1.4298,1.4298,1.4298,1.4298,1.4389,1.4449,1.4449,1.4533,1.4588,1.4588,1.4588,1.4588,1.4588,1.4588,1.4588,1.4588,1.4588,1.4588,1.4588,1.4588,1.4678,1.4859,1.4859,1.4992,1.5246,1.5246,1.53,1.539,1.539,1.5578,1.5891,1.5891,1.5891,1.5891,1.5891,1.5891,1.5891,1.5891,1.5891,1.5891,0.0,0.0,0.0,0.2873,0.0,0.2617,0.2866,0.2579,0.2427,0.0,0.0,0.0,0.0,0.0,0.2696,0.2696,0.0,0.0,0.0,0.0,0.0,0.0,0.0,0.0,0.0,0.0,0.0,0.0,0.0,0.0,0.0,0.3849,0.4028,0.421,0.4577,0.4783,0.0,0.0,0.0,0.4382,0.0,0.0,0.5209,0.0,0.5586,0.0,0.0,0.0,0.0,0.0,0.0,0.0,0.0,0.3663,0.3415,0.3323,0.0,0.0,0.0,0.0,0.0,0.0,0.0,0.0,0.0,0.0,0.0,0.0,0.0,0.0,0.0,0.0,0.0,0.0,0.0,1.4298,1.4298,1.4298,1.4298,1.4298,1.4298,1.4298,1.4298,1.4298,1.4298,1.4298,1.4298,0.0,1.4298,1.4298,1.4298,1.4298,1.4298,1.4298,1.4298,1.4298,1.4389,1.4576,1.4576,1.4721,1.498,1.498,1.5022,1.5107,1.5107,1.5354,1.5759,1.5759,1.5813,1.5891,1.5891,1.5891,1.5891,1.5891,1.5891,1.5891,0.3125,0.295,0.2817,0.2817,0.2481,0.2453,0.3168,0.267,0.2399,0.2924,0.0,0.0,0.0,0.0,0.0,0.0,0.0,0.0,0.0,0.0,0.0,0.0,0.0,0.0,0.0,0.0,0.0,0.0,0.0,0.0,0.0,0.0,0.3931,0.4164,0.4055,0.4178,0.4491,0.0,0.4816,0.4748,0.0,0.5395,0.5521,0.0,0.0,0.0,0.6371,0.6126,0.0,0.5288,0.0,0.0,0.0,0.3596,0.3148,0.3273,0.3448,0.0,0.0,0.0,0.0,0.0,0.0,0.0,0.0,0.0,0.0,0.0,0.0,0.0,0.0,0.0,0.0,0.0,0.0,0.0,1.4298,1.4298,1.4298,1.4298,1.4298,1.4298,1.4298,1.4298,1.4298,1.4298,1.4298,1.4298,1.4298,1.4298,1.4298,1.4298,1.4298,1.4298,1.4298,1.4298,1.4298,1.4298,1.4298,1.4437,1.4702,1.4702,1.4841,1.5083,1.5083,1.5234,1.5475,1.5493,1.565,1.5879,1.5885,1.5891,1.5891,1.5891,1.5891,1.5891,0.3521,0.33,0.3089,0.3089,0.2794,0.2598,0.2702,0.2624,0.2618,0.0,0.0,0.0,0.0,0.0,0.0,0.0,0.0,0.0,0.0,0.0,0.0,0.0,0.0,0.0,0.0,0.0,0.0,0.0,0.0,0.0,0.0,0.0,0.0,0.0,0.3869,0.4005,0.4006,0.4066,0.0,0.0,0.4989,0.5429,0.0,0.0,0.0,0.0,0.0,0.6688,0.6563,0.0,0.5735,0.5148,0.0,0.0,0.0,0.3534,0.3697,0.0,0.3812,0.0,0.0,0.0,0.0,0.0,0.0,0.0,0.0,0.0,0.0,0.0,0.0,0.0,0.0,0.0,0.0,0.0,1.4298,1.4298,1.4298,1.4298,1.4298,1.4298,1.4298,1.4298,1.4298,0.0,1.4298,1.4298,1.4298,1.4298,1.4298,1.4298,1.4298,1.4298,1.4298,1.4298,1.4298,1.4298,1.4298,1.434,1.4413,1.4413,1.4455,1.4521,1.4521,1.4678,1.4962,1.5342,1.5541,1.5626,1.5813,1.5891,1.5891,1.5891,1.5891,1.5891,0.3487,0.3378,0.328,0.328,0.3103,0.3017,0.3255,0.3097,0.3016,0.0,0.0,0.0,0.0,0.0,0.0,0.0,0.0,0.0,0.0,0.0,0.0,0.2696,0.2696,0.0,0.0,0.0,0.0,0.0,0.0,0.0,0.0,0.0,0.0,0.0,0.3418,0.3612,0.3716,0.0,0.0,0.0,0.5108,0.0,0.0,0.6512,0.6915,0.0,0.0,0.0,0.7085,0.6909,0.6329,0.0,0.0,0.4335,0.4165,0.4151,0.0,0.0,0.0,0.0,0.0,0.0,0.0,0.0,0.0,0.7273,0.0,0.0,0.0,0.0,0.0,0.0,0.0,0.0,0.0,0.0,0.0,1.4298,1.4298,1.4298,1.4298,1.4298,1.4298,1.4298,1.4298,1.4298,1.4298,1.4298,1.4298,1.4298,1.4298,1.4298,1.4298,1.4298,1.4298,1.4298,1.4298,1.4298,1.4298,1.4298,1.4298,1.4298,1.4298,1.4298,1.4298,1.4389,1.4576,1.4998,1.524,1.536,1.5626,1.5728,1.5741,1.5849,1.5891,1.5891,0.0,0.3357,0.3405,0.3444,0.3378,0.3559,0.421,0.3757,0.3482,0.0,0.3476,0.0,0.0,0.0,0.0,0.0,0.0,0.0,0.0,0.0,0.2716,0.2696,0.2713,0.2778,0.0,0.0,0.0,0.0,0.0,0.0,0.0,0.0,0.0,0.0,0.2885,0.3141,0.3535,0.0,0.0,0.4586,0.5376,0.5874,0.0,0.0,0.7409,0.7455,0.7719,0.7651,0.7438,0.7436,0.6729,0.0,0.0,0.4948,0.4866,0.5015,0.5378,0.0,0.0,0.0,0.0,0.0,0.0,0.0,0.7066,0.8038,0.897,0.0,0.0,0.0,0.0,0.0,0.0,0.0,0.0,0.0,0.0,0.0,1.422,1.425,1.4256,1.4262,1.4292,1.4298,1.4298,1.4298,1.4298,1.4298,1.4298,1.4298,1.4298,1.4298,1.4298,1.4298,1.4298,1.4298,1.4298,1.4298,1.4298,1.4298,1.4298,1.4298,1.4298,1.4298,1.4298,1.4298,1.4316,1.457,1.4823,1.5089,1.5354,1.5475,1.5529,1.5759,1.5861,1.5891,0.3958,0.3672,0.348,0.3755,0.3665,0.36,0.3727,0.3719,0.373,0.3818,0.0,0.0,0.0,0.0,0.0,0.0,0.0,0.0,0.0,0.0,0.2808,0.2703,0.2798,0.2822,0.2744,0.0,0.0,0.0,0.0,0.0,0.0,0.0,0.0,0.0,0.2856,0.3003,0.0,0.0,0.0,0.467,0.4972,0.0,0.6731,0.6949,0.7309,0.7733,0.779,0.7851,0.7855,0.7492,0.7075,0.6563,0.0,0.0,0.0,0.6048,0.0,0.6687,0.7196,0.7389,0.7424,0.7375,0.0,0.0,0.702,0.7478,0.8127,0.0,0.0,0.0,0.0,0.0,0.0,0.0,0.0,0.0,0.0,0.0,0.0,1.396,1.3978,1.4063,1.428,1.4298,1.4298,1.4298,1.4298,1.4298,1.4298,1.4298,1.4298,1.4298,1.4298,1.4298,1.4298,1.4298,1.4298,1.4298,1.4298,1.4298,1.4298,1.4298,1.4298,1.4298,1.4298,1.4298,1.4298,1.4358,1.4545,1.4817,1.5083,1.5312,1.5505,1.5559,1.5704,1.5891,0.3518,0.3452,0.3428,0.3701,0.3785,0.3826,0.3876,0.395,0.4046,0.0,0.0,0.0,0.0,0.0,0.0,0.0,0.0,0.0,0.0,0.0,0.2947,0.2801,0.2795,0.2829,0.29,0.29,0.0,0.0,0.0,0.0,0.0,0.0,0.0,0.0,0.0,0.0,0.0,0.0,0.4209,0.4745,0.5345,0.0,0.6916,0.7213,0.76,0.7877,0.7877,0.7924,0.7907,0.7434,0.7156,0.0,0.0,0.6244,0.636,0.0,0.7029,0.7646,0.0,0.0,0.8699,0.8857,0.0,0.0,0.0,0.7886,0.8023,0.8425,0.0,0.0,0.0,0.0,0.0,0.0,0.0,0.0,0.0,0.0,0.0,0.0,1.3598,1.3622,1.3882,1.3906,1.396,1.4093,1.422,1.4298,1.4298,1.4298,1.4298,1.4298,1.4298,1.4298,1.4298,1.4298,1.4298,1.4298,1.4298,1.4298,1.4298,1.4298,1.4298,1.4298,1.4298,1.4298,1.4298,1.4298,1.4383,1.4533,1.4805,1.4992,1.5125,1.5252,1.5469,1.5692,0.2966,0.3165,0.3384,0.361,0.3843,0.4045,0.4174,0.4244,0.4314,0.0,0.0,0.0,0.0,0.0,0.0,0.0,0.0,0.0,0.0,0.0,0.0,0.3042,0.2911,0.2925,0.3094,0.2917,0.0,0.0,0.0,0.0,0.0,0.0,0.0,0.0,0.0,0.0,0.0,0.0,0.0,0.4986,0.0,0.6485,0.6785,0.7478,0.7804,0.7874,0.7958,0.7988,0.7907,0.7365,0.7317,0.7305,0.6647,0.6813,0.0,0.0,0.0,0.0,0.0,0.0,0.0,0.0,0.0,0.9179,0.0,0.0,0.0,0.8848,0.0,0.0,0.0,0.0,0.0,0.0,0.0,0.0,0.0,0.0,0.0,0.0,1.2958,1.2969,1.3332,1.3314,1.3435,1.3803,1.393,1.4057,1.4214,1.4268,1.4298,1.4298,1.4298,1.4298,1.4298,1.4298,1.4298,1.4298,1.4298,1.4298,1.4298,1.4298,1.4298,1.4298,1.4298,1.4298,1.4298,1.4298,1.4298,1.4322,1.4545,1.4666,1.4745,1.4956,1.5197,1.5421,0.3206,0.3327,0.346,0.3744,0.3907,0.4045,0.4174,0.4358,0.4518,0.0,0.0,0.0,0.0,0.0,0.0,0.0,0.0,0.0,0.4565,0.0,0.0,0.3525,0.3399,0.3249,0.3104,0.3182,0.3077,0.0,0.0,0.0,0.0,0.0,0.2959,0.3138,0.3415,0.0,0.0,0.0,0.4914,0.0,0.6279,0.6322,0.0,0.7092,0.7434,0.7499,0.7847,0.7988,0.7938,0.0,0.8009,0.8375,0.0,0.8029,0.9391,0.0,0.0,0.0,0.0,0.0,0.0,0.0,1.0569,0.0,0.0,0.0,0.913,0.8507,0.0,0.0,0.0,0.0,0.0,0.0,0.0,0.0,0.0,0.0,0.0,0.0,1.1781,1.2252,1.2747,1.2584,1.2759,1.3501,1.3139,1.32,1.3912,1.4171,1.4298,1.4298,1.4298,1.4298,1.4298,1.4298,1.4298,1.4298,1.4298,1.4298,1.4298,1.4298,1.4298,1.4298,1.4298,1.4298,1.4298,1.4298,1.4298,1.4298,1.4334,1.4497,1.4721,1.4751,1.4932,1.5155,0.3169,0.331,0.3488,0.3764,0.3843,0.3944,0.416,0.4667,0.4975,0.0,0.0,0.0,0.0,0.0,0.0,0.0,0.0,0.5101,0.0,0.0,0.0,0.3737,0.3583,0.3474,0.3388,0.3256,0.3104,0.0,0.2829,0.0,0.0,0.0,0.3124,0.3524,0.3809,0.0,0.4799,0.0,0.5118,0.0,0.0,0.0,0.0,0.7285,0.7756,0.7784,0.7924,0.7988,0.7931,0.0,0.8015,0.0,0.0,0.0,0.0,0.0,0.0,0.0,0.0,0.0,0.0,0.0,0.0,0.0,0.8939,0.0,0.8597,0.0,0.0,0.0,0.0,0.0,0.0,0.0,0.0,0.0,0.0,0.0,0.0,0.0,0.0,0.0,1.1715,1.183,1.2085,1.2765,1.2608,1.2831,1.3634,1.393,1.4141,1.4292,1.4298,1.4298,1.4298,1.4298,1.4298,1.4298,1.4298,1.4298,1.4298,1.4298,1.4298,1.4298,1.4298,1.4298,1.4298,1.4298,1.4298,1.4298,1.4298,1.437,1.4473,1.4473,1.4648,1.4877,0.3232,0.0,0.0,0.0,0.3799,0.3985,0.4348,0.4891,0.5206,0.0,0.0,0.0,0.5983,0.602,0.0,0.0,0.6051,0.5694,0.0,0.0,0.4505,0.4259,0.3911,0.0,0.0,0.3442,0.0,0.3185,0.2927,0.0,0.0,0.0,0.3283,0.3809,0.0,0.4714,0.5334,0.0,0.0,0.5849,0.6064,0.6268,0.6519,0.7489,0.7884,0.7988,0.7988,0.7988,0.7928,0.757,0.7978,0.0,0.7969,0.0,0.0,0.0,0.0,0.0,1.0981,0.0,0.0,0.0,0.0,0.0,0.0,0.0,0.0,0.0,0.0,0.0,0.0,0.0,0.0,0.0,0.0,0.0,0.0,0.0,0.0,0.0,0.0,0.0,0.0,1.0803,1.1116,1.1823,1.1745,1.2107,1.3133,1.3507,1.3845,1.4177,1.4262,1.4298,1.4298,1.4298,1.4298,1.4298,1.4298,1.4298,1.4298,1.4298,1.4298,1.4298,1.4298,1.4298,1.4298,1.4298,1.4298,1.4298,1.4298,1.4298,1.4298,1.4298,1.4425,1.46,0.3529,0.359,0.0,0.0,0.0,0.4186,0.4776,0.4887,0.5087,0.0,0.0,0.0,0.0,0.0,0.0,0.0,0.0,0.6477,0.6463,0.0,0.5026,0.5334,0.447,0.4141,0.0,0.0,0.3515,0.3385,0.3185,0.3162,0.0,0.0,0.0,0.0,0.0,0.485,0.5143,0.572,0.63,0.6849,0.6994,0.7402,0.7877,0.0,0.7662,0.7988,0.7988,0.0,0.0,0.7692,0.8149,0.8811,0.8861,0.0,0.0,0.0,0.0,0.0,0.0,0.0,0.0,1.0839,0.0,0.0,0.0,0.0,0.963,0.0,0.0,0.0,0.0,0.0,0.0,0.0,0.0,0.0,0.0,0.0,0.0,0.0,0.0,0.0,0.0,0.9474,0.9606,0.0,1.0268,1.0665,1.227,1.2856,1.3387,1.3906,1.4165,1.4298,1.4298,1.4298,1.4298,1.4298,1.4298,1.4298,1.4298,1.4298,1.4298,1.4298,1.4298,1.4298,1.4298,1.4298,1.4298,1.4298,1.4298,1.4298,1.4298,1.4298,1.4304,1.431,0.0,0.0,0.0,0.0,0.0,0.407,0.4677,0.5186,0.0,0.0,0.0,0.0,0.0,0.7173,0.7285,0.0,0.0,0.6983,0.6787,0.6166,0.0,0.0,0.0,0.4904,0.0,0.0,0.4068,0.3792,0.3548,0.3449,0.0,0.0,0.0,0.0,0.0,0.502,0.0,0.0,0.0,0.0,0.0,0.7456,0.7975,0.0,0.786,0.7988,0.7988,0.7988,0.7975,0.7877,0.828,0.8878,0.9235,1.0111,1.1065,1.1497,1.2281,1.2922,1.2793,1.3229,1.3387,1.1742,0.0,0.0,0.0,0.0,0.0,0.0,0.0,0.0,0.0,0.0,0.0,0.0,0.0,0.0,0.0,0.0,0.0,0.0,0.0,0.0,0.0,0.0,0.0,0.0,1.0003,0.0,1.1688,1.2638,1.3239,1.3634,1.4069,1.4298,1.4298,1.4298,1.4298,1.4298,1.4298,1.4298,1.4298,1.4298,1.4298,1.4298,1.4298,1.4298,1.4298,1.4298,1.4298,1.4298,1.4298,1.4298,1.4298,1.4298,1.4298,1.4298,0.367,0.0,0.0,0.0,0.0,0.0,0.4847,0.0,0.0,0.0,0.6759,0.0,0.7556,0.0,0.7573,0.0,0.7668,0.738,0.6984,0.6685,0.0,0.6274,0.5837,0.0,0.0,0.0,0.4665,0.4311,0.4039,0.389,0.0,0.0,0.0,0.0,0.0,0.0,0.5762,0.0,0.6702,0.0,0.0,0.7644,0.0,0.0,0.7988,0.7988,0.7988,0.7988,0.8038,0.8432,0.8781,0.926,1.036,1.1039,1.1497,1.2182,1.2761,1.3188,1.3048,1.3424,1.361,1.2373,1.1793,0.0,0.9709,0.0,0.0,0.0,0.0,0.0,0.0,0.0,0.0,0.0,0.0,0.0,0.0,0.0,0.0,0.0,0.0,0.0,0.0,0.0,0.8643,0.942,0.948,0.0,0.0,1.2127,1.2861,1.3363,1.3882,1.4201,1.4298,1.4298,1.4298,1.4298,1.4298,1.4298,1.4298,1.4298,1.4298,1.4298,1.4298,1.4298,1.4298,1.4298,1.4298,1.4298,1.4298,1.4298,1.4298,1.4298,1.4298,1.4298,0.0,0.0,0.0,0.0,0.4109,0.0,0.0,0.0,0.6402,0.0,0.6937,0.7233,0.7587,0.7621,0.7736,0.7965,0.7906,0.7641,0.7169,0.7001,0.0,0.0,0.6325,0.6213,0.6528,0.0,0.0,0.0,0.4651,0.4392,0.0,0.0,0.0,0.0,0.4682,0.0,0.5647,0.6532,0.7177,0.7634,0.7874,0.7988,0.7988,0.7988,0.7988,0.7988,0.7988,0.7988,0.8187,0.9217,0.9608,0.9948,1.2047,1.2047,1.1429,1.2331,1.2661,1.2678,1.2316,1.3067,1.3676,1.265,1.2361,1.1932,0.0,0.0,1.1327,0.0,0.0,0.0,0.0,0.0,0.0,0.0,0.0,0.0,0.0,0.0,0.0,0.0,0.0,0.0,0.0,0.0,0.7909,0.8632,0.871,0.0,0.0,1.1423,1.2229,1.3035,1.3628,1.4032,1.4292,1.4298,1.4298,1.4298,1.4298,1.4298,1.4298,1.4298,1.4298,1.4298,1.4298,1.4298,1.4298,1.4298,1.4298,1.4298,1.4298,1.4298,1.4298,1.4298,1.4298,1.4298,0.3652,0.373,0.3928,0.0,0.4294,0.4552,0.0,0.0,0.0,0.0,0.7292,0.7597,0.7843,0.7877,0.7907,0.7982,0.7955,0.0,0.0,0.0,0.0,0.7522,0.7051,0.6798,0.6814,0.6074,0.0,0.5416,0.0,0.0,0.4429,0.0,0.0,0.0,0.0,0.0,0.5633,0.6305,0.7041,0.7773,0.7914,0.7988,0.7988,0.0,0.7988,0.7988,0.7988,0.7988,0.8187,0.9217,0.9608,0.9948,1.2047,1.2533,1.2522,1.3538,1.3855,1.3878,1.3743,1.3945,1.4087,1.3616,1.3049,1.2445,1.1802,1.2065,0.0,0.0,0.0,0.0,0.0,0.0,0.0,0.0,0.0,0.0,0.0,0.0,0.0,0.0,0.0,0.0,0.0,0.7774,0.7988,0.8363,0.8776,0.0,1.0346,0.0,1.1952,1.2789,1.3525,1.4032,1.4292,1.4298,1.4298,1.4298,1.4298,1.4298,1.4298,1.4298,1.4298,1.4298,1.4298,1.4298,1.4298,1.4298,1.4298,1.4298,1.4298,1.4298,1.4298,1.4298,1.4298,1.4298,0.3753,0.0,0.0,0.4893,0.0,0.0,0.5745,0.6167,0.0,0.717,0.7506,0.0,0.7874,0.7948,0.7988,0.7988,0.7988,0.0,0.7855,0.0,0.0,0.7723,0.7536,0.7321,0.7224,0.661,0.0,0.5681,0.0,0.0,0.4487,0.0,0.0,0.0,0.0,0.5087,0.0,0.6542,0.7231,0.7824,0.7928,0.7988,0.0,0.7988,0.7988,0.7988,0.7988,0.8283,0.8871,0.9953,1.0583,1.1219,1.2877,1.3414,1.3516,1.41,1.4298,1.4298,1.4298,1.4298,1.4262,1.4117,1.3737,1.3272,1.2783,1.2783,1.2759,1.2277,1.2385,1.2499,1.2174,0.0,0.0,0.0,0.0,0.0,0.0,0.0,0.0,0.0,0.0,0.0,0.7619,0.7709,0.7834,0.7985,0.8566,0.0,0.0,0.0,1.1748,1.2343,1.3254,1.3857,1.4123,1.4238,1.4298,1.4298,1.4298,1.4298,1.4298,1.4298,1.4298,1.4298,1.4298,1.4298,1.4298,1.4298,1.4298,1.4298,1.4298,1.4298,1.4298,1.4298,1.4298,1.4298,0.0,0.0,0.0,0.0,0.0,0.0,0.0,0.6691,0.0,0.7363,0.0,0.7841,0.7841,0.7911,0.7988,0.7988,0.0,0.788,0.7675,0.7847,0.7877,0.7668,0.7777,0.7773,0.7631,0.717,0.0,0.0,0.0,0.0,0.0,0.0,0.0,0.0,0.0,0.0,0.0,0.6848,0.7506,0.7824,0.7928,0.7988,0.7988,0.7988,0.7988,0.8041,0.8137,0.8825,0.9756,1.0828,1.1853,1.2877,1.395,1.4298,1.4298,1.4298,1.4298,1.4298,1.4298,1.4298,1.4298,1.4298,1.4298,1.4117,1.3435,1.3278,1.3278,1.3278,1.268,1.2554,1.361,0.0,0.0,0.0,0.0,0.0,0.0,0.0,0.0,0.0,0.0,0.0,0.7654,0.768,0.7686,0.765,0.8275,0.0,0.0,0.0,1.1465,1.1908,1.2922,1.3604,1.3906,1.4165,1.4298,1.4298,1.4298,1.4298,1.4298,1.4298,1.4298,1.4298,1.4298,1.4298,1.4298,1.4298,1.4298,1.4298,1.4298,1.4298,1.4298,1.4298,1.4298,1.4298,0.0,0.0,0.0,0.0,0.0,0.6417,0.6937,0.7035,0.7169,0.7519,0.7818,0.7948,0.7948,0.7975,0.7988,0.7988,0.7988,0.0,0.0,0.0,0.0,0.7914,0.7938,0.788,0.7777,0.7217,0.6681,0.0,0.5504,0.4837,0.426,0.0,0.0,0.0,0.0,0.0,0.6221,0.6759,0.0,0.7824,0.7928,0.7988,0.7988,0.7988,0.7988,0.8137,0.9019,0.946,0.9756,1.0828,1.1853,1.2877,1.395,1.4298,1.4298,1.4298,1.4298,1.4298,1.4298,1.4298,1.4298,1.4298,1.4298,1.4262,1.4123,1.4093,1.4093,1.4093,1.3978,1.3755,1.3338,1.2005,0.0,0.0,0.0,0.0,0.0,0.0,0.0,0.0,0.0,0.0,0.0,0.8048,0.809,0.7874,0.0,0.0,0.0,0.0,1.0707,0.0,1.2747,1.3423,1.3906,1.4165,1.4298,1.4298,1.4298,1.4298,1.4298,1.4298,1.4298,1.4298,1.4298,1.4298,1.4298,1.4298,1.4298,1.4298,1.4298,1.4298,1.4298,1.4298,1.4298,1.4298,0.0,0.0,0.0,0.0,0.0,0.0,0.0,0.7684,0.7862,0.794,0.7915,0.7898,0.7898,0.7817,0.7811,0.7811,0.7845,0.785,0.7699,0.7882,0.7942,0.7793,0.7942,0.0,0.7814,0.7461,0.6943,0.63,0.5735,0.5135,0.0,0.4494,0.0,0.0,0.0,0.5644,0.0,0.0,0.7411,0.7824,0.7928,0.7988,0.8038,0.863,0.8825,0.897,1.0047,1.0779,1.1268,1.1804,1.2684,1.3613,1.4148,1.4298,1.4298,1.4298,1.4298,1.4298,1.4298,1.4298,1.4298,1.4298,1.4298,1.4298,1.4298,1.4298,1.4298,1.4298,1.4298,1.4057,1.3266,1.2137,1.1206,0.0,0.0,0.0,0.0,0.0,0.0,0.0,0.0,0.0,0.0,0.0,0.0,0.0,0.0,0.0,0.0,0.0,1.0382,0.0,0.0,0.0,1.3701,1.4099,1.4298,1.4298,1.4298,1.4298,1.4298,1.4298,1.4298,1.4298,1.4298,1.4298,1.4298,1.4298,1.4298,1.4298,1.4298,1.4298,1.4298,1.4298,1.4298,1.4298,0.0,0.6061,0.0,0.0,0.7081,0.7588,0.7667,0.8066,0.8318,0.823,0.8001,0.7843,0.774,0.7688,0.7595,0.7595,0.7703,0.7689,0.7434,0.7715,0.7785,0.7638,0.7809,0.7885,0.7862,0.7719,0.7238,0.0,0.6064,0.5501,0.4735,0.4644,0.4621,0.4713,0.0,0.0,0.0,0.7187,0.756,0.7872,0.7941,0.7988,0.8137,0.9217,0.9608,0.9756,1.1072,1.2047,1.2727,1.2974,1.3607,1.4298,1.4298,1.4298,1.4298,1.4298,1.4298,1.4298,1.4298,1.4298,1.4298,1.4298,1.4298,1.4298,1.4298,1.4298,1.4298,1.4298,1.4298,1.4039,1.3188,1.2397,1.1802,0.0,0.0,0.0,0.0,0.0,0.0,0.0,0.0,0.0,0.0,0.0,0.0,0.0,0.0,0.0,0.8357,0.0,0.0,0.0,1.2065,1.2856,1.3338,1.3978,1.4298,1.4298,1.4298,1.4298,1.4298,1.4298,1.4298,1.4298,1.4298,1.4298,1.4298,1.4298,1.4298,1.4298,1.4298,1.4298,1.4298,1.4298,1.4298,1.4298,0.0,0.0,0.0,0.0,0.0,0.7113,0.7235,0.7627,0.788,0.801,0.7994,0.7889,0.7629,0.7589,0.7595,0.7595,0.7635,0.7629,0.7577,0.7501,0.7575,0.7776,0.7711,0.7736,0.7968,0.7868,0.7489,0.0,0.0,0.5766,0.4867,0.488,0.502,0.533,0.5776,0.6283,0.6866,0.7234,0.7621,0.7971,0.7985,0.7988,0.8137,0.9217,0.9608,0.985,1.1853,1.263,1.2829,1.3806,1.4202,1.4298,1.4298,1.4298,1.4298,1.4298,1.4298,1.4298,1.4298,1.4298,1.4298,1.4298,1.4298,1.4298,1.4298,1.4298,1.4298,1.4298,1.4298,1.3978,1.2934,1.3061,1.285,1.1389,0.0,0.0,0.0,0.0,0.0,0.0,0.0,0.0,0.0,0.7816,0.0,0.0,0.0,0.0,0.8644,0.8987,0.9648,1.0689,1.1793,1.2487,1.2777,1.3791,1.4298,1.4298,1.4298,1.4298,1.4298,1.4298,1.4298,1.4298,1.4298,1.4298,1.4298,1.4298,1.4298,1.4298,1.4298,1.4298,1.4298,1.4298,1.4298,1.4298,0.0,0.0,0.0,0.0,0.0,0.0,0.7419,0.771,0.7889,0.7786,0.778,0.7726,0.7617,0.7451,0.7339,0.7339,0.7436,0.7392,0.7234,0.7431,0.7565,0.7669,0.7539,0.7721,0.8177,0.7832,0.7512,0.0,0.0,0.0,0.6518,0.6448,0.6267,0.6081,0.6407,0.6803,0.7214,0.7509,0.779,0.7988,0.7988,0.8382,0.9069,1.0145,1.0925,1.1658,1.3119,1.3661,1.3709,1.4154,1.4298,1.4298,1.4298,1.4298,1.4298,1.4298,1.4298,1.4298,1.4298,1.4298,1.4298,1.4298,1.4298,1.4298,1.4298,1.4298,1.4298,1.4298,1.4171,1.393,1.3501,1.3079,1.2687,1.2373,0.0,0.0,0.0,0.0,0.0,0.0,0.0,0.0,0.0,0.0,0.0,0.0,0.0,0.7707,0.8183,0.8782,0.9438,1.0196,0.0,1.2439,1.2699,1.3761,1.4298,1.4298,1.4298,1.4298,1.4298,1.4298,1.4298,1.4298,1.4298,1.4298,1.4298,1.4298,1.4298,1.4298,1.4298,1.4298,1.4298,1.4298,1.4298,1.4298,0.685,0.6787,0.6793,0.6999,0.7123,0.7285,0.7465,0.7657,0.7712,0.7493,0.7493,0.7493,0.7493,0.7324,0.721,0.721,0.7298,0.725,0.7089,0.7299,0.7443,0.7546,0.7418,0.0,0.8075,0.7829,0.7586,0.7476,0.7838,0.0,0.7391,0.725,0.7003,0.6681,0.699,0.7265,0.7516,0.777,0.8083,0.8482,0.8482,0.9118,1.0194,1.1219,1.2096,1.2823,1.3908,1.4298,1.4298,1.4298,1.4298,1.4298,1.4298,1.4298,1.4298,1.4298,1.4298,1.4298,1.4298,1.4298,1.4298,1.4298,1.4298,1.4298,1.4298,1.4298,1.4298,1.4298,1.4087,1.3882,1.3803,1.3115,1.2596,1.2704,0.0,0.0,0.0,0.0,0.0,0.0,0.0,0.9023,0.8842,0.0,0.0,0.0,0.0,0.7937,0.8339,0.8921,0.9576,1.0352,1.1682,1.256,1.2825,1.3803,1.4298,1.4298,1.4298,1.4298,1.4298,1.4298,1.4298,1.4298,1.4298,1.4298,1.4298,1.4298,1.4298,1.4298,1.4298,1.4298,1.4298,1.4298,1.4298,1.4298,0.6959,0.6983,0.7018,0.7188,0.7207,0.7207,0.721,0.721,0.721,0.721,0.721,0.721,0.721,0.721,0.721,0.721,0.721,0.7207,0.721,0.71,0.7143,0.0,0.0,0.7323,0.7592,0.7714,0.7725,0.7587,0.0,0.0,0.6915,0.6763,0.6851,0.7102,0.7455,0.7672,0.7818,0.7921,0.8627,0.9558,0.9558,1.0243,1.1268,1.229,1.2678,1.2823,1.3908,1.4298,1.4298,1.4298,1.4298,1.4298,1.4298,1.4298,1.4298,1.4298,1.4298,1.4298,1.4298,1.4298,1.4298,1.4298,1.4298,1.4298,1.4298,1.4298,1.4298,1.4298,1.4087,1.3827,1.3568,1.3296,1.2812,1.2024,1.2361,0.0,0.0,0.0,0.0,0.0,0.9582,0.9095,0.9095,0.0,0.0,0.0,0.0,0.9197,0.948,0.9504,1.0118,1.1429,1.2282,1.2831,1.3071,1.3906,1.4298,1.4298,1.4298,1.4298,1.4298,1.4298,1.4298,1.4298,1.4298,1.4298,1.4298,1.4298,1.4298,1.4298,1.4298,1.4298,1.4298,1.4298,1.4298,1.4298,0.7147,0.7155,0.7166,0.7204,0.721,0.721,0.721,0.721,0.721,0.721,0.721,0.721,0.721,0.721,0.721,0.0,0.721,0.721,0.0,0.7177,0.7268,0.7546,0.7205,0.7299,0.7725,0.7487,0.751,0.7734,0.8231,0.8478,0.8455,0.8444,0.8167,0.7709,0.7806,0.7877,0.797,0.8753,0.9266,0.9657,1.0391,1.1317,1.2242,1.2581,1.3167,1.3854,1.4196,1.4298,1.4298,1.4298,1.4298,1.4298,1.4298,1.4298,1.4298,1.4298,1.4298,1.4298,1.4298,1.4298,1.4298,1.4298,1.4298,1.4298,1.4298,1.4298,1.4298,1.4298,1.4087,1.3827,1.3562,1.3302,1.2976,1.253,1.2445,0.0,1.1739,0.0,0.0,0.0,1.0178,0.9913,0.9913,0.96,0.0,0.0,0.0,0.0,0.9227,1.0088,1.0689,1.0936,1.2288,1.2987,1.3083,1.3906,1.4298,1.4298,1.4298,1.4298,1.4298,1.4298,1.4298,1.4298,1.4298,1.4298,1.4298,1.4298,1.4298,1.4298,1.4298,1.4298,1.4298,1.4298,1.4298,1.4322,0.721,0.7245,0.7222,0.7222,0.726,0.7293,0.7293,0.7293,0.7293,0.7293,0.7293,0.7293,0.7293,0.7293,0.7255,0.7218,0.721,0.721,0.721,0.721,0.7268,0.7438,0.7199,0.721,0.7589,0.7356,0.7411,0.7642,0.8262,0.866,0.8864,0.88,0.8487,0.7988,0.7988,0.8233,0.8627,0.9312,1.0047,1.0828,1.1512,1.2387,1.3318,1.3318,1.3709,1.4298,1.4298,1.4298,1.4298,1.4298,1.4298,1.4298,1.4298,1.4298,1.4298,1.4298,1.4298,1.4298,1.4298,1.4298,1.4298,1.4298,1.4298,1.4298,1.4298,1.4298,1.4298,1.4298,1.4087,1.3827,1.3562,1.3302,1.3031,1.2747,1.2481,1.2222,1.1956,0.0,0.0,0.0,0.0,0.0,0.0,1.0322,1.0274,0.0,0.0,0.0,0.0,1.0731,1.123,1.1573,1.2789,1.3465,1.3562,1.4051,1.4298,1.4298,1.4298,1.4298,1.4298,1.4298,1.4298,1.4298,1.4298,1.4298,1.4298,1.4298,1.4298,1.4298,1.4298,1.4298,1.4298,1.4298,1.4364,1.4479,0.7235,0.7271,0.729,0.729,0.7442,0.7519,0.7519,0.7519,0.7519,0.7519,0.7519,0.7519,0.7519,0.7519,0.7426,0.7256,0.7229,0.7218,0.721,0.721,0.721,0.721,0.721,0.721,0.721,0.7322,0.7422,0.7411,0.7685,0.7968,0.8333,0.8187,0.8118,0.8019,0.8218,0.8809,0.9644,0.9793,1.0967,1.278,1.2829,1.3465,1.4352,1.4352,1.4352,1.4352,1.4352,1.4352,1.4352,1.4334,1.4328,1.4322,1.4304,1.4298,1.4298,1.4298,1.4298,1.4298,1.4298,1.4298,1.4298,1.4298,1.4298,1.4298,1.4298,1.4298,1.4298,1.4298,1.4099,1.3845,1.3568,1.3314,1.3049,1.2729,1.2457,1.2198,1.1892,1.1455,0.0,0.0,0.0,1.0707,1.043,1.0845,1.116,0.0,0.0,0.0,1.195,1.1504,1.1823,1.3041,1.3634,1.4032,1.4292,1.4298,1.4298,1.4298,1.4298,1.4298,1.4298,1.4298,1.4298,1.4298,1.4298,1.4298,1.4298,1.4298,1.4298,1.4298,1.4298,1.4298,1.4298,1.4322,1.4491,1.4727,0.7413,0.7456,0.7475,0.7475,0.75,0.7519,0.7519,0.7519,0.7519,0.7519,0.7519,0.7519,0.7519,0.7519,0.7494,0.7437,0.7347,0.7252,0.7215,0.721,0.721,0.721,0.721,0.721,0.721,0.7238,0.7396,0.7732,0.7886,0.8118,0.8484,0.9268,0.9198,0.8481,1.0275,1.0685,1.0168,1.1851,1.2871,1.3382,1.4199,1.4657,1.4914,1.4914,1.4914,1.4914,1.4914,1.4914,1.4883,1.4684,1.4618,1.4582,1.4364,1.4298,1.4298,1.4298,1.4298,1.4298,1.4298,1.4298,1.4298,1.4298,1.4298,1.4298,1.4298,1.4298,1.4298,1.4298,1.425,1.4063,1.3598,1.3465,1.32,1.2518,1.2186,1.188,1.1621,1.1477,1.1369,0.0,1.1477,1.1573,1.1513,1.1655,1.1648,1.1411,0.0,1.2011,1.221,1.2493,1.2752,1.3071,1.3634,1.4032,1.4292,1.4298,1.4298,1.4298,1.4298,1.4298,1.4298,1.4298,1.4298,1.4298,1.4298,1.4298,1.4298,1.4298,1.4298,1.4298,1.4298,1.4298,1.4322,1.4539,1.466,1.4775,0.7505,0.7565,0.7603,0.7603,0.7646,0.7679,0.7679,0.7679,0.7679,0.7679,0.7679,0.7679,0.7679,0.7679,0.7657,0.7608,0.7491,0.7366,0.7244,0.7236,0.7214,0.7213,0.721,0.721,0.721,0.721,0.7401,0.7877,0.8072,0.8268,0.8637,0.9714,0.957,0.8587,1.0975,1.1596,1.1018,1.2782,1.376,1.4276,1.4847,1.5107,1.5107,1.5107,1.5107,1.5107,1.5107,1.5107,1.5083,1.4944,1.4896,1.4871,1.4714,1.4588,1.4485,1.4485,1.4395,1.4298,1.4298,1.4298,1.4298,1.4298,1.4298,1.4298,1.4298,1.4298,1.4298,1.4298,1.4298,1.4171,1.3767,1.3598,1.329,1.2602,1.227,1.2011,1.1706,1.167,1.1712,1.1832,1.2079,1.233,1.2457,1.2578,1.2548,1.2451,1.2572,1.2668,1.2856,1.3254,1.3483,1.3483,1.3876,1.4153,1.4298,1.4298,1.4298,1.4298,1.4298,1.4298,1.4298,1.4298,1.4298,1.4298,1.4298,1.4298,1.4298,1.4298,1.4298,1.4298,1.4298,1.4298,1.4334,1.4612,1.4793,1.4956,0.7568,0.7655,0.7728,0.7728,0.7807,0.7872,0.7872,0.7872,0.7872,0.7872,0.7872,0.7872,0.7872,0.7872,0.7831,0.7736,0.763,0.7513,0.7315,0.7288,0.729,0.7243,0.7221,0.721,0.721,0.7265,0.7543,0.81,0.8423,0.8743,0.9007,1.0241,1.0168,0.9177,1.1528,1.2412,1.2252,1.3401,1.439,1.5228,1.5228,1.5228,1.5228,1.5228,1.5228,1.5228,1.5228,1.5228,1.5215,1.5179,1.5167,1.5161,1.5119,1.4956,1.4775,1.4775,1.4576,1.4352,1.431,1.4298,1.4298,1.4298,1.4298,1.4298,1.4298,1.4298,1.4298,1.4298,1.4298,1.4214,1.3954,1.3688,1.3326,1.2741,1.2457,1.221,1.1868,1.1922,1.2125,1.2343,1.2644,1.2922,1.3157,1.3387,1.3532,1.3568,1.3574,1.3592,1.3634,1.3845,1.3966,1.3966,1.4177,1.4298,1.4298,1.4298,1.4298,1.4298,1.4298,1.4298,1.4298,1.4298,1.4298,1.4298,1.4298,1.4298,1.4298,1.4298,1.4298,1.4298,1.4298,1.4322,1.4395,1.4672,1.4944,1.5203,0.7799,0.7831,0.7845,0.7845,0.7858,0.7872,0.7872,0.7872,0.7872,0.7872,0.7872,0.7872,0.7872,0.7872,0.7864,0.7845,0.7828,0.7722,0.7505,0.7336,0.7271,0.7307,0.7209,0.721,0.721,0.7438,0.7826,0.8429,0.9446,1.0085,1.0413,1.2553,1.292,1.1887,1.4259,1.475,1.3891,1.5016,1.5606,1.5771,1.5771,1.5771,1.5771,1.5771,1.5771,1.5771,1.5771,1.5771,1.5734,1.5511,1.5439,1.5403,1.5179,1.5077,1.5046,1.5046,1.4859,1.46,1.4358,1.4298,1.4298,1.4298,1.4298,1.4298,1.4298,1.4298,1.4298,1.4298,1.4298,1.4214,1.3954,1.3688,1.3266,1.2499,1.2337,1.2143,1.1621,1.2161,1.2596,1.2638,1.3085,1.3405,1.3447,1.3495,1.3604,1.3827,1.3845,1.3942,1.4165,1.4214,1.4238,1.4238,1.4274,1.4298,1.4298,1.4298,1.4298,1.4298,1.4298,1.4298,1.4298,1.4298,1.4298,1.4298,1.4298,1.4298,1.4298,1.4298,1.4298,1.4298,1.4298,1.4443,1.4684,1.495,1.5215,1.5475,0.7861,0.7872,0.7872,0.7872,0.7872,0.7872,0.7872,0.7872,0.7872,0.7872,0.7872,0.7872,0.7872,0.7872,0.7872,0.7872,0.7872,0.7823,0.7717,0.7597,0.7502,0.7437,0.738,0.732,0.7252,0.7471,0.7826,0.8208,0.9578,1.0343,1.0726,1.3073,1.3565,1.2521,1.4857,1.5244,1.4277,1.5405,1.5891,1.5891,1.5891,1.5891,1.5891,1.5891,1.5891,1.5891,1.5891,1.5891,1.5867,1.5753,1.571,1.5686,1.5565,1.5433,1.5318,1.5318,1.5034,1.4654,1.4377,1.4298,1.4298,1.4298,1.4298,1.4298,1.4298,1.4298,1.4298,1.4298,1.4298,1.4262,1.4135,1.3906,1.3556,1.3043,1.2843,1.2626,1.2379,1.2662,1.3037,1.332,1.3574,1.3779,1.3924,1.3936,1.3984,1.4111,1.4117,1.4171,1.4292,1.4298,1.4298,1.4298,1.4298,1.4298,1.4298,1.4298,1.4298,1.4298,1.4298,1.4298,1.4298,1.4298,1.4298,1.4298,1.4298,1.4298,1.4298,1.4298,1.4298,1.4298,1.4298,1.4467,1.4751,1.501,1.5276,1.5535,0.7872,0.7872,0.7872,0.7872,0.7872,0.7872,0.7872,0.7872,0.7872,0.7872,0.7872,0.7872,0.7872,0.7872,0.7872,0.7872,0.7872,0.7872,0.7872,0.7788,0.7687,0.7568,0.7535,0.7475,0.7437,0.7598,0.7926,0.8533,0.9923,1.0941,1.1546,1.3614,1.4105,1.3285,1.5078,1.5405,1.4654,1.5512,1.5891,1.5891,1.5891,1.5891,1.5891,1.5891,1.5891,1.5891,1.5891,1.5891,1.5891,1.5891,1.5891,1.5891,1.5891,1.5753,1.559,1.559,1.5264,1.4823,1.4485,1.4395,1.4377,1.4316,1.4298,1.4298,1.4298,1.4298,1.4298,1.4298,1.4298,1.4298,1.4298,1.4081,1.3821,1.3556,1.3344,1.3149,1.3089,1.323,1.3459,1.3857,1.396,1.4075,1.428,1.4298,1.4298,1.4298,1.4298,1.4298,1.4298,1.4298,1.4298,1.4298,1.4298,1.4298,1.4298,1.4298,1.4298,1.4298,1.4298,1.4298,1.4298,1.4298,1.4298,1.4298,1.4298,1.4298,1.4298,1.4298,1.4298,1.4298,1.4298,1.4509,1.4829,1.5034,1.5312,1.562,0.7872,0.7872,0.7872,0.7872,0.7872,0.7872,0.7872,0.7872,0.7872,0.7872,0.7872,0.7872,0.7872,0.7872,0.7872,0.7872,0.7872,0.7872,0.7872,0.7861,0.7807,0.7693,0.7578,0.763,0.7968,0.7841,0.8562,1.0194,1.1304,1.258,1.3948,1.519,1.5725,1.5672,1.5832,1.5832,1.5785,1.5838,1.5891,1.5891,1.5891,1.5891,1.5891,1.5891,1.5891,1.5891,1.5891,1.5891,1.5891,1.5891,1.5891,1.5891,1.5891,1.5879,1.5861,1.5861,1.5662,1.533,1.4823,1.4684,1.4624,1.4358,1.4298,1.4298,1.4298,1.4298,1.4298,1.4298,1.4298,1.4298,1.4298,1.4081,1.3821,1.3556,1.3501,1.3399,1.3113,1.3544,1.3863,1.3906,1.4123,1.4274,1.4292,1.4298,1.4298,1.4298,1.4298,1.4298,1.4298,1.4298,1.4298,1.4298,1.4298,1.4298,1.4298,1.4298,1.4298,1.4298,1.4298,1.4298,1.4298,1.4298,1.4298,1.4298,1.4298,1.4298,1.4298,1.4298,1.4298,1.4298,1.4298,1.4618,1.5083,1.5101,1.5427,1.5861,0.7872,0.7872,0.7872,0.7872,0.7872,0.7872,0.7872,0.7872,0.7872,0.7872,0.7872,0.7872,0.7872,0.7872,0.7872,0.7872,0.7872,0.7872,0.7872,0.7872,0.785,0.7809,0.7695,0.7689,0.7808,0.7685,0.8535,1.0425,1.1363,1.2712,1.4489,1.5427,1.5891,1.5891,1.5891,1.5891,1.5891,1.5891,1.5891,1.5891,1.5891,1.5891,1.5891,1.5891,1.5891,1.5891,1.5891,1.5891,1.5891,1.5891,1.5891,1.5891,1.5891,1.5891,1.5891,1.5891,1.5819,1.5662,1.53,1.5083,1.4896,1.4624,1.4558,1.4509,1.4334,1.4298,1.4298,1.4298,1.4298,1.4298,1.4298,1.4214,1.4117,1.4014,1.3863,1.3779,1.3845,1.3882,1.3966,1.4129,1.4238,1.4298,1.4298,1.4298,1.4298,1.4298,1.4298,1.4298,1.4298,1.4298,1.4298,1.4298,1.4298,1.4298,1.4298,1.4298,1.4298,1.4298,1.4298,1.4298,1.4298,1.4298,1.4298,1.4298,1.4298,1.4298,1.4298,1.4298,1.4298,1.4316,1.4491,1.4781,1.5125,1.5288,1.5578,1.5891,0.7872,0.7872,0.7872,0.7872,0.7872,0.7872,0.7872,0.7872,0.7872,0.7872,0.7872,0.7872,0.7872,0.7872,0.7872,0.7872,0.7872,0.7872,0.7872,0.7872,0.7872,0.7872,0.7796,0.7755,0.7755,0.7638,0.8679,1.0995,1.1549,1.2978,1.5294,1.5842,1.6097,1.6012,1.6012,1.597,1.5891,1.5891,1.5891,1.5891,1.5891,1.5891,1.5891,1.5891,1.5891,1.5891,1.5891,1.5891,1.5891,1.5891,1.5891,1.5891,1.5891,1.5891,1.5891,1.5891,1.5891,1.5849,1.5674,1.5487,1.527,1.4926,1.4781,1.4666,1.4473,1.4358,1.4298,1.4298,1.4298,1.4298,1.4298,1.4298,1.4298,1.4298,1.4147,1.4093,1.4268,1.4141,1.4093,1.4274,1.4298,1.4298,1.4298,1.4298,1.4298,1.4298,1.4298,1.4298,1.4298,1.4298,1.4298,1.4298,1.4298,1.4298,1.4298,1.4298,1.4298,1.4298,1.4298,1.4298,1.4298,1.4298,1.4298,1.4298,1.4298,1.4298,1.4298,1.4298,1.4298,1.4328,1.4606,1.4877,1.5143,1.5403,1.5662,1.5891,0.7872,0.7872,0.7872,0.7872,0.7872,0.7872,0.7872,0.7872,0.7872,0.7872,0.7872,0.7872,0.7872,0.7872,0.7872,0.7872,0.7872,0.7872,0.7872,0.7872,0.7872,0.7872,0.7872,0.7872,0.7872,0.7761,0.9232,1.2277,1.2139,1.3648,1.67,1.67,1.6549,1.6284,1.6284,1.6139,1.5897,1.5897,1.5897,1.5897,1.5897,1.5897,1.5897,1.5897,1.5897,1.5897,1.5897,1.5897,1.5897,1.5891,1.5891,1.5891,1.5891,1.5891,1.5891,1.5891,1.5891,1.5891,1.5891,1.5891,1.5765,1.524,1.4914,1.4727,1.4721,1.4503,1.4298,1.4298,1.4298,1.4298,1.4298,1.4298,1.4298,1.4298,1.4298,1.4298,1.4298,1.4298,1.4298,1.4298,1.4298,1.4298,1.4298,1.4298,1.4298,1.4298,1.4298,1.4298,1.4298,1.4298,1.4298,1.4298,1.4298,1.4298,1.4298,1.4298,1.4298,1.4298,1.4298,1.4298,1.4298,1.4298,1.4298,1.4298,1.4298,1.4298,1.4298,1.4298,1.4298,1.4328,1.4612,1.4877,1.5143,1.5403,1.5662,1.5891,0.7872,0.7872,0.7872,0.7872,0.7872,0.7872,0.7872,0.7872,0.7872,0.7872,0.7872,0.7872,0.7872,0.7872,0.7872,0.7872,0.7872,0.7872,0.7872,0.7872,0.7872,0.7872,0.7872,0.7872,0.7872,0.7837,0.8838,1.0872,1.1816,1.3297,1.5341,1.6271,1.6658,1.6573,1.6573,1.6531,1.6459,1.6459,1.6459,1.6459,1.6459,1.6459,1.6459,1.6459,1.6459,1.6459,1.6459,1.6459,1.6429,1.6247,1.6175,1.6133,1.5946,1.5891,1.5891,1.5891,1.5891,1.5891,1.5891,1.5891,1.5807,1.5469,1.5324,1.5215,1.5034,1.4781,1.4594,1.4594,1.4437,1.4298,1.4298,1.4298,1.4298,1.4298,1.4298,1.4298,1.4298,1.4298,1.4298,1.4298,1.4298,1.4298,1.4298,1.4298,1.4298,1.4298,1.4298,1.4298,1.4298,1.4298,1.4298,1.4298,1.4298,1.4298,1.4298,1.4298,1.4298,1.4298,1.4298,1.4298,1.4298,1.4298,1.4298,1.4298,1.4298,1.4298,1.4298,1.4298,1.4413,1.4618,1.489,1.5149,1.5415,1.568,1.5819,1.5891,0.7872,0.7872,0.7872,0.7872,0.7872,0.7872,0.7872,0.7872,0.7872,0.7872,0.7872,0.7872,0.7872,0.7872,0.7872,0.7872,0.7872,0.7872,0.7872,0.7872,0.7872,0.7872,0.8238,0.8299,0.7933,0.7872,0.89,1.0827,1.1912,1.3457,1.5418,1.65,1.6954,1.6857,1.6857,1.6797,1.67,1.67,1.67,1.67,1.67,1.67,1.67,1.67,1.67,1.67,1.67,1.67,1.6676,1.6519,1.638,1.6254,1.6097,1.5976,1.5891,1.5891,1.5891,1.5891,1.5891,1.5891,1.5849,1.5692,1.5578,1.5457,1.53,1.5059,1.4871,1.4871,1.4654,1.4461,1.4461,1.437,1.4298,1.4298,1.4298,1.4298,1.4298,1.4298,1.4298,1.4298,1.4298,1.4298,1.4298,1.4298,1.4298,1.4298,1.4298,1.4298,1.4298,1.4298,1.4298,1.4298,1.4298,1.4298,1.4298,1.4298,1.4298,1.4298,1.4298,1.4298,1.4298,1.4298,1.4298,1.4298,1.4298,1.4298,1.4298,1.4298,1.4395,1.4588,1.4962,1.5203,1.539,1.5759,1.5891,1.5891,0.7872,0.7872,0.7872,0.7872,0.7872,0.7872,0.7872,0.7872,0.7872,0.7872,0.7872,0.7872,0.7872,0.7872,0.7872,0.7872,0.7872,0.7872,0.7872,0.7872,0.7872,0.7872,0.8787,0.8848,0.7933,0.7994,0.9201,1.1615,1.2324,1.3939,1.6295,1.7126,1.7358,1.7129,1.7129,1.6996,1.6767,1.6767,1.6767,1.6767,1.6767,1.6767,1.6767,1.6767,1.6767,1.6767,1.6767,1.6767,1.6767,1.6742,1.6549,1.632,1.632,1.6151,1.5958,1.5934,1.5928,1.5922,1.5897,1.5891,1.5891,1.5891,1.571,1.5535,1.5535,1.533,1.5143,1.5143,1.4938,1.4751,1.4751,1.4545,1.4358,1.434,1.4334,1.4328,1.4298,1.4298,1.4298,1.4298,1.4298,1.4298,1.4298,1.4298,1.4298,1.4298,1.4298,1.4298,1.4298,1.4298,1.4298,1.4298,1.4298,1.4298,1.4298,1.4298,1.4298,1.4298,1.4298,1.4298,1.4298,1.4298,1.4298,1.4298,1.4298,1.4298,1.4298,1.4298,1.4328,1.4419,1.489,1.5113,1.5234,1.5686,1.5867,1.5891,0.7872,0.7872,0.7872,0.7872,0.7872,0.7872,0.7872,0.7872,0.7872,0.7872,0.7872,0.7872,0.7872,0.7872,0.7872,0.7872,0.7872,0.7872,0.7872,0.7872,0.7872,0.7872,0.8787,0.8848,0.7933,0.8604,0.9636,1.1023,1.2148,1.3338,1.4663,1.6579,1.7455,1.74,1.74,1.7364,1.7316,1.7316,1.7316,1.7316,1.7316,1.7316,1.7316,1.7316,1.7316,1.7316,1.7316,1.7316,1.728,1.7074,1.6833,1.661,1.661,1.6573,1.6483,1.626,1.6193,1.6151,1.5946,1.5891,1.5891,1.5891,1.5849,1.5807,1.5807,1.5602,1.5415,1.5415,1.5203,1.5022,1.5022,1.4974,1.4865,1.466,1.4624,1.4552,1.4328,1.4298,1.4298,1.4298,1.4298,1.4298,1.4298,1.4298,1.4298,1.4298,1.4298,1.4298,1.4298,1.4298,1.4298,1.4298,1.4298,1.4298,1.4298,1.4298,1.4298,1.4298,1.4298,1.4298,1.4298,1.4298,1.4298,1.4298,1.4298,1.4298,1.4298,1.4298,1.4545,1.4926,1.4835,1.5179,1.571,1.5614,1.5716,1.5891,0.7872,0.7872,0.7872,0.7872,0.7872,0.7872,0.7872,0.7872,0.7872,0.7872,0.7872,0.7872,0.7872,0.7872,0.7872,0.7872,0.7872,0.7872,0.7872,0.7872,0.7872,0.7872,0.9271,0.9576,0.8604,0.994,1.0728,1.0789,1.2509,1.3885,1.4857,1.6644,1.7485,1.7485,1.7485,1.7485,1.7485,1.7485,1.7485,1.7485,1.7485,1.7485,1.7485,1.7485,1.7485,1.7485,1.7485,1.7485,1.7461,1.7322,1.7105,1.6887,1.6887,1.6803,1.667,1.6525,1.6386,1.6254,1.6127,1.5994,1.5891,1.5891,1.5891,1.5891,1.5891,1.5783,1.5686,1.5686,1.5475,1.5294,1.5294,1.5191,1.5065,1.4926,1.4902,1.4853,1.4702,1.4684,1.4636,1.4515,1.4497,1.4443,1.431,1.4298,1.4298,1.4298,1.4298,1.4298,1.4298,1.4298,1.4298,1.4298,1.4298,1.4298,1.4298,1.4298,1.4298,1.4298,1.4298,1.4298,1.4298,1.4298,1.4298,1.4298,1.4298,1.4298,1.4298,1.4298,1.4467,1.4721,1.4714,1.4968,1.5342,1.5457,1.5662,1.5891,0.7872,0.7872,0.7872,0.7872,0.7872,0.7872,0.7872,0.7872,0.7872,0.7872,0.7872,0.7872,0.7872,0.7872,0.7872,0.7872,0.7872,0.7872,0.7872,0.7872,0.7994,0.8116,0.9879,1.0425,0.9579,1.145,1.1997,1.1031,1.2993,1.4495,1.5655,1.6773,1.7361,1.7485,1.7485,1.7485,1.7485,1.7485,1.7485,1.7485,1.7485,1.7485,1.7485,1.7485,1.7485,1.7485,1.7485,1.7485,1.7485,1.7485,1.734,1.7159,1.7159,1.7008,1.6827,1.6785,1.6604,1.641,1.6386,1.6175,1.5964,1.5958,1.5922,1.5891,1.5891,1.5891,1.5891,1.5891,1.5716,1.5565,1.5565,1.539,1.5228,1.5185,1.5179,1.5161,1.5113,1.5107,1.5028,1.4805,1.4787,1.469,1.4461,1.4437,1.4437,1.4437,1.4395,1.4389,1.4431,1.4395,1.437,1.437,1.437,1.4346,1.4298,1.4298,1.4298,1.4298,1.4298,1.4298,1.4298,1.4298,1.4298,1.4298,1.4298,1.4298,1.4298,1.4298,1.4328,1.4389,1.457,1.4702,1.4841,1.5324,1.5662,1.5891,0.7872,0.7872,0.7872,0.7872,0.7872,0.7872,0.7872,0.7872,0.7872,0.7872,0.7872,0.7872,0.7872,0.7872,0.7872,0.7872,0.7872,0.7872,0.7872,0.7872,0.8238,0.9092,1.0183,1.0728,1.0607,1.2479,1.3024,1.1993,1.2882,1.4083,1.5601,1.6301,1.695,1.7485,1.7485,1.7485,1.7485,1.7485,1.7485,1.7485,1.7485,1.7485,1.7485,1.7485,1.7485,1.7485,1.7485,1.7485,1.7485,1.7485,1.7461,1.743,1.743,1.7406,1.7334,1.7105,1.7008,1.693,1.6706,1.6453,1.6247,1.6229,1.6054,1.5891,1.5891,1.5891,1.5891,1.5891,1.5861,1.5837,1.5837,1.5807,1.571,1.5481,1.5445,1.5366,1.5143,1.5107,1.5095,1.5059,1.5059,1.504,1.5004,1.4998,1.4998,1.4998,1.4787,1.4763,1.4986,1.4781,1.466,1.466,1.466,1.4539,1.4298,1.4298,1.4298,1.4298,1.4298,1.4298,1.4298,1.4298,1.4298,1.4298,1.4298,1.4298,1.4298,1.4298,1.4437,1.4642,1.4431,1.4642,1.5089,1.539,1.5662,1.5891,0.7872,0.7872,0.7872,0.7872,0.7872,0.7872,0.7872,0.7872,0.7872,0.7872,0.7872,0.7872,0.7872,0.7872,0.7872,0.7872,0.7872,0.7872,0.7872,0.8421,0.8848,0.9275,1.0789,1.1333,1.0789,1.2724,1.3204,1.2174,1.343,1.457,1.5601,1.6242,1.6832,1.7485,1.7485,1.7485,1.7485,1.7485,1.7485,1.7485,1.7485,1.7485,1.7485,1.7485,1.7485,1.7485,1.7485,1.7485,1.7485,1.7485,1.7485,1.7485,1.7485,1.7485,1.7461,1.734,1.7207,1.7062,1.6954,1.6616,1.629,1.6284,1.6193,1.6066,1.5922,1.6006,1.6066,1.5922,1.5891,1.5891,1.5891,1.5891,1.5849,1.5734,1.5716,1.568,1.5559,1.5547,1.5487,1.5342,1.5197,1.5107,1.5107,1.5107,1.5107,1.5107,1.4998,1.4986,1.5101,1.4998,1.4938,1.4938,1.4938,1.4877,1.4751,1.4751,1.4751,1.4751,1.4751,1.4594,1.4298,1.4298,1.4298,1.4298,1.4298,1.4298,1.4298,1.4298,1.437,1.4473,1.4346,1.4539,1.4902,1.5022,1.5318,1.5674]}]]